GFSSGP_con_mlcape_000.txt.gz
CAPE
0 0 0 0 0 0 0 0 0 0 0 0 0 0 0 0 0 0 2 32 58 152 899 823 692 429 519 297 33 2 0 0 0 0 2 1 5 18 22 15 16 10 0 0 0 0 0 0 0
0 0 0 0 0 0 0 0 0 0 0 0 0 0 0 0 0 0 8 66 79 176 804 803 703 437 612 198 28 4 0 0 0 0 1 8 12 17 12 19 6 0 0 0 0 0 0 0 0
0 0 0 0 0 0 0 0 0 0 0 0 0 0 0 0 13 9 10 89 106 139 613 752 798 707 639 240 41 8 0 0 0 0 1 13 21 27 22 17 2 0 0 0 0 0 0 0 0
0 0 0 0 0 0 0 0 0 0 0 0 0 0 0 0 0 22 5 117 138 120 414 839 989 783 635 217 55 23 10 0 0 0 0 10 29 52 47 19 0 0 0 0 0 0 0 0 0
0 0 0 0 0 0 0 0 0 0 0 0 0 0 0 0 10 7 8 125 151 236 450 1107 721 626 556 92 40 32 16 7 0 0 0 4 11 26 106 41 8 0 0 0 0 0 0 0 2
0 0 0 0 0 0 0 0 0 0 0 0 0 0 0 0 23 10 15 43 396 571 828 958 716 610 306 132 91 57 25 14 0 0 0 6 0 7 100 74 30 2 4 0 4 3 4 0 0
0 0 0 0 0 0 0 0 0 0 0 0 0 0 0 0 1 10 15 34 596 898 1122 955 969 589 376 311 162 76 62 41 20 0 0 7 1 0 7 175 77 33 2 6 11 7 0 0 0
0 0 0 0 0 0 0 0 0 0 0 0 0 0 0 0 2 26 22 164 624 987 1006 909 769 579 300 369 161 128 131 77 54 31 14 2 0 0 0 22 20 17 18 6 0 0 0 0 0
0 0 0 0 0 0 0 0 0 0 0 0 0 0 0 0 1 36 43 79 684 920 765 711 515 547 225 237 218 152 123 123 84 40 18 2 0 0 0 8 11 5 0 0 7 11 17 8 0
0 0 0 0 0 0 0 0 0 0 0 0 0 0 0 0 0 0 3 19 185 435 504 489 367 218 207 267 138 185 90 101 45 29 12 3 0 0 0 0 1 0 7 23 38 57 55 30 0
0 0 0 0 0 0 0 0 0 0 0 0 0 0 0 0 0 0 0 4 49 188 381 452 416 361 384 247 168 112 71 48 30 26 20 24 0 0 0 0 1 0 0 13 18 2 2 6 3
0 0 0 0 0 0 0 0 0 0 0 0 0 0 0 0 0 0 0 0 1 118 339 398 450 476 523 407 342 168 94 66 43 63 51 26 1 18 12 20 37 38 62 56 26 0 0 0 0
0 0 0 1 1 0 0 0 0 0 0 0 0 0 0 0 0 0 0 0 0 0 245 428 427 537 471 364 256 146 100 103 30 39 6 11 38 72 57 32 8 0 0 0 0 0 0 0 0
0 3 0 0 0 3 0 0 0 0 0 0 0 0 0 0 0 0 0 0 0 0 174 410 494 554 376 298 228 167 38 28 27 39 48 46 42 36 0 0 0 0 0 0 0 0 0 0 0
0 0 0 0 0 0 0 0 0 0 0 0 0 0 0 0 0 0 0 0 0 0 156 401 525 518 479 362 286 142 61 26 12 4 1 1 0 0 0 0 0 0 0 0 0 0 0 0 0
0 0 0 0 0 0 11 0 0 0 0 0 0 0 0 0 0 0 0 0 0 0 103 298 434 481 466 403 231 33 0 0 0 0 0 0 0 0 0 0 0 0 0 0 0 0 0 0 0
12 0 0 1 0 7 7 0 0 0 0 0 0 0 0 0 0 0 0 0 0 0 0 9 292 447 341 136 0 0 0 0 0 0 0 0 0 0 0 0 0 0 0 0 0 0 0 0 0
2 1 0 0 5 3 0 0 0 0 0 0 0 0 0 0 0 0 0 0 0 0 0 0 211 152 2 0 0 0 0 0 0 0 0 0 0 0 0 0 0 0 0 0 0 0 0 0 0
1 2 0 0 3 0 0 1 0 0 0 0 0 0 0 0 0 0 0 0 0 0 0 0 32 0 0 0 0 0 0 0 0 0 0 0 0 0 0 0 0 0 0 0 0 0 0 0 0
0 0 0 0 0 0 1 0 0 0 0 0 0 0 0 0 0 0 0 0 0 0 0 0 0 0 0 0 0 0 0 0 0 0 0 0 0 0 0 0 0 0 0 0 0 0 0 0 0
0 0 0 0 0 0 0 0 0 0 0 0 0 0 0 0 0 0 0 0 0 0 0 0 0 0 0 0 0 0 0 0 0 0 0 0 0 0 0 0 0 0 0 0 0 0 0 0 0
0 0 0 0 0 0 14 0 0 0 0 0 0 0 0 0 0 0 0 0 0 0 0 0 0 0 0 0 0 0 0 0 0 0 0 0 0 0 0 0 0 0 0 0 0 0 0 0 0
0 0 0 2 3 3 0 0 0 0 0 0 0 0 0 0 0 0 0 0 0 0 0 0 0 0 0 0 0 0 0 0 0 0 0 0 0 0 0 0 0 0 0 0 0 0 0 0 0
13 9 9 11 24 1 0 5 0 0 0 0 0 0 0 0 0 0 0 0 0 0 0 0 0 0 0 0 0 0 0 0 0 0 0 0 0 0 0 0 0 0 0 0 0 0 0 0 0
6 13 6 1 2 0 2 0 0 0 0 0 0 0 0 0 0 0 0 0 0 0 0 0 0 0 0 0 0 0 0 0 0 0 0 0 0 0 0 0 0 0 0 0 0 0 0 0 0
0 0 0 0 0 0 0 0 0 0 0 0 0 0 0 0 0 0 0 0 0 0 0 0 0 0 0 0 0 0 0 0 0 0 0 0 0 0 0 0 0 0 0 0 0 0 0 0 0
0 8 0 2 4 4 0 0 0 0 0 0 0 0 0 0 0 0 0 0 0 0 0 0 0 0 0 0 0 0 0 0 0 0 0 0 0 0 0 0 0 0 0 0 0 0 0 0 0
0 0 0 3 0 0 0 0 0 0 0 0 0 0 0 0 0 0 0 0 0 0 0 0 0 0 0 0 0 0 0 0 0 0 0 0 0 0 0 0 0 0 0 0 0 0 0 0 0
5 11 3 0 1 19 0 0 0 0 0 0 0 0 0 0 0 0 0 0 0 0 0 0 0 0 0 0 0 0 0 0 0 0 0 0 0 0 0 0 0 0 0 0 0 0 0 0 0
1 0 0 1 0 0 0 0 0 0 0 0 0 0 0 0 0 0 0 0 0 0 0 0 0 0 0 0 0 0 0 0 0 0 0 0 0 0 0 0 0 0 0 0 0 0 0 0 0

GFSSGP_con_mlcape_003.txt.gz
CAPE
0 0 0 0 0 0 0 0 0 0 0 0 0 0 0 0 0 0 2 32 63 95 871 1093 1002 775 339 127 27 0 0 0 0 0 1 6 6 16 15 24 16 0 0 0 0 0 0 0 0
0 0 0 0 0 0 0 0 0 0 0 0 0 0 0 0 3 1 30 44 105 263 1042 934 1001 587 516 235 44 12 0 0 0 0 6 10 22 30 17 20 2 0 0 0 0 0 0 0 0
0 0 0 0 0 0 0 0 0 0 0 0 0 0 0 0 33 1 14 86 277 320 962 803 803 547 630 274 58 19 0 0 0 0 7 15 18 32 37 5 0 0 0 0 0 0 0 0 0
0 0 0 0 0 0 0 0 0 0 0 0 0 0 0 0 15 37 42 147 214 197 818 918 872 713 643 265 94 24 0 0 0 0 0 4 30 52 31 26 0 0 0 0 0 0 0 0 0
0 0 0 0 0 0 0 0 0 0 0 0 0 0 0 0 13 26 92 221 120 190 643 1034 1005 889 685 339 81 45 1 0 0 0 0 4 18 22 62 36 5 0 0 0 0 0 0 0 0
0 0 0 0 0 0 0 0 0 0 0 0 0 0 0 0 35 15 120 166 262 229 590 1140 1241 931 726 264 106 53 14 0 0 0 0 3 0 2 51 45 26 3 1 0 0 2 2 5 1
0 0 0 0 0 0 0 0 0 0 0 0 0 0 0 0 17 15 60 205 440 423 767 1122 1129 817 614 189 129 60 31 14 0 0 0 1 0 0 8 132 77 45 19 1 10 21 1 0 9
0 0 0 0 0 0 0 0 0 0 0 0 0 0 0 0 0 15 0 174 642 873 999 1003 747 776 515 340 184 91 70 45 12 0 0 0 0 0 0 57 41 28 27 39 20 10 31 47 36
0 0 0 0 0 0 0 0 0 0 0 0 0 0 0 0 1 34 12 188 704 1039 1210 1031 852 643 460 398 300 166 158 111 55 23 5 0 0 0 0 1 3 11 24 25 54 106 104 72 51
0 0 0 0 0 0 0 0 0 0 0 0 0 0 0 0 0 9 17 167 559 886 1093 1060 857 589 398 370 275 194 171 136 88 28 1 0 0 0 0 0 2 13 17 39 64 102 57 3 0
0 0 0 0 0 0 0 0 0 0 0 0 0 0 0 0 0 0 0 48 228 642 905 922 726 504 453 222 203 238 143 105 46 11 0 3 0 0 0 0 0 0 0 15 23 1 0 0 0
0 0 0 0 0 0 0 0 0 0 0 0 0 0 0 0 0 0 0 0 68 150 554 703 594 435 293 215 147 135 79 47 20 8 6 7 0 0 0 2 9 15 24 6 0 0 0 0 0
0 0 0 0 0 0 0 0 0 0 0 0 0 0 0 0 0 0 0 0 0 51 286 543 557 467 429 337 283 211 129 82 37 23 27 0 0 7 7 0 0 0 0 0 0 0 0 0 0
0 0 0 0 0 0 0 0 0 0 0 0 0 0 0 0 0 0 0 0 0 0 21 405 546 539 533 525 404 286 154 113 6 0 0 0 0 0 0 0 0 0 0 0 0 0 0 0 0
0 0 0 0 0 0 0 0 0 0 0 0 0 0 0 0 0 0 0 0 0 0 0 208 544 538 583 478 295 145 64 34 0 0 0 0 0 0 0 0 0 0 0 0 0 0 0 0 0
9 2 0 0 0 0 0 0 0 0 0 0 0 0 0 0 0 0 0 0 0 0 0 191 669 622 521 339 173 54 2 0 0 0 0 0 0 0 0 0 0 0 0 0 0 0 0 0 0
1 0 0 1 0 4 0 0 0 0 0 0 0 0 0 0 0 0 0 0 0 0 0 351 689 680 417 106 0 0 0 0 0 0 0 0 0 0 0 0 0 0 0 0 0 0 0 0 0
1 2 5 1 0 0 0 0 0 0 0 0 0 0 0 0 0 0 0 0 0 0 0 334 592 413 25 0 0 0 0 0 0 0 0 0 0 0 0 0 0 0 0 0 0 0 0 0 0
6 0 3 0 0 0 0 0 0 0 0 0 0 0 0 0 0 0 0 0 0 0 0 181 234 12 0 0 0 0 0 0 0 0 0 0 0 0 0 0 0 0 0 0 0 0 0 0 0
0 8 5 3 0 1 0 0 0 0 0 0 0 0 0 0 0 0 0 0 0 0 0 0 0 0 0 0 0 0 0 0 0 0 0 0 0 0 0 0 0 0 0 0 0 0 0 0 0
0 0 4 3 0 0 0 0 0 0 0 0 0 0 0 0 0 0 0 0 0 0 0 0 0 0 0 0 0 0 0 0 0 0 0 0 0 0 0 0 0 0 0 0 0 0 0 0 0
0 0 0 0 0 0 0 0 0 0 0 0 0 0 0 0 0 0 0 0 0 0 0 0 0 0 0 0 0 0 0 0 0 0 0 0 0 0 0 0 0 0 0 0 0 0 0 0 0
1 0 0 0 0 0 0 0 0 0 0 0 0 0 0 0 0 0 0 0 0 0 0 0 0 0 0 0 0 0 0 0 0 0 0 0 0 0 0 0 0 0 0 0 0 0 0 0 0
3 5 0 4 0 0 0 0 0 0 0 0 0 0 0 0 0 0 0 0 0 0 0 0 0 0 0 0 0 0 0 0 0 0 0 0 0 0 0 0 0 0 0 0 0 0 0 0 0
0 4 0 0 4 0 0 0 0 0 0 0 0 0 0 0 0 0 0 0 0 0 0 0 0 0 0 0 0 0 0 0 0 0 0 0 0 0 0 0 0 0 0 0 0 0 0 0 0
0 0 0 0 0 0 0 0 0 0 0 0 0 0 0 0 0 0 0 0 0 0 0 0 0 0 0 0 0 0 0 0 0 0 0 0 0 0 0 0 0 0 0 0 0 0 0 0 0
1 2 0 0 0 0 0 0 0 0 0 0 0 0 0 0 0 0 0 0 0 0 0 0 0 0 0 0 0 0 0 0 0 0 0 0 0 0 0 0 0 0 0 0 0 0 0 0 0
0 0 0 0 0 0 0 1 0 0 0 0 0 0 0 0 0 0 0 0 0 0 0 0 0 0 0 0 0 0 0 0 0 0 0 0 0 0 0 0 0 0 0 0 0 0 0 0 0
1 0 0 0 0 0 0 0 0 0 0 0 0 0 0 0 0 0 0 0 0 0 0 0 0 0 0 0 0 0 0 0 0 0 0 0 0 0 0 0 0 0 0 0 0 0 0 0 0
1 0 0 5 0 0 0 0 0 0 0 0 0 0 0 0 0 0 0 0 0 0 0 0 0 0 0 0 0 0 0 0 0 0 0 0 0 0 0 0 0 0 0 0 0 0 0 0 0

GFSSGP_con_mlcape_006.txt.gz
CAPE
0 0 0 0 0 0 0 0 0 0 0 0 0 0 0 0 0 0 4 34 44 39 222 860 988 673 404 78 33 1 0 0 0 1 14 10 8 19 11 16 9 0 0 0 0 0 0 0 0
0 0 0 0 0 0 0 0 0 0 0 0 0 0 0 1 6 10 51 51 91 113 519 977 1110 715 456 135 67 11 0 0 0 0 2 17 15 32 25 30 1 0 0 0 0 0 0 0 0
0 0 0 0 0 0 0 0 0 0 0 0 0 0 0 4 37 12 20 82 186 322 986 948 1101 790 571 267 94 47 1 0 0 1 8 20 19 39 18 0 0 0 0 0 0 0 0 0 0
0 0 0 0 0 0 0 0 0 0 0 0 0 0 0 0 27 23 53 143 309 548 1033 1041 1074 762 773 422 151 80 13 0 0 0 0 9 29 38 36 18 0 0 0 0 0 0 0 0 0
0 0 0 0 0 0 0 0 0 0 0 0 0 0 0 0 0 16 148 292 230 547 955 1000 939 723 818 469 222 98 25 0 0 0 0 6 20 29 70 41 1 0 0 0 0 0 0 0 1
0 0 0 0 0 0 0 0 0 0 0 0 0 0 0 0 12 57 220 200 312 378 827 1036 1058 960 900 533 220 116 50 0 0 0 0 3 7 6 58 80 34 1 0 5 0 2 7 2 1
0 0 0 0 0 0 0 0 0 0 0 0 0 0 0 0 3 29 194 308 352 408 795 1076 1220 1121 951 623 252 126 75 30 0 0 0 3 2 0 5 105 54 41 30 3 10 23 11 17 32
0 0 0 0 0 0 0 0 0 0 0 0 0 0 0 0 0 6 135 358 522 548 760 1038 1259 1155 880 589 282 143 94 64 0 0 0 0 0 0 0 49 52 11 5 15 24 45 76 81 69
0 0 0 0 0 0 0 0 0 0 0 0 0 0 0 0 0 7 37 289 688 826 868 1182 1259 889 814 468 353 201 110 95 58 0 0 0 0 0 0 0 0 0 5 21 41 110 105 17 2
0 0 0 0 0 0 0 0 0 0 0 0 0 0 0 0 0 0 3 76 456 764 1052 1215 1115 824 734 625 455 275 220 182 107 22 0 0 0 0 0 0 0 0 0 0 10 9 0 0 0
0 0 0 0 0 0 0 0 0 0 0 0 0 0 0 0 0 0 0 49 245 580 985 1253 1120 973 729 560 445 284 225 177 105 31 0 0 0 0 0 0 0 0 0 0 0 0 0 0 0
0 0 0 0 0 0 0 0 0 0 0 0 0 0 0 0 0 0 0 0 26 316 784 1097 1126 975 780 499 331 268 183 147 58 8 0 0 0 0 0 0 0 0 0 0 0 0 0 0 0
0 0 0 0 0 0 0 0 0 0 0 0 0 0 0 0 0 0 0 0 0 29 158 684 1046 937 682 569 279 243 180 98 59 8 0 0 0 0 0 0 0 0 0 0 0 0 0 0 0
0 0 0 0 0 0 0 0 0 0 0 0 0 0 0 0 0 0 0 0 0 0 0 66 578 819 606 439 283 205 151 97 50 23 10 0 0 0 0 0 0 0 0 0 0 0 0 0 0
0 0 0 0 0 0 0 0 0 0 0 0 0 0 0 0 0 0 0 0 0 0 0 0 116 643 612 472 407 319 151 110 23 0 0 0 0 0 0 0 0 0 0 0 0 0 0 0 0
1 1 0 0 0 0 0 0 0 0 0 0 0 0 0 0 0 0 0 0 0 0 0 0 47 543 585 551 382 172 77 0 0 0 0 0 0 0 0 0 0 0 0 0 0 0 0 0 0
0 0 0 0 0 0 0 0 0 0 0 0 0 0 0 0 0 0 0 0 0 0 0 0 117 497 479 212 23 0 0 0 0 0 0 0 0 0 0 0 0 0 0 0 0 0 0 0 0
0 0 0 0 1 0 0 0 0 0 0 0 0 0 0 0 0 0 0 0 0 0 0 55 323 412 45 0 0 0 0 0 0 0 0 0 0 0 0 0 0 0 0 0 0 0 0 0 0
0 0 0 0 0 0 0 0 0 0 0 0 0 0 0 0 0 0 0 0 0 0 2 169 337 44 0 0 0 0 0 0 0 0 0 0 0 0 0 0 0 0 0 0 0 0 0 0 0
3 1 0 0 0 0 0 0 0 0 0 0 0 0 0 0 0 0 0 0 0 0 12 196 169 0 0 0 0 0 0 0 0 0 0 0 0 0 0 0 0 0 0 0 0 0 0 0 0
0 0 0 0 0 0 0 0 0 0 0 0 0 0 0 0 0 0 0 0 0 0 0 41 0 0 0 0 0 0 0 0 0 0 0 0 0 0 0 0 0 0 0 0 0 0 0 0 0
0 0 0 0 0 0 0 0 0 0 0 0 0 0 0 0 0 0 0 0 0 0 0 0 0 0 0 0 0 0 0 0 0 0 0 0 0 0 0 0 0 0 0 0 0 0 0 0 0
1 0 0 0 0 1 0 1 0 0 0 0 0 0 0 0 0 0 0 0 0 0 0 0 0 0 0 0 0 0 0 0 0 0 0 0 0 0 0 0 0 0 0 0 0 0 0 0 0
0 1 0 1 4 1 0 0 0 0 0 0 0 0 0 0 0 0 0 0 0 0 0 0 0 0 0 0 0 0 0 0 0 0 0 0 0 0 0 0 0 0 0 0 0 0 0 0 0
0 1 0 0 0 0 0 0 0 0 0 0 0 0 0 0 0 0 0 0 0 0 0 0 0 0 0 0 0 0 0 0 0 0 0 0 0 0 0 0 0 0 0 0 0 0 0 0 0
0 0 0 0 0 0 0 0 0 0 0 0 0 0 0 0 0 0 0 0 0 0 0 0 0 0 0 0 0 0 0 0 0 0 0 0 0 0 0 0 0 0 0 0 0 0 0 0 0
1 0 0 0 0 0 0 0 0 0 0 0 0 0 0 0 0 0 0 0 0 0 0 0 0 0 0 0 0 0 0 0 0 0 0 0 0 0 0 0 0 0 0 0 0 0 0 0 0
0 0 2 0 0 0 0 0 0 0 0 0 0 0 0 0 0 0 0 0 0 0 0 0 0 0 0 0 0 0 0 0 0 0 0 0 0 0 0 0 0 0 0 0 0 0 0 0 0
0 0 0 0 0 0 0 0 0 0 0 0 0 0 0 0 0 0 0 0 0 0 0 0 0 0 0 0 0 0 0 0 0 0 0 0 0 0 0 0 0 0 0 0 0 0 0 0 0
0 0 0 0 0 0 0 0 1 22 0 0 0 0 0 0 0 0 0 0 0 0 0 0 0 0 0 0 0 0 0 0 0 0 0 0 0 0 0 0 0 0 0 0 0 0 0 0 0

GFSSGP_con_mlcape_009.txt.gz
CAPE
0 0 0 0 0 0 0 0 0 0 0 0 0 0 0 0 7 11 2 41 30 83 534 962 546 646 413 92 47 7 0 0 0 12 13 0 0 11 15 19 0 0 0 0 0 0 0 0 0
0 0 0 0 0 0 0 0 0 0 0 0 0 0 0 0 0 10 41 56 65 169 578 1109 960 705 472 133 70 14 0 0 0 0 9 8 12 29 18 21 0 0 0 0 0 0 0 0 0
0 0 0 0 0 0 0 0 0 0 0 0 0 0 0 0 2 10 22 70 136 228 722 1077 1146 850 618 275 123 40 1 0 0 0 11 23 22 26 0 0 0 0 0 0 0 0 0 0 0
0 0 0 0 0 0 0 0 0 0 0 0 0 0 0 0 13 1 41 215 323 394 951 1107 1313 980 715 397 174 113 21 0 0 0 7 17 29 35 29 0 0 0 0 0 0 0 0 0 0
0 0 0 0 0 0 0 0 0 0 0 0 0 0 0 0 0 14 153 344 342 488 1131 1223 1274 1067 885 572 299 147 64 6 0 0 0 11 25 44 44 29 0 0 0 0 0 2 6 5 3
0 0 0 0 0 0 0 0 0 0 0 0 0 0 0 0 13 120 407 428 502 506 1224 1255 1230 1031 1004 683 420 173 91 24 0 0 0 4 10 6 53 48 3 0 0 0 0 1 8 4 3
0 0 0 0 0 0 0 0 0 0 0 0 0 0 0 0 22 236 431 548 621 710 1004 1250 1219 1112 1057 707 368 191 117 42 0 0 0 0 0 0 46 78 32 24 19 0 6 29 29 60 80
0 0 0 0 0 0 0 0 0 0 0 0 0 0 0 0 12 164 376 489 545 654 1020 1213 1375 1324 1246 874 382 197 115 78 0 0 0 0 0 0 0 57 67 17 2 15 31 102 98 28 4
0 0 0 0 0 0 0 0 0 0 0 0 0 0 0 0 1 60 189 501 656 727 930 1140 1285 1349 1146 898 487 224 111 97 31 8 0 0 0 0 0 0 0 0 3 11 26 13 0 0 0
0 0 0 0 0 0 0 0 0 0 0 0 0 0 0 0 0 1 40 146 574 758 886 1244 1417 1319 1073 875 567 335 203 196 134 24 2 0 0 0 0 0 0 0 0 0 0 0 0 0 0
0 0 0 0 0 0 0 0 0 0 0 0 0 0 0 0 0 0 18 91 242 630 964 1034 1252 1103 1000 909 618 411 311 257 172 66 7 0 0 0 0 0 0 0 0 0 0 0 0 0 0
0 0 0 0 0 0 0 0 0 0 0 0 0 0 0 0 0 0 21 39 104 354 813 1082 1213 992 1060 959 658 455 306 290 165 96 12 0 0 0 0 0 0 0 0 0 0 0 0 0 0
0 0 0 0 0 0 0 0 0 0 0 0 0 0 0 0 0 0 0 25 51 132 435 912 1175 1191 1203 966 673 490 282 245 181 74 4 0 0 0 0 0 0 0 0 0 0 0 0 0 0
0 0 0 0 0 0 0 0 0 0 0 0 0 0 0 0 0 0 0 0 0 0 9 346 935 1074 1166 999 648 438 301 251 146 61 16 1 0 0 0 0 0 0 0 0 0 0 0 0 0
0 0 0 0 0 0 0 0 0 0 0 0 0 0 0 0 0 0 0 0 0 0 0 0 129 814 1184 997 706 344 237 175 110 67 18 0 0 0 0 0 0 0 0 0 0 0 0 0 0
0 0 0 0 0 0 0 0 0 0 0 0 0 0 0 0 0 0 0 0 0 0 0 0 0 154 917 874 544 262 186 114 49 8 0 0 0 0 0 0 0 0 0 0 0 0 0 0 0
0 0 0 0 0 0 0 0 0 0 0 0 0 0 0 0 0 0 0 0 0 0 0 0 1 81 636 550 260 158 44 5 0 0 0 0 0 0 0 0 0 0 0 0 0 0 0 0 0
0 0 0 0 0 0 0 0 0 0 0 0 0 0 0 0 0 0 0 0 0 0 0 0 69 200 314 93 0 0 0 0 0 0 0 0 0 0 0 0 0 0 0 0 0 0 0 0 0
0 0 0 0 0 0 0 0 0 0 0 0 0 0 0 0 0 0 0 0 0 0 0 12 124 66 78 0 0 0 0 0 0 0 0 0 0 0 0 0 0 0 0 0 0 0 0 0 0
0 0 0 0 0 0 0 0 0 0 0 0 0 0 0 0 0 0 0 0 0 0 0 104 134 12 27 0 0 0 0 0 0 0 0 0 0 0 0 0 0 0 0 0 0 0 0 0 0
2 1 1 0 0 0 0 0 0 0 0 0 0 0 0 0 0 0 0 0 0 0 0 135 12 0 0 0 0 0 0 0 0 0 0 0 0 0 0 0 0 0 0 0 0 0 0 0 0
0 0 0 0 1 0 0 0 0 0 0 0 0 0 0 0 0 0 0 0 0 0 0 1 0 0 0 0 0 0 0 0 0 0 0 0 0 0 0 0 0 0 0 0 0 0 0 0 0
0 0 0 0 0 1 0 1 0 0 0 0 0 0 0 0 0 0 0 0 0 0 0 0 0 0 0 0 0 0 0 0 0 0 0 0 0 0 0 0 0 0 0 0 0 0 0 0 0
0 1 1 0 0 0 0 0 0 0 0 0 0 0 0 0 0 0 0 0 0 0 0 0 0 0 0 0 0 0 0 0 0 0 0 0 0 0 0 0 0 0 0 0 0 0 0 0 0
0 0 0 0 0 0 0 0 0 0 0 0 0 0 0 0 0 0 0 0 0 0 0 0 0 0 0 0 0 0 0 0 0 0 0 0 0 0 0 0 0 0 0 0 0 0 0 0 0
0 0 0 1 0 0 0 0 0 0 0 0 0 0 0 0 0 0 0 0 0 0 0 0 0 0 0 0 0 0 0 0 0 0 0 0 0 0 0 0 0 0 0 0 0 0 0 0 0
0 0 0 0 0 0 0 0 0 0 0 0 0 0 0 0 0 0 0 0 0 0 0 0 0 0 0 0 0 0 0 0 0 0 0 0 0 0 0 0 0 0 0 0 0 0 0 0 0
1 0 1 0 0 0 0 0 0 0 0 0 0 0 0 0 0 0 0 0 0 0 0 0 0 0 0 0 0 0 0 0 0 0 0 0 0 0 0 0 0 0 0 0 0 0 0 0 0
0 1 1 2 0 0 0 0 0 0 0 0 0 0 0 0 0 0 0 0 0 0 0 0 0 0 0 0 0 0 0 0 0 0 0 0 0 0 0 0 0 0 0 0 0 0 0 0 0
0 0 0 0 0 0 0 0 0 0 24 0 0 0 0 0 0 0 0 0 0 0 0 0 0 0 0 0 0 0 0 0 0 0 0 0 0 0 0 0 0 0 0 0 0 0 0 0 0

GFSSGP_con_mlcape_012.txt.gz
CAPE
0 0 0 0 0 0 0 0 0 0 0 0 0 0 0 0 31 32 59 127 104 198 818 956 757 583 344 81 43 16 0 0 0 12 1 0 0 3 17 13 0 0 0 0 0 0 0 0 1
0 0 0 0 0 0 0 0 0 0 0 0 0 0 0 0 0 49 45 134 131 331 1047 771 868 628 431 144 68 22 5 0 0 12 3 0 6 17 0 0 0 0 0 0 0 0 0 0 0
0 0 0 0 0 0 0 0 0 0 0 0 0 0 0 0 47 64 113 177 201 494 1032 978 1007 749 489 239 105 26 8 0 0 0 8 13 17 1 15 0 0 0 0 0 0 0 0 0 0
0 0 0 0 0 0 0 0 0 0 0 0 0 0 0 0 66 68 148 358 280 529 1030 1407 1090 860 608 361 149 63 6 0 0 0 6 17 26 37 0 0 0 0 0 0 0 0 0 3 1
0 0 0 0 0 0 0 0 0 0 0 0 0 0 0 0 28 83 346 565 388 566 973 1404 1276 972 765 496 257 145 29 0 0 0 3 8 30 46 25 1 0 0 0 0 0 2 3 2 0
0 0 0 0 0 0 0 0 0 0 0 0 0 0 0 0 114 389 583 662 657 686 1023 1105 1408 1166 923 669 424 200 88 21 0 0 0 4 8 5 33 15 0 0 0 0 0 5 13 13 38
0 0 0 0 0 0 0 0 0 0 0 0 0 0 0 0 245 730 733 778 864 788 1071 994 1285 1110 964 764 474 238 99 44 0 0 0 2 0 0 49 78 26 14 14 0 11 37 79 92 70
0 0 0 0 0 0 0 0 0 0 0 0 0 0 0 0 250 708 739 822 899 901 1050 1044 985 837 1207 951 485 262 115 27 0 0 5 0 0 0 0 59 51 12 0 10 49 66 3 0 0
0 0 0 0 0 0 0 0 0 0 0 0 0 0 0 0 141 607 756 856 880 979 1069 1169 1068 1108 1389 999 609 259 126 53 1 9 0 0 0 0 0 0 0 0 6 6 10 0 0 0 0
0 0 0 0 0 0 0 0 0 0 0 0 0 0 0 0 3 271 534 735 940 1003 1026 1272 1299 1489 1325 924 730 356 133 152 91 37 27 0 0 0 0 0 0 0 0 0 0 0 0 0 0
0 0 0 0 0 0 0 0 0 0 0 0 0 0 0 0 0 20 170 331 768 963 1162 1326 1465 1654 1536 1136 828 484 260 326 252 114 70 0 0 0 0 0 1 30 0 0 0 0 0 0 0
0 0 0 0 0 0 0 0 0 0 0 0 0 0 0 0 0 0 44 196 442 895 1188 1370 1492 1594 1504 1347 967 627 354 362 301 196 96 1 0 0 0 13 33 0 0 0 0 0 0 0 0
0 0 0 0 0 0 0 0 0 0 0 0 0 0 0 0 0 0 0 40 280 604 997 1315 1417 1515 1453 1517 1177 770 503 376 372 300 111 21 4 14 15 0 0 0 0 0 0 0 0 0 0
0 0 0 0 0 0 0 0 0 0 0 0 0 0 0 0 0 0 0 0 48 255 505 1138 1414 1512 1478 1544 1327 968 609 403 486 336 76 76 57 57 0 0 0 0 0 0 0 0 0 0 0
0 0 0 0 0 0 0 0 0 0 0 0 0 0 0 0 0 0 0 0 0 1 37 266 1054 1453 1372 1561 1499 1066 671 488 484 281 177 148 9 0 0 0 0 0 0 0 0 0 0 0 0
0 0 0 0 0 0 0 0 0 0 0 0 0 0 0 0 0 0 0 0 0 0 0 0 41 909 1336 1800 1547 1146 740 550 443 351 198 0 0 0 0 0 0 0 0 0 0 0 0 0 0
0 0 0 0 0 0 0 0 0 0 0 0 0 0 0 0 0 0 0 0 0 0 0 0 0 81 784 1238 1417 1114 764 427 98 50 0 0 0 0 0 0 0 0 0 0 0 0 0 0 0
0 0 0 0 0 0 0 0 0 0 0 0 0 0 0 0 0 0 0 0 0 0 0 0 6 127 586 1160 1095 750 181 7 0 0 0 0 0 0 0 0 0 0 0 0 0 0 0 0 0
0 0 0 0 0 0 0 0 0 0 0 0 0 0 0 0 0 0 0 0 0 0 0 0 114 463 755 779 221 0 0 0 0 0 0 0 0 0 0 0 0 0 0 0 0 0 0 0 0
0 0 0 0 0 0 0 0 0 0 0 0 0 0 0 0 0 0 0 0 0 0 0 4 330 558 655 373 262 26 0 0 0 0 0 0 0 0 0 0 0 0 0 0 0 0 0 0 0
0 1 0 0 0 0 0 0 0 0 0 0 0 0 0 0 0 0 0 0 0 0 0 81 378 506 428 308 80 0 0 0 0 0 0 0 0 0 0 0 0 0 0 0 0 0 0 0 0
0 0 0 1 0 0 0 0 0 0 0 0 0 0 0 0 0 0 0 0 0 0 0 182 363 272 325 74 0 0 0 0 0 0 0 0 0 0 0 0 0 0 0 0 0 0 0 0 0
0 0 0 2 4 0 0 0 0 0 0 0 0 0 0 0 0 0 0 0 0 0 0 140 238 171 36 0 0 0 0 0 0 0 0 0 0 0 0 0 0 0 0 0 0 0 0 0 0
0 5 5 2 2 0 0 0 0 0 0 0 0 0 0 0 0 0 0 0 0 0 0 75 83 95 0 0 0 0 0 0 0 0 0 0 0 0 0 0 0 0 0 0 0 0 0 0 0
7 6 0 0 0 0 0 0 0 0 0 0 0 0 0 0 0 0 0 0 0 0 0 8 58 0 0 0 0 0 0 0 0 0 0 0 0 0 0 0 0 0 0 0 0 0 0 0 0
1 1 0 0 0 0 2 0 0 0 0 0 0 0 0 0 0 0 0 0 0 0 0 0 7 0 0 0 0 0 0 0 0 0 0 0 0 0 0 0 0 0 0 0 0 0 0 0 0
2 1 0 10 0 1 0 0 0 0 0 0 0 0 0 0 0 0 0 0 0 0 0 0 0 0 0 0 0 0 0 0 0 0 0 0 0 0 0 0 0 0 0 0 0 0 0 0 0
3 2 2 3 0 4 2 0 0 0 3 20 65 4 0 0 0 0 0 0 0 0 0 0 0 0 0 0 0 0 0 0 0 0 0 0 0 0 0 0 0 0 0 0 0 0 0 0 0
2 2 1 3 14 3 1 0 1 0 13 0 26 0 0 0 0 0 0 0 0 0 0 0 0 0 0 0 0 0 0 0 0 0 0 0 0 0 0 0 0 0 0 0 0 0 0 0 0
0 0 1 0 0 0 3 0 0 1 35 286 64 0 0 0 0 0 0 0 0 0 0 0 0 0 0 0 0 0 0 0 0 0 0 0 0 0 0 0 0 0 0 0 0 0 0 0 0

GFSSGP_con_mlcape_015.txt.gz
CAPE
0 0 0 0 0 0 0 0 0 0 0 0 0 0 0 0 27 41 66 161 129 738 1050 747 630 433 194 67 1 0 0 0 8 5 0 0 0 8 7 0 0 0 0 0 0 0 0 0 0
0 0 0 0 0 0 0 0 0 0 0 0 0 0 0 0 0 95 111 134 151 668 979 800 782 509 279 119 45 20 0 0 1 1 0 0 0 0 0 0 0 0 0 0 0 0 0 0 0
0 0 0 0 0 0 0 0 0 0 0 0 0 0 0 0 10 114 222 147 207 652 944 1002 745 622 398 221 71 41 1 0 0 0 0 0 0 0 0 0 0 0 0 0 0 0 0 0 0
0 0 0 0 0 0 0 0 0 0 0 0 0 0 0 0 74 85 235 201 269 720 952 863 789 700 469 294 94 41 17 0 0 0 4 1 0 0 1 0 0 0 0 0 0 0 2 0 0
0 0 0 0 0 0 0 0 0 0 0 0 0 0 0 0 44 218 317 251 337 633 1408 1197 925 769 603 412 147 79 12 0 0 0 0 18 18 22 25 0 0 0 0 0 0 1 7 1 0
0 0 0 0 0 0 0 0 0 0 0 0 0 0 0 0 87 359 506 400 326 616 1010 1370 1052 867 737 562 324 122 28 2 0 0 0 4 0 11 15 1 0 0 0 0 1 5 5 33 69
0 0 0 0 0 0 0 0 0 0 0 0 0 0 0 0 394 564 625 540 518 635 858 1466 1386 1121 836 630 499 200 91 23 0 0 0 26 0 26 72 22 4 0 0 0 7 66 63 18 2
0 0 0 0 0 0 0 0 0 0 0 0 0 0 0 5 392 591 586 652 626 671 896 971 1240 1302 944 835 505 251 111 45 2 0 18 0 0 0 51 21 26 1 0 11 24 0 0 0 0
0 0 0 0 0 0 0 0 0 0 0 0 0 0 0 0 233 553 629 741 728 784 937 926 918 782 1065 970 593 303 133 15 3 3 0 0 0 0 0 0 0 0 0 5 0 0 0 0 0
0 0 0 0 0 0 0 0 0 0 0 0 0 0 0 0 6 325 555 718 739 872 943 1072 988 913 1255 1161 748 361 121 36 0 0 1 0 0 0 0 0 0 0 0 0 0 0 0 0 0
0 0 0 0 0 0 0 0 0 0 0 0 0 0 0 0 0 25 193 331 676 811 1001 1151 1272 1220 1128 855 919 432 244 244 104 66 57 0 0 0 0 0 0 0 0 0 0 0 0 0 0
0 0 0 0 0 0 0 0 0 0 0 0 0 0 0 0 0 0 7 87 238 692 961 1236 1436 1529 1530 1295 967 597 322 307 259 148 72 0 0 0 0 0 8 2 0 0 0 0 0 0 0
0 0 0 0 0 0 0 0 0 0 0 0 0 0 0 0 0 0 0 2 98 439 807 1181 1479 1623 1702 1476 1217 810 432 413 364 287 179 3 0 0 3 2 0 0 0 0 0 0 0 0 0
3 0 0 0 0 0 0 0 0 0 0 0 0 0 0 0 0 0 0 0 4 209 558 932 1354 1600 1592 1647 1467 1064 659 521 427 378 285 7 17 41 0 0 0 0 0 0 0 0 0 0 0
0 0 0 0 0 0 0 0 0 0 0 0 0 0 0 0 0 0 0 0 0 1 176 502 1088 1406 1522 1494 1674 1257 990 625 510 444 264 91 121 14 0 0 0 0 0 0 0 0 0 0 0
0 0 0 0 0 0 0 0 0 0 0 0 0 0 0 0 0 0 0 0 0 0 0 58 507 1195 1476 1394 1761 1571 1159 786 580 470 219 215 66 0 0 0 0 0 0 0 0 0 0 0 0
0 0 0 0 0 0 0 0 0 0 0 0 0 0 0 0 0 0 0 0 0 0 0 0 0 346 1174 1456 1750 1607 1150 772 745 620 469 128 0 0 0 0 0 0 0 0 0 0 0 0 0
0 0 0 0 0 0 0 0 0 0 0 0 0 0 0 0 0 0 0 0 0 0 0 0 0 0 347 1317 1625 1508 1154 914 651 457 5 0 0 0 0 0 0 0 0 0 0 0 0 0 0
0 0 0 0 0 0 0 0 0 0 0 0 0 0 0 0 0 0 0 0 0 0 0 0 0 28 97 689 1496 1249 992 602 159 0 0 0 0 0 0 0 0 0 0 0 0 0 0 0 0
0 0 0 0 0 0 0 0 0 0 0 0 0 0 0 0 0 0 0 0 0 0 0 0 0 55 337 1087 1335 1021 470 16 0 0 0 0 0 0 0 0 0 0 0 0 0 0 0 0 0
0 0 0 0 0 0 0 0 0 0 0 0 0 0 0 0 0 0 0 0 0 0 0 0 4 205 675 1135 747 216 0 0 0 0 0 0 0 0 0 0 0 0 0 0 0 0 0 0 0
0 0 0 0 0 0 0 0 0 0 0 0 0 0 0 0 0 0 0 0 0 0 0 0 23 358 721 891 474 64 0 0 0 0 0 0 0 0 0 0 0 0 0 0 0 0 0 0 0
0 0 0 0 1 0 0 0 0 0 0 0 0 0 0 0 0 0 0 0 0 0 0 0 30 400 635 622 622 72 0 0 0 0 0 0 0 0 0 0 0 0 0 0 0 0 0 0 0
0 0 1 1 0 0 0 0 0 0 0 0 0 0 0 0 0 0 0 0 0 0 0 0 104 393 453 568 207 0 0 0 0 0 0 0 0 0 0 0 0 0 0 0 0 0 0 0 0
1 0 0 1 1 0 0 0 0 0 0 0 0 0 0 0 0 0 0 0 0 0 0 0 176 291 391 320 0 0 0 0 0 0 0 0 0 0 0 0 0 0 0 0 0 0 0 0 0
0 1 0 0 0 0 0 0 0 0 0 0 0 0 0 0 0 0 0 0 0 0 0 0 132 201 151 2 0 17 0 0 0 0 0 0 0 0 0 0 0 0 0 0 0 0 0 0 0
1 0 0 3 0 0 0 0 0 0 0 0 0 0 0 1 0 0 0 0 0 0 0 0 75 282 2 0 0 0 0 0 0 0 0 0 0 0 0 0 0 0 0 0 0 0 0 0 0
0 0 0 1 0 0 0 0 0 0 0 0 0 1 0 20 0 0 0 0 0 0 0 0 47 56 0 0 0 0 0 0 0 0 0 0 0 0 0 0 0 0 0 0 0 0 0 0 0
0 1 1 0 2 1 0 0 0 0 0 3 0 32 152 77 61 16 0 0 0 0 0 1 15 0 0 0 0 0 0 0 0 0 0 0 0 0 0 0 0 0 0 0 0 0 0 0 0
0 0 0 0 0 0 0 0 0 0 2 3 20 160 44 16 24 65 0 0 0 0 0 4 8 1 0 0 0 0 0 0 0 0 0 0 0 0 0 0 0 0 0 0 0 0 0 0 0

GFSSGP_con_mlcape_018.txt.gz
CAPE
0 0 0 0 0 0 0 0 0 0 0 0 0 0 0 0 2 43 97 77 801 933 1023 724 454 293 112 53 10 0 0 0 14 22 30 29 28 33 0 0 0 0 0 0 0 0 0 0 0
0 0 0 0 0 0 0 0 0 0 0 0 0 0 0 0 64 54 201 108 1038 1206 788 633 482 314 135 61 26 0 0 1 0 0 0 0 0 0 0 0 0 0 0 0 0 0 0 0 0
0 0 0 0 0 0 0 0 0 0 0 0 0 0 0 18 16 179 215 151 914 943 732 702 603 384 260 76 39 0 0 0 0 0 0 0 0 0 0 0 0 0 0 0 0 0 0 0 0
0 0 0 0 0 0 0 0 0 0 0 0 0 0 0 0 34 229 120 214 640 940 946 673 686 509 365 117 51 13 0 0 0 0 0 0 0 2 0 0 0 0 0 0 3 4 1 0 0
0 0 0 0 0 0 0 0 0 0 0 0 0 0 2 0 112 205 177 217 595 1040 1002 624 695 570 431 181 84 40 0 0 0 0 8 9 7 8 0 0 0 0 0 0 1 8 1 0 1
0 0 0 0 0 0 0 0 0 0 0 0 0 0 1 3 125 307 253 217 607 1346 1071 826 736 657 530 313 150 68 16 3 0 0 0 10 0 9 19 0 0 0 0 0 0 0 1 27 9
0 0 0 0 0 0 0 0 0 0 0 0 0 0 0 131 345 474 399 253 485 1307 1353 938 820 747 604 417 305 84 43 16 0 5 0 7 0 98 62 6 0 2 0 0 19 7 0 0 0
0 0 0 0 0 0 0 0 0 0 0 0 0 0 0 205 526 568 502 453 442 757 1331 1222 1052 872 693 582 432 146 94 25 8 3 22 0 0 85 68 31 26 0 0 0 0 0 0 0 0
0 0 0 0 0 0 0 0 0 0 0 0 0 0 0 130 423 494 527 581 470 746 922 1242 1198 995 826 692 443 216 80 39 1 3 0 0 0 2 8 21 0 0 0 0 0 0 0 0 0
0 0 0 0 0 0 0 0 0 0 0 0 0 0 0 0 106 548 567 649 659 690 826 928 1320 1242 814 923 458 231 100 7 0 0 0 0 0 0 0 0 0 0 0 0 0 0 0 0 0
0 0 0 0 0 0 0 0 0 0 0 0 0 0 0 0 0 57 371 586 648 747 820 895 871 872 997 1027 488 323 119 12 0 0 0 0 0 0 0 0 0 0 0 0 0 0 0 0 0
0 0 0 0 0 0 0 0 0 0 0 0 0 0 0 0 0 0 9 63 531 721 869 960 1096 1058 1202 1034 701 449 232 169 35 45 32 0 0 0 0 0 0 0 0 0 0 0 0 0 0
0 0 0 0 0 0 0 0 0 0 0 0 0 0 0 0 0 0 0 0 20 625 832 1037 1203 1388 1265 960 880 536 441 331 280 173 106 0 0 0 0 0 0 0 0 0 0 0 0 0 0
1 0 0 0 0 0 0 0 0 0 0 0 0 0 0 0 0 0 0 0 0 59 597 1090 1314 1569 1593 1312 1004 871 640 428 385 309 198 4 0 0 0 0 0 0 0 0 0 0 0 0 0
0 0 0 0 0 0 0 0 0 0 0 0 0 0 0 0 0 0 0 0 0 0 236 672 1288 1595 1387 1431 1306 1103 797 567 501 413 279 63 21 0 0 0 0 0 0 0 0 0 0 0 0
0 0 0 0 0 0 0 0 0 0 0 0 0 0 0 0 0 0 0 0 0 0 0 380 991 1455 1673 1435 1416 1226 1002 764 568 472 393 108 1 0 0 0 0 0 0 0 0 0 0 0 0
0 0 0 0 0 0 0 0 0 0 0 0 0 0 0 0 0 0 0 0 0 0 0 9 688 1186 1431 1514 1301 1312 1368 865 659 532 367 207 0 0 0 0 0 0 0 0 0 0 0 0 0
0 0 0 0 0 0 0 0 0 0 0 0 0 0 0 0 0 0 0 0 0 0 0 0 22 876 1249 1453 1252 1544 1419 812 692 541 333 6 0 0 0 0 0 0 0 0 0 0 0 0 0
0 0 0 0 0 0 0 0 0 0 0 0 0 0 0 0 0 0 0 0 0 0 0 0 0 0 467 1457 1273 1481 1217 881 644 220 21 0 0 0 0 0 0 0 0 0 0 0 0 0 0
0 0 0 0 0 0 0 0 0 0 0 0 0 0 0 0 0 0 0 0 0 0 0 0 0 0 0 904 1510 1515 1053 634 160 0 0 0 0 0 0 0 0 0 0 0 0 0 0 0 0
0 0 0 0 0 0 0 0 0 0 0 0 0 0 0 0 0 0 0 0 0 0 0 0 0 0 0 17 1195 712 111 0 0 0 0 0 0 0 0 0 0 0 0 0 0 0 0 0 0
0 0 0 0 0 0 0 0 0 0 0 0 0 0 0 0 0 0 0 0 0 0 0 0 0 0 0 647 886 532 293 5 0 0 0 0 0 0 0 0 0 0 0 0 0 0 0 0 0
0 0 0 0 0 0 0 0 0 0 0 0 0 0 0 0 0 0 0 0 0 0 0 0 0 0 131 782 631 211 1 0 0 0 0 0 0 0 0 0 0 0 0 0 0 0 0 0 0
0 0 0 0 0 0 0 0 0 0 0 0 0 0 0 0 0 0 0 0 0 0 0 0 0 0 416 963 425 86 0 0 0 0 0 0 0 0 0 0 0 0 0 0 0 0 0 0 0
0 0 0 0 0 0 0 0 0 0 0 0 0 0 0 0 0 0 0 0 0 0 0 0 0 2 439 672 468 4 0 0 0 0 0 0 0 0 0 0 0 0 0 0 0 0 0 0 0
1 0 0 0 0 0 0 0 0 0 0 0 0 0 0 0 0 0 0 0 0 0 0 0 0 49 489 619 258 0 0 0 0 0 0 0 0 0 0 0 0 0 0 0 0 0 0 0 0
0 0 0 0 0 0 0 0 0 0 0 0 0 0 0 0 1 3 0 0 0 0 0 0 33 158 405 549 0 0 0 0 0 0 0 0 0 0 0 0 0 0 0 0 0 0 0 0 0
0 0 0 1 0 0 0 0 0 0 0 0 0 0 0 0 0 3 0 0 0 0 0 0 97 106 316 100 0 0 0 0 0 0 0 0 0 0 0 0 0 0 0 0 0 0 0 0 0
0 0 0 0 0 0 0 0 0 0 0 0 0 0 0 16 27 32 45 0 2 0 0 0 62 101 67 0 0 0 0 0 0 0 0 0 0 0 0 0 0 0 0 0 0 0 0 0 0
0 0 0 1 0 0 0 0 0 0 0 0 0 0 0 0 0 3 41 88 86 90 60 69 86 80 0 0 0 0 0 0 0 0 0 0 0 0 0 0 0 0 0 0 0 0 0 0 0

GFSSGP_con_mlcape_021.txt.gz
CAPE
0 0 0 0 0 0 0 0 0 0 0 0 0 0 0 0 0 2 32 112 615 640 766 569 400 265 96 53 0 0 0 0 0 5 64 38 34 4 0 0 0 0 0 2 2 0 0 0 0
0 0 0 0 0 0 0 0 0 0 0 0 0 0 0 28 29 48 222 680 730 665 695 494 442 215 95 37 0 0 10 0 7 18 12 10 14 0 0 0 0 0 0 0 0 0 0 0 0
0 0 0 0 0 0 0 0 0 0 0 0 0 0 0 15 17 57 127 910 957 703 632 536 511 236 127 65 0 0 0 0 0 0 0 0 0 6 0 0 0 0 0 0 1 0 0 0 0
0 0 0 0 0 0 0 0 0 0 0 0 0 0 0 1 52 132 179 1187 976 640 567 655 523 352 175 101 8 0 2 0 0 0 0 0 1 3 0 0 0 0 0 1 1 1 0 0 0
0 0 0 0 0 0 0 0 0 0 0 0 0 0 0 81 99 51 221 1055 899 667 636 652 603 473 248 180 63 0 0 0 0 20 3 0 1 6 0 0 0 0 0 0 2 1 0 0 0
0 0 0 0 0 0 0 0 0 0 0 0 0 0 0 67 81 65 107 663 858 835 613 630 646 544 337 204 130 4 0 0 0 6 27 17 17 3 1 0 0 0 0 0 0 0 2 1 0
0 0 0 0 0 0 0 0 0 0 0 0 0 0 25 69 157 114 62 757 1038 940 611 871 761 564 416 251 122 24 10 14 20 0 43 0 27 53 31 0 0 0 0 2 10 2 0 0 0
0 0 0 0 0 0 0 0 0 0 0 0 0 0 98 259 308 237 98 865 1174 937 796 713 702 629 498 337 183 47 38 39 29 18 30 0 168 137 60 16 15 0 0 0 0 0 0 0 0
0 0 0 0 0 0 0 0 0 0 0 0 0 0 133 291 425 410 226 275 1202 1240 938 697 670 672 539 405 311 114 55 28 21 23 17 0 70 129 63 24 3 0 0 0 0 0 0 0 0
0 0 0 0 0 0 0 0 0 0 0 0 0 0 76 205 382 436 461 361 535 1066 1104 883 763 703 597 551 379 195 106 18 13 11 8 0 0 28 31 13 0 0 0 0 0 0 0 0 0
0 0 0 0 0 0 0 0 0 0 0 0 0 0 0 0 144 405 481 459 364 537 1179 1186 991 861 726 650 381 183 71 0 0 0 0 0 0 0 0 0 0 0 0 0 0 0 0 0 0
0 0 0 0 0 0 0 0 0 0 0 0 0 0 0 0 0 81 349 421 453 474 618 943 1230 1018 813 707 467 172 50 0 0 0 0 0 0 0 0 0 0 0 0 0 0 0 0 0 0
0 0 0 0 0 0 0 0 0 0 0 0 0 0 0 0 0 0 0 0 233 536 628 680 960 1050 937 890 568 392 192 34 0 1 0 0 0 0 0 0 0 0 0 0 0 0 0 0 0
0 0 0 0 0 0 0 0 0 0 0 0 0 0 0 0 0 0 0 0 0 280 687 821 828 1014 1019 1029 718 520 337 218 138 75 40 0 0 0 0 0 0 0 0 0 0 0 0 0 0
1 0 0 0 0 0 0 0 0 0 0 0 0 0 0 0 0 0 0 0 0 1 616 876 1051 1202 1136 1028 891 660 433 363 331 221 85 6 0 0 0 0 0 0 0 0 0 0 0 0 0
0 0 0 0 0 0 0 0 0 0 0 0 0 0 0 0 0 0 0 0 0 0 19 937 1234 1385 1466 1379 1119 938 703 440 441 404 260 72 1 0 0 0 0 0 0 0 0 0 0 0 0
0 0 0 0 0 0 0 0 0 0 0 0 0 0 0 0 0 0 0 0 0 0 0 423 1240 1432 1502 1494 1376 1151 893 764 559 462 258 77 1 0 0 0 0 0 0 0 0 0 0 0 0
0 0 0 0 0 0 0 0 0 0 0 0 0 0 0 0 0 0 0 0 0 0 0 0 883 1404 1564 1426 1312 1249 988 817 596 472 258 8 0 0 0 0 0 0 0 0 0 0 0 0 0
0 0 0 0 0 0 0 0 0 0 0 0 0 0 0 0 0 0 0 0 0 0 0 0 74 1164 1539 1356 1298 1234 1000 998 649 414 43 0 0 0 0 0 0 0 0 0 0 0 0 0 0
0 0 0 0 0 0 0 0 0 0 0 0 0 0 0 0 0 0 0 0 0 0 0 0 0 520 1305 1302 1385 1176 1113 879 357 14 0 0 0 0 0 0 0 0 0 0 0 0 0 0 0
0 0 0 0 0 0 0 0 0 0 0 0 0 0 0 0 0 0 0 0 0 0 0 0 0 0 1106 1281 1052 589 138 0 0 0 0 0 0 0 0 0 0 0 0 0 0 0 0 0 0
0 0 0 0 0 0 0 0 0 0 0 0 0 0 0 0 0 0 0 0 0 0 0 0 0 0 16 1093 762 614 712 306 5 0 0 0 0 0 0 0 0 0 0 0 0 0 0 0 0
0 0 0 0 0 0 0 0 0 0 0 0 0 0 0 0 0 0 0 0 0 0 0 0 0 0 0 355 598 548 502 0 0 0 0 0 0 0 0 0 0 0 0 0 0 0 0 0 0
0 0 0 0 0 0 0 0 0 0 0 0 0 0 0 0 0 0 0 0 0 0 0 0 0 0 0 76 163 370 121 0 0 0 0 0 0 0 0 0 0 0 0 0 0 0 0 0 0
0 0 0 0 0 0 0 0 0 0 0 0 0 0 0 0 0 0 0 0 0 0 0 0 0 0 0 117 114 13 1 0 0 0 0 0 0 0 0 0 0 0 0 0 0 0 0 0 0
0 0 0 0 0 0 0 0 0 0 0 0 0 0 0 0 0 0 0 0 0 0 0 0 0 0 0 298 183 11 0 0 0 0 0 0 0 0 0 0 0 0 0 0 0 0 0 0 0
0 0 0 0 0 0 0 0 0 0 0 0 0 0 0 0 0 0 0 0 0 0 0 0 0 0 0 339 149 17 0 0 0 0 0 0 0 0 0 0 0 0 0 0 0 0 0 0 0
0 0 0 0 0 0 0 0 0 0 0 0 0 0 0 0 0 0 0 0 0 0 0 0 0 2 35 109 68 0 0 0 0 0 0 0 0 0 0 0 0 0 0 0 0 0 0 0 0
0 0 0 0 0 0 0 0 0 0 0 0 0 0 0 0 0 2 7 0 0 0 0 0 0 114 221 13 0 0 0 0 0 0 0 0 0 0 0 0 0 0 0 0 0 0 0 0 0
0 0 0 0 0 0 0 0 0 0 0 0 0 0 0 0 0 0 0 0 0 0 0 13 98 558 108 0 0 0 0 0 0 0 0 0 0 0 0 0 0 0 0 0 0 0 0 0 0

GFSSGP_con_mlcape_024.txt.gz
CAPE
0 0 0 0 0 0 0 0 0 0 0 0 0 0 0 0 0 0 13 156 393 484 558 453 368 252 162 65 12 0 14 68 163 151 42 13 7 0 0 0 0 0 1 4 4 3 2 0 0
0 0 0 0 0 0 0 0 0 0 0 0 0 0 0 0 33 73 96 476 447 476 560 398 377 185 103 48 19 0 15 0 3 140 74 24 0 0 0 0 0 0 1 1 0 0 0 0 0
0 0 0 0 0 0 0 0 0 0 0 0 0 0 0 0 14 48 266 652 543 537 477 405 367 185 98 58 13 74 34 60 79 48 26 5 0 0 0 0 0 0 0 0 0 0 0 0 0
0 0 0 0 0 0 0 0 0 0 0 0 0 0 0 0 3 56 625 661 531 517 418 489 380 233 111 48 38 53 0 0 0 0 0 0 2 2 1 0 0 0 0 2 0 0 0 0 0
0 0 0 0 0 0 0 0 0 0 0 0 0 0 0 31 0 357 756 758 550 472 407 532 450 303 153 60 68 44 1 0 0 0 0 0 3 2 0 0 0 0 2 3 5 0 0 0 0
0 0 0 0 0 0 0 0 0 0 0 0 0 0 0 36 0 560 1034 885 643 460 470 541 534 399 267 96 66 73 15 22 27 25 20 11 12 5 2 0 0 0 0 7 5 4 5 1 0
0 0 0 0 0 0 0 0 0 0 0 0 0 0 4 48 8 414 997 834 715 541 423 602 592 459 315 270 42 56 62 62 105 101 83 70 64 31 50 5 4 0 4 11 30 24 0 0 0
0 0 0 0 0 0 0 0 0 0 0 0 0 0 0 68 49 20 899 872 824 701 485 544 627 505 326 269 147 44 69 76 47 114 53 10 64 103 80 38 52 0 36 15 0 0 0 0 0
0 0 0 0 0 0 0 0 0 0 0 0 0 0 0 108 58 10 580 910 888 760 636 626 602 534 371 251 155 63 66 103 48 47 16 86 183 189 107 44 44 0 29 0 0 0 0 0 0
0 0 0 0 0 0 0 0 0 0 0 0 0 0 108 159 202 61 434 919 1050 910 686 700 632 534 437 358 222 88 58 44 37 35 20 16 184 171 95 48 20 0 12 0 0 0 0 0 0
0 0 0 0 0 0 0 0 0 0 0 0 0 0 34 113 264 334 144 673 1023 1083 958 792 684 604 491 442 320 150 63 9 8 18 14 0 14 112 48 34 0 0 0 0 0 0 0 0 0
0 0 0 0 0 0 0 0 0 0 0 0 0 0 0 5 41 155 254 326 639 1100 1065 928 796 707 582 544 366 202 74 5 0 0 0 1 0 15 13 2 0 0 0 0 0 0 0 0 0
0 0 0 0 0 0 0 0 0 0 0 0 0 0 0 0 0 0 64 218 179 550 1064 1146 999 854 734 595 420 212 75 0 0 0 0 0 0 0 0 0 0 0 0 0 0 0 0 0 0
0 0 0 0 0 0 0 0 0 0 0 0 0 0 0 0 0 0 0 0 10 212 468 1138 1254 1041 868 735 523 293 98 23 0 0 0 0 0 0 0 0 0 0 0 0 0 0 0 0 0
0 0 0 0 0 0 0 0 0 0 0 0 0 0 0 0 0 0 0 0 0 0 225 516 1194 1190 1001 858 599 369 241 130 7 0 3 0 0 0 0 0 0 0 0 0 0 0 0 0 0
0 0 0 0 0 0 0 0 0 0 0 0 0 0 0 0 0 0 0 0 0 0 0 313 815 1113 1092 974 747 519 422 308 167 44 34 8 0 0 0 0 0 0 0 0 0 0 0 0 0
0 0 0 0 0 0 0 0 0 0 0 0 0 0 0 0 0 0 0 0 0 0 0 0 564 898 1057 1001 881 612 513 422 365 230 149 20 0 0 0 0 0 0 0 0 0 0 0 0 0
0 0 0 0 0 0 0 0 0 0 0 0 0 0 0 0 0 0 0 0 0 0 0 0 54 970 1084 967 900 728 643 551 443 379 240 14 0 0 0 0 0 0 0 0 0 0 0 0 0
0 0 0 0 0 0 0 0 0 0 0 0 0 0 0 0 0 0 0 0 0 0 0 0 0 332 1128 948 753 809 889 751 596 420 128 0 0 0 0 0 0 0 0 0 0 0 0 0 0
0 0 0 0 0 0 0 0 0 0 0 0 0 0 0 0 0 0 0 0 0 0 0 0 0 0 764 1078 1047 928 884 708 641 282 12 0 0 0 0 0 0 0 0 0 0 0 0 0 0
0 0 0 0 0 0 0 0 0 0 0 0 0 0 0 0 0 0 0 0 0 0 0 0 0 0 364 1251 1093 431 137 21 70 60 4 0 0 0 0 0 0 0 0 0 0 0 0 0 0
0 0 0 0 0 0 0 0 0 0 0 0 0 0 0 0 0 0 0 0 0 0 0 0 0 0 155 943 905 640 488 278 264 149 0 0 0 0 0 0 0 0 0 0 0 0 0 0 0
0 0 0 0 0 0 0 0 0 0 0 0 0 0 0 0 0 0 0 0 0 0 0 0 0 0 0 764 807 635 570 257 2 0 0 0 0 0 0 0 0 0 0 0 0 0 0 0 0
0 0 0 0 0 0 0 0 0 0 0 0 0 0 0 0 0 0 0 0 0 0 0 0 0 0 0 74 583 445 512 37 0 0 0 0 0 0 0 0 0 0 0 0 0 0 0 0 0
0 0 0 0 0 0 0 0 0 0 0 0 0 0 0 0 0 0 0 0 0 0 0 0 0 0 0 0 226 427 240 21 4 0 0 0 0 0 0 0 0 0 0 0 0 0 0 0 0
0 0 0 0 0 0 0 0 0 0 0 0 0 0 0 0 0 0 0 0 0 0 0 0 0 0 0 0 4 291 86 0 1 0 0 0 0 0 0 0 0 0 0 0 0 0 0 0 0
0 0 0 0 0 0 0 0 0 0 0 0 0 0 0 0 0 0 0 0 0 0 0 0 0 0 0 0 5 31 0 0 0 0 0 0 0 0 0 0 0 0 0 0 0 0 0 0 0
0 0 0 0 0 0 0 0 0 0 0 0 0 0 0 0 0 0 0 0 0 0 0 0 0 0 0 0 25 0 0 0 0 0 0 0 0 0 0 0 0 0 0 0 0 0 0 0 0
0 0 0 0 0 0 0 0 0 0 0 0 0 0 0 0 0 0 0 0 0 0 0 0 0 0 0 1 170 0 0 0 0 0 0 0 0 0 0 0 0 0 0 0 0 0 0 0 0
0 0 0 0 0 0 0 0 0 0 0 0 0 0 0 0 0 0 0 0 0 0 0 0 0 0 0 29 1 0 0 0 0 0 0 0 0 0 0 0 0 0 0 0 0 0 0 0 0

GFSSGP_con_mlcape_027.txt.gz
CAPE
0 0 0 0 0 0 0 0 0 0 0 0 0 0 0 0 0 0 8 130 278 328 372 264 201 206 215 160 201 298 340 362 303 132 51 16 7 0 0 0 0 0 4 7 3 3 10 1 0
0 0 0 0 0 0 0 0 0 0 0 0 0 0 0 0 22 49 75 238 390 352 423 289 225 220 191 100 71 106 173 295 289 126 65 26 1 0 0 0 0 1 7 5 2 2 0 0 0
0 0 0 0 0 0 0 0 0 0 0 0 0 0 0 0 11 56 86 400 498 450 403 340 324 279 125 71 46 34 44 52 271 142 112 2 0 0 0 0 0 0 0 0 0 0 0 0 0
0 0 0 0 0 0 0 0 0 0 0 0 0 0 0 0 0 70 450 550 478 450 375 421 325 198 127 58 87 118 125 145 237 203 67 10 0 0 0 0 0 0 0 0 0 0 0 0 0
0 0 0 0 0 0 0 0 0 0 0 0 0 0 0 0 0 257 519 592 434 399 371 488 337 233 143 65 140 45 44 98 71 42 42 31 3 0 0 0 0 0 2 2 1 0 0 0 0
0 0 0 0 0 0 0 0 0 0 0 0 0 0 0 0 110 483 660 577 479 394 425 502 370 285 158 81 156 65 25 43 41 28 15 17 18 21 0 0 0 0 1 8 4 3 4 0 0
0 0 0 0 0 0 0 0 0 0 0 0 0 0 0 0 162 726 683 598 522 463 389 495 412 336 188 122 182 105 64 69 66 49 50 47 35 45 33 5 0 0 21 22 3 55 1 0 0
0 0 0 0 0 0 0 0 0 0 0 0 0 0 0 0 205 809 811 690 583 494 376 394 446 376 267 146 124 156 133 140 161 143 132 116 82 73 84 29 43 0 32 117 65 3 0 0 0
0 0 0 0 0 0 0 0 0 0 0 0 0 0 0 1 112 779 900 866 718 549 407 511 465 394 269 231 100 112 149 142 183 186 111 52 84 156 138 44 74 9 93 18 8 0 0 0 0
0 0 0 0 0 0 0 0 0 0 0 0 0 0 5 21 71 536 735 914 943 754 485 545 542 412 308 253 171 63 117 140 92 114 41 34 167 203 176 88 108 23 73 0 0 0 0 0 0
0 0 0 0 0 0 0 0 0 0 0 0 0 0 30 27 35 299 536 666 650 855 699 616 587 489 351 264 173 69 57 88 65 35 20 28 203 232 155 98 81 5 26 0 0 0 0 0 0
0 0 0 0 0 0 0 0 0 0 0 0 0 0 0 19 24 22 354 643 768 927 855 797 677 574 431 350 217 103 28 25 28 26 10 0 84 163 123 62 21 0 0 0 0 0 0 0 0
0 0 0 0 0 0 0 0 0 0 0 0 0 0 0 0 0 0 34 267 884 1012 953 909 792 691 548 423 308 167 80 18 6 6 6 0 0 13 52 29 2 0 0 0 0 0 0 0 0
0 0 0 0 0 0 0 0 0 0 0 0 0 0 0 0 0 0 0 29 111 797 1061 1017 972 785 636 520 405 250 129 66 0 0 0 0 0 0 10 18 0 0 0 0 0 0 0 0 0
0 0 0 0 0 0 0 0 0 0 0 0 0 0 0 0 0 0 0 0 3 35 409 1044 993 864 780 664 497 323 156 92 18 0 0 0 0 0 0 0 0 0 0 0 0 0 0 0 0
0 0 0 0 0 0 0 0 0 0 0 0 0 0 0 0 0 0 0 0 0 0 0 204 1026 985 968 822 570 424 185 97 29 0 0 0 0 0 0 0 0 0 0 0 0 0 0 0 0
0 0 0 0 0 0 0 0 0 0 0 0 0 0 0 0 0 0 0 0 0 0 0 0 122 1022 1104 902 686 515 326 146 54 7 0 0 0 0 0 0 0 0 0 0 0 0 0 0 0
0 0 0 0 0 0 0 0 0 0 0 0 0 0 0 0 0 0 0 0 0 0 0 0 1 351 1069 960 799 547 420 287 100 115 62 9 0 0 0 0 0 0 0 0 0 0 0 0 0
0 0 0 0 0 0 0 0 0 0 0 0 0 0 0 0 0 0 0 0 0 0 0 0 0 16 640 812 725 536 449 458 253 240 249 70 0 0 0 0 0 0 0 0 0 0 0 0 0
2 1 0 0 0 0 0 0 0 0 0 0 0 0 0 0 0 0 0 0 0 0 0 0 0 0 205 758 790 668 554 496 418 246 261 63 0 0 0 0 0 0 0 0 0 0 0 0 0
0 0 0 0 0 0 0 0 0 0 0 0 0 0 0 0 0 0 0 0 0 0 0 0 0 0 12 361 822 254 194 5 149 172 108 8 0 0 0 0 0 0 0 0 0 0 0 0 0
0 0 0 0 0 0 0 0 0 0 0 0 0 0 0 0 0 0 0 0 0 0 0 0 0 0 0 170 633 499 365 333 314 173 134 12 0 0 0 0 0 0 0 0 0 0 0 0 0
0 0 0 0 0 0 0 0 0 0 0 0 0 0 0 0 0 0 0 0 0 0 0 0 0 0 0 0 283 93 382 414 247 17 5 0 0 0 0 0 0 0 0 0 0 0 0 0 0
0 0 0 0 0 0 0 0 0 0 0 0 0 0 0 0 0 0 0 0 0 0 0 0 0 0 0 0 100 247 181 254 33 0 0 0 0 0 0 0 0 0 0 0 0 0 0 0 0
0 0 0 0 0 0 0 0 0 0 0 0 0 0 0 0 0 0 0 0 0 0 0 0 0 0 0 0 0 140 171 85 91 2 1 0 0 0 0 0 0 0 0 0 0 0 0 0 0
0 0 0 0 0 0 0 0 0 0 0 0 0 0 0 0 0 0 0 0 0 0 0 0 0 0 0 0 0 0 51 55 34 8 0 0 0 0 0 0 0 0 0 0 0 0 0 0 0
0 0 0 0 0 0 0 0 0 0 0 0 0 0 0 0 0 0 0 0 0 0 0 0 0 0 0 0 0 0 14 11 26 20 0 0 0 0 0 0 0 0 0 0 0 0 0 0 0
0 0 0 0 0 0 0 0 0 0 0 0 0 0 0 0 0 0 0 0 0 0 0 0 0 0 0 0 0 0 0 9 23 0 0 0 0 0 0 0 0 0 0 0 0 0 0 0 0
0 0 0 0 0 0 0 0 0 0 0 0 0 0 0 0 0 0 0 0 0 0 0 0 0 0 0 0 0 0 0 0 0 0 0 0 0 0 0 0 0 0 0 0 0 0 0 0 0
0 0 0 0 0 0 0 0 0 0 0 0 0 0 0 0 0 0 0 0 0 0 0 0 0 0 0 0 3 9 0 0 0 0 0 0 0 0 0 0 0 0 0 0 0 0 0 0 0

GFSSGP_con_mlcape_030.txt.gz
CAPE
17 0 0 0 0 0 0 0 0 0 0 0 0 0 0 0 0 0 0 92 168 223 402 275 271 357 353 454 575 462 473 405 252 125 61 4 0 0 0 0 0 1 0 31 27 11 2 2 0
0 0 0 0 0 0 0 0 0 0 0 0 0 0 0 0 0 5 41 164 281 297 332 165 273 258 234 299 400 328 439 452 307 167 76 19 0 0 0 0 1 4 9 19 4 1 2 0 0
0 0 0 0 0 0 0 0 0 0 0 0 0 0 0 0 0 8 22 264 371 338 278 159 217 240 202 197 172 233 345 432 298 195 93 18 0 0 0 0 1 2 1 0 0 0 0 0 0
0 0 0 0 0 0 0 0 0 0 0 0 0 0 0 0 0 12 207 413 381 341 309 268 271 273 161 114 79 88 99 222 416 202 63 8 0 0 0 0 0 0 0 0 0 0 0 0 0
0 0 0 0 0 0 0 0 0 0 0 0 0 0 0 0 1 208 352 487 381 305 341 409 326 223 135 89 119 134 62 131 352 280 87 37 1 0 0 0 0 1 2 1 0 0 1 6 6
0 0 0 0 0 0 0 0 0 0 0 0 0 0 0 0 102 378 488 465 394 364 426 370 322 229 115 128 145 136 159 242 194 174 125 70 26 6 0 0 0 1 2 14 4 4 9 0 0
0 0 0 0 0 0 0 0 0 0 0 0 0 0 0 0 217 571 502 465 425 431 407 406 319 187 125 151 160 65 104 128 132 109 77 59 57 56 20 0 0 5 31 28 34 96 0 0 0
0 0 0 0 0 0 0 0 0 0 0 0 0 0 0 0 467 606 578 491 449 445 343 307 267 205 122 124 176 126 100 104 125 112 97 62 56 99 63 35 36 11 49 76 128 11 0 0 0
0 0 0 0 0 0 0 0 0 0 0 0 0 0 0 0 573 599 595 598 507 441 321 355 242 219 129 88 147 127 122 114 124 136 149 127 118 153 139 39 70 15 165 73 22 0 0 0 0
0 0 0 0 0 0 0 0 0 0 0 0 0 0 0 130 561 490 592 646 617 474 334 413 365 247 236 161 80 144 128 134 161 164 146 93 102 160 167 77 116 26 131 35 2 0 0 0 0
0 0 0 0 0 0 0 0 0 0 0 0 0 0 0 40 499 568 682 695 659 583 452 408 461 375 275 237 144 47 99 116 103 132 110 21 89 134 185 119 122 48 53 0 0 0 0 0 0
0 0 0 0 0 0 0 0 0 0 0 0 0 0 0 0 67 468 591 706 745 748 618 483 511 483 344 277 172 104 16 90 86 71 57 14 132 197 175 125 84 20 0 0 0 0 0 0 0
0 0 0 0 0 0 0 0 0 0 0 0 0 0 0 0 0 0 23 453 794 822 758 732 638 607 481 330 209 126 54 27 67 60 40 10 63 173 149 96 45 4 0 0 0 0 0 0 0
0 0 0 0 0 0 0 0 0 0 0 0 0 0 0 0 0 0 0 0 261 768 813 808 795 714 608 452 329 158 91 44 13 17 34 17 0 54 99 55 19 2 0 0 0 0 0 0 0
0 0 0 0 0 0 0 0 0 0 0 0 0 0 0 0 0 0 0 0 0 84 739 901 926 796 760 590 404 247 146 75 27 1 0 3 0 0 0 14 8 0 0 0 0 0 0 0 0
0 0 0 0 0 0 0 0 0 0 0 0 0 0 0 0 0 0 0 0 0 0 0 585 957 932 876 721 563 379 225 144 87 10 0 0 0 0 0 0 0 0 0 0 0 0 0 0 0
0 0 0 0 0 0 0 0 0 0 0 0 0 0 0 0 0 0 0 0 0 0 0 0 476 755 897 823 684 512 328 201 103 12 0 0 0 0 0 0 0 0 0 0 0 0 0 0 0
1 0 0 0 0 0 0 0 0 0 0 0 0 0 0 0 0 0 0 0 0 0 0 0 0 118 463 808 734 508 349 240 85 53 1 0 0 0 0 0 0 0 0 0 0 0 0 0 0
0 0 0 0 0 0 0 0 0 0 0 0 0 0 0 0 0 0 0 0 0 0 0 0 0 0 66 544 570 597 510 403 219 134 78 14 0 0 0 0 0 0 0 0 0 0 0 0 0
0 0 0 0 0 0 0 0 0 0 0 0 0 0 0 0 0 0 0 0 0 0 0 0 0 0 0 308 482 631 600 363 431 269 179 57 0 0 0 0 0 0 0 0 0 0 0 0 0
8 1 0 0 0 0 0 0 0 0 0 0 0 0 0 0 0 0 0 0 0 0 0 0 0 0 0 98 442 307 248 85 217 194 270 120 8 0 0 0 0 0 0 0 0 0 0 0 0
0 0 0 0 0 0 0 0 0 0 0 0 0 0 0 0 0 0 0 0 0 0 0 0 0 0 0 3 246 180 227 163 266 350 346 110 26 4 0 0 0 0 0 0 0 0 0 0 0
0 0 0 0 0 0 0 0 0 0 0 0 0 0 0 0 0 0 0 0 0 0 0 0 0 0 0 0 16 38 72 178 264 360 241 67 0 0 0 0 0 0 0 0 0 0 0 0 0
0 0 0 0 0 0 0 0 0 0 0 0 0 0 0 0 0 0 0 0 0 0 0 0 0 0 0 0 0 1 20 60 115 153 177 0 0 0 0 0 0 0 0 0 0 0 0 0 0
0 0 0 0 0 0 0 0 0 0 0 0 0 0 0 0 0 0 0 0 0 0 0 0 0 0 0 0 0 0 0 48 35 49 10 0 0 0 0 0 0 0 0 0 0 0 0 0 0
0 0 0 0 0 0 0 0 0 0 0 0 0 0 0 0 0 0 0 0 0 0 0 0 0 0 0 0 0 0 17 29 26 24 21 4 0 0 0 0 0 0 0 0 0 0 0 0 0
0 0 0 0 0 0 0 0 0 0 0 0 0 0 0 0 0 0 0 0 0 0 0 0 0 0 0 0 0 0 0 12 1 27 40 17 0 0 0 0 0 0 0 0 0 0 0 0 0
0 0 0 0 0 0 0 0 0 0 0 0 0 0 0 0 0 0 0 0 0 0 0 0 0 0 0 0 0 0 0 0 17 11 9 9 0 0 0 0 0 0 0 0 0 0 0 0 0
0 0 0 0 0 0 0 0 0 0 0 0 0 0 0 0 0 0 0 0 0 0 0 0 0 0 0 0 0 0 0 0 0 0 0 0 0 0 0 0 0 0 0 0 0 0 0 0 0
0 0 0 0 0 0 0 0 0 0 0 0 0 0 0 0 0 0 0 0 0 0 0 0 0 0 0 0 0 0 0 0 4 1 0 0 0 0 0 0 0 0 0 0 0 0 0 0 0

GFSSGP_con_mlcape_033.txt.gz
CAPE
2 0 0 0 0 0 0 0 0 0 0 0 0 0 0 0 0 0 1 108 73 176 669 312 222 121 156 276 527 607 555 344 241 139 43 14 0 0 0 0 0 0 40 43 49 18 0 0 0
0 0 0 0 0 0 0 0 0 0 0 0 0 0 0 0 0 0 51 151 172 430 541 260 232 194 287 435 329 319 330 228 154 110 36 2 0 0 0 0 0 0 17 13 2 2 0 0 0
0 0 0 0 0 0 0 0 0 0 0 0 0 0 0 0 0 2 21 270 355 407 274 162 235 215 213 405 322 322 523 378 224 165 68 14 0 0 0 1 3 4 10 2 0 0 0 0 1
0 0 0 0 0 0 0 0 0 0 0 0 0 0 0 0 0 0 186 406 365 361 207 219 231 263 232 304 296 281 318 553 244 167 55 0 0 0 0 1 1 0 0 0 0 0 0 0 0
0 0 0 0 0 0 0 0 0 0 0 0 0 0 0 0 21 174 342 444 341 332 259 232 269 252 203 170 150 228 235 352 406 187 58 3 0 0 0 0 0 0 0 0 0 4 12 12 3
0 0 0 0 0 0 0 0 0 0 0 0 0 0 0 0 160 340 447 478 412 378 369 289 286 244 181 106 105 99 54 85 419 190 75 35 0 0 0 0 3 4 6 5 7 22 9 0 0
0 0 0 0 0 0 0 0 0 0 0 0 0 0 0 0 236 471 464 439 386 456 456 426 331 241 155 172 146 164 180 272 361 230 158 43 37 3 0 0 9 23 62 51 60 48 0 0 0
0 0 0 0 0 0 0 0 0 0 0 0 0 0 0 0 343 463 458 447 498 510 408 343 335 255 171 219 116 86 136 144 141 144 112 51 42 39 33 7 21 41 72 76 114 1 0 0 0
0 0 0 0 0 0 0 0 0 0 0 0 0 0 0 0 443 467 447 466 491 504 445 370 294 235 144 192 178 79 119 120 120 100 86 81 80 93 62 32 30 40 148 150 40 0 0 0 0
0 0 0 0 0 0 0 0 0 0 0 0 0 0 0 179 479 406 400 313 488 437 386 404 317 201 163 135 193 170 126 150 158 146 162 137 137 164 144 46 64 16 124 42 4 0 0 0 0
0 0 0 0 0 0 0 0 0 0 0 0 0 0 0 177 508 457 425 508 540 452 364 379 330 351 248 142 134 158 144 135 176 149 150 133 130 166 212 150 151 74 53 0 0 0 0 0 0
0 0 0 0 0 0 0 0 0 0 0 0 0 0 0 0 236 415 425 514 563 528 441 320 258 275 272 311 155 111 130 130 141 157 138 91 96 110 191 188 141 90 14 0 0 0 0 0 0
0 0 0 0 0 0 0 0 0 0 0 0 0 0 0 0 0 34 287 520 562 627 538 463 297 266 312 254 260 154 72 108 119 110 111 64 76 117 159 168 119 75 0 0 0 0 0 0 0
0 0 0 0 0 0 0 0 0 0 0 0 0 0 0 0 0 0 0 0 219 630 707 545 421 365 381 389 296 207 139 73 73 83 82 44 44 121 156 131 96 43 0 0 0 0 0 0 0
0 0 0 0 0 0 0 0 0 0 0 0 0 0 0 0 0 0 0 0 0 0 292 642 610 476 475 470 413 302 205 114 64 39 46 38 10 47 129 118 73 35 0 0 0 0 0 0 0
0 0 0 0 0 0 0 0 0 0 0 0 0 0 0 0 0 0 0 0 0 0 0 48 553 693 632 586 479 420 305 194 118 52 1 11 10 0 27 52 48 4 0 0 0 0 0 0 0
0 0 0 0 0 0 0 0 0 0 0 0 0 0 0 0 0 0 0 0 0 0 0 0 28 492 756 676 625 490 418 302 213 82 38 3 0 0 0 0 5 0 0 0 0 0 0 0 0
0 0 0 0 0 0 0 0 0 0 0 0 0 0 0 0 0 0 0 0 0 0 0 0 0 0 469 849 576 471 387 299 253 155 102 35 8 0 0 0 0 0 0 0 0 0 0 0 0
0 0 0 0 0 0 0 0 0 0 0 0 0 0 0 0 0 0 0 0 0 0 0 0 0 0 0 214 498 478 326 370 264 234 131 79 39 0 0 0 0 0 0 0 0 0 0 0 0
0 0 0 0 0 0 0 0 0 0 0 0 0 0 0 0 0 0 0 0 0 0 0 0 0 0 0 0 191 356 402 377 411 176 175 79 51 5 0 0 0 0 0 0 0 0 0 0 0
0 0 0 0 0 0 0 0 0 0 0 0 0 0 0 0 0 0 0 0 0 0 0 0 0 0 0 0 121 305 217 72 230 193 225 209 113 41 21 0 0 0 0 0 0 0 0 0 0
0 0 0 0 0 0 0 0 0 0 0 0 0 0 0 0 0 0 0 0 0 0 0 0 0 0 0 0 0 0 2 24 143 197 299 278 91 40 39 1 0 0 0 0 0 0 0 0 0
0 0 0 0 0 0 0 0 0 0 0 0 0 0 0 0 0 0 0 0 0 0 0 0 0 0 0 0 0 0 0 4 196 200 268 234 57 20 9 8 0 0 0 0 0 0 0 0 0
0 0 0 0 0 0 0 0 0 0 0 0 0 0 0 0 0 0 0 0 0 0 0 0 0 0 0 0 0 0 15 21 62 80 150 199 48 10 1 0 0 0 0 0 0 0 0 0 0
0 0 0 0 0 0 0 0 0 0 0 0 0 0 0 0 0 0 0 0 0 0 0 0 0 0 0 0 0 0 0 70 157 69 95 100 0 0 0 0 0 0 0 0 0 0 0 0 0
0 0 0 0 0 0 0 0 0 0 0 0 0 0 0 0 0 0 0 0 0 0 0 0 0 0 0 0 0 0 0 0 18 23 29 92 46 9 0 0 0 0 0 0 0 0 0 0 0
0 0 0 0 0 0 0 0 0 0 0 0 0 0 0 0 0 0 0 0 0 0 0 0 0 0 0 0 0 0 0 0 0 0 37 119 45 0 0 0 0 0 0 0 0 0 0 0 0
0 0 0 0 0 0 0 0 0 0 0 0 0 0 0 0 0 0 0 0 0 0 0 0 0 0 0 0 0 0 0 0 0 0 0 43 43 0 0 0 0 0 0 0 0 0 0 0 0
0 0 0 0 0 0 0 0 0 0 0 0 0 0 0 0 0 0 0 0 0 0 0 0 0 0 0 0 0 0 0 0 0 0 0 13 8 0 0 0 0 0 0 0 0 0 0 0 0
0 0 0 0 0 0 0 0 0 0 0 0 0 0 0 0 0 0 0 0 0 0 0 0 0 0 0 0 0 0 0 0 0 0 0 0 1 0 0 0 0 0 0 0 0 0 0 0 0

GFSSGP_con_mlcape_036.txt.gz
CAPE
22 0 0 0 0 0 0 0 0 0 0 0 0 0 0 0 0 3 63 423 167 528 432 175 439 388 467 740 997 881 723 670 417 179 42 8 2 0 0 0 0 46 62 38 43 4 0 0 0
3 0 0 0 0 0 0 0 0 0 0 0 0 0 0 0 1 128 312 439 204 494 389 216 194 92 178 466 699 714 473 437 193 92 8 0 0 0 0 0 0 38 25 10 3 0 0 0 0
0 0 0 0 0 0 0 0 0 0 0 0 0 0 0 0 15 181 305 456 304 533 447 347 175 156 310 364 362 369 336 108 91 65 17 0 0 0 0 0 0 11 2 1 0 0 0 0 1
0 0 0 0 0 0 0 0 0 0 0 0 0 0 0 0 5 186 522 441 486 484 362 262 278 261 372 424 295 401 509 180 152 86 14 0 0 0 1 2 0 0 0 0 0 0 0 0 4
0 0 0 0 0 0 0 0 0 0 0 0 0 0 0 46 374 416 635 580 533 369 262 223 222 189 205 385 283 297 323 556 266 120 27 0 0 0 0 0 0 0 0 0 0 0 3 0 0
0 0 0 0 0 0 0 0 0 0 0 0 0 0 0 141 549 602 713 658 549 409 279 210 230 218 208 260 237 241 262 619 394 144 40 0 0 0 0 1 1 1 1 2 4 20 0 0 0
0 0 0 0 0 0 0 0 0 0 0 0 0 0 0 103 619 512 641 743 651 504 305 206 256 181 168 164 100 84 61 190 350 170 122 24 0 0 0 1 12 27 33 34 65 1 0 0 0
0 1 1 0 0 0 0 0 0 0 0 0 0 0 0 54 474 465 460 528 694 625 400 256 219 163 120 123 173 147 184 194 396 209 150 40 10 0 7 14 23 49 49 91 53 0 0 0 0
0 0 0 0 0 0 0 0 0 0 0 0 0 0 0 0 451 473 445 490 706 705 510 326 189 131 109 139 123 129 165 173 190 179 136 50 23 11 1 0 4 62 67 168 10 0 0 0 0
0 0 0 0 0 0 0 0 0 0 0 0 0 0 50 216 450 463 476 477 596 652 629 428 230 126 122 120 151 56 54 99 117 112 92 42 43 33 21 12 3 68 153 85 0 0 0 0 0
0 0 0 0 0 0 0 0 0 0 0 0 0 0 11 172 399 485 546 556 471 429 477 456 291 188 153 106 137 119 63 84 94 86 67 63 73 131 122 47 34 23 58 35 0 0 0 0 0
0 0 0 0 0 0 0 0 0 0 0 0 0 0 0 164 308 448 480 462 484 493 470 342 346 273 225 181 140 153 96 86 87 87 82 126 157 180 171 158 84 38 21 10 0 0 0 0 0
0 0 0 0 0 0 0 0 0 0 0 0 0 0 0 0 22 379 511 501 546 570 440 437 401 357 270 307 335 201 167 109 78 105 96 99 134 171 187 190 153 119 43 0 0 0 0 0 0
0 0 0 0 0 0 0 0 0 0 0 0 0 0 0 0 0 0 62 400 681 788 704 612 550 447 342 291 341 488 344 170 116 82 96 116 97 125 155 164 162 144 97 2 0 0 0 0 0
0 0 0 0 0 0 0 0 0 0 0 0 0 0 0 0 0 0 0 0 1 91 541 843 739 632 555 536 447 417 669 436 175 126 83 77 66 82 126 171 190 171 111 20 0 0 0 0 0
0 0 0 0 0 0 0 0 0 0 0 0 0 0 0 0 0 0 0 0 0 0 0 0 406 788 689 689 638 566 484 690 542 296 132 75 49 38 93 139 194 180 104 6 0 0 0 0 0
2 0 0 0 0 0 0 0 0 0 0 0 0 0 0 0 0 0 0 0 0 0 0 0 0 232 612 777 719 578 552 483 849 667 371 159 89 49 29 68 105 117 70 0 0 0 0 0 0
0 0 0 0 0 0 0 0 0 0 0 0 0 0 0 0 0 0 0 0 0 0 0 0 0 0 117 671 606 500 526 481 584 854 640 440 235 93 53 19 35 64 35 0 0 0 0 0 0
0 0 0 0 0 0 0 0 0 0 0 0 0 0 0 0 0 0 0 0 0 0 0 0 0 0 0 36 643 500 532 561 426 574 822 694 484 251 73 23 14 28 12 0 0 0 0 0 0
0 0 0 0 0 0 0 0 0 0 0 0 0 0 0 0 0 0 0 0 0 0 0 0 0 0 0 0 46 406 616 519 558 362 307 785 617 438 176 73 20 13 0 0 0 0 0 0 0
0 0 0 0 0 0 0 0 0 0 0 0 0 0 0 0 0 0 0 0 0 0 0 0 0 0 0 0 0 65 403 453 455 334 266 338 693 483 355 133 76 29 0 0 0 0 0 0 0
1 0 0 0 0 0 0 0 0 0 0 0 0 0 0 0 0 0 0 0 0 0 0 0 0 0 0 0 0 0 61 43 42 120 317 342 392 546 482 232 100 7 0 0 0 0 0 0 0
1 0 0 0 0 0 0 0 0 0 0 0 0 0 0 0 0 0 0 0 0 0 0 0 0 0 0 0 0 0 0 0 0 15 239 320 290 304 357 190 106 30 0 0 0 0 0 0 0
0 0 0 0 0 0 0 0 0 0 0 0 0 0 0 0 0 0 0 0 0 0 0 0 0 0 0 0 0 0 0 0 0 108 406 453 509 247 238 159 104 33 8 0 0 0 0 0 0
0 0 1 0 0 0 0 0 0 0 0 0 0 0 0 0 0 0 0 0 0 0 0 0 0 0 0 0 0 0 0 0 6 80 218 324 393 212 106 154 139 44 0 0 0 0 0 0 0
0 0 0 0 0 0 0 0 0 0 0 0 0 0 0 0 0 0 0 0 0 0 0 0 0 0 0 0 0 0 0 0 0 1 38 106 120 285 150 110 133 63 17 0 0 0 0 0 0
0 1 0 0 0 0 0 0 0 0 0 0 0 0 0 0 0 0 0 0 0 0 0 0 0 0 0 0 0 0 0 0 0 0 0 34 104 262 343 283 144 39 2 1 1 0 0 0 0
0 0 0 0 0 0 0 0 0 0 0 0 0 0 0 0 0 0 0 0 0 0 0 0 0 0 0 0 0 0 0 0 0 0 0 5 75 177 197 242 149 4 0 0 0 0 0 0 0
0 0 0 0 0 0 0 0 0 0 0 0 0 0 0 0 0 0 0 0 0 0 0 0 0 0 0 0 0 0 0 0 0 0 0 0 10 49 67 60 26 10 0 0 0 0 0 0 0
0 0 0 0 0 0 0 0 0 0 0 0 0 0 0 0 0 0 0 0 0 0 0 0 0 0 0 0 0 0 0 0 0 0 0 1 1 1 7 3 0 0 0 0 0 0 0 0 0

GFSSGP_con_mlcape_039.txt.gz
CAPE
1 4 0 0 0 0 0 0 0 0 0 0 0 0 0 0 2 53 307 513 245 789 476 372 617 581 854 932 968 805 666 603 391 174 29 5 0 0 0 0 20 54 41 50 11 0 0 0 0
11 0 0 0 0 0 0 0 0 0 0 0 0 0 0 0 1 428 630 575 341 617 328 353 384 360 746 780 1008 741 601 460 175 61 7 0 0 0 0 0 33 43 35 22 9 0 0 0 0
80 0 0 0 0 0 0 0 0 0 0 0 0 0 0 15 54 351 637 426 496 476 248 420 296 133 389 792 709 535 576 248 94 45 0 0 0 0 0 1 16 4 5 2 1 0 0 0 1
30 0 0 1 0 0 0 0 0 0 0 0 0 0 0 24 140 446 597 369 505 449 367 183 114 111 212 325 253 397 232 94 76 59 0 0 0 1 2 3 0 0 0 0 0 0 0 0 2
33 6 0 0 0 0 0 0 0 0 0 0 0 0 1 445 381 657 525 456 495 378 425 276 200 262 254 286 224 290 332 122 127 88 0 0 0 1 1 0 0 0 0 0 0 0 1 0 0
13 8 12 6 0 0 0 0 0 0 0 0 0 0 24 530 651 767 665 633 482 319 337 239 202 151 169 190 193 222 218 325 149 106 2 0 0 0 0 0 0 0 0 0 6 2 0 0 0
5 7 9 16 11 0 0 0 0 0 0 0 0 0 13 452 851 841 745 674 571 370 234 224 193 186 135 152 164 175 136 464 230 108 36 0 0 0 0 0 0 0 5 26 52 0 0 0 0
19 34 19 24 15 0 0 0 0 0 0 0 0 0 1 293 727 703 778 804 719 519 273 219 208 159 103 91 80 90 71 163 264 116 44 0 0 0 4 4 15 62 42 59 0 0 0 0 0
0 26 21 28 20 1 0 0 0 0 0 0 0 0 0 231 586 497 453 558 728 627 414 250 176 114 76 69 87 87 102 78 271 123 72 4 0 0 0 0 0 44 60 126 0 0 0 0 0
0 10 17 24 25 4 2 0 0 0 0 0 0 0 24 307 393 444 423 430 761 612 532 333 154 104 72 87 120 64 90 129 156 174 125 39 10 1 0 0 0 45 99 57 0 0 0 0 0
0 0 0 48 6 3 0 0 0 0 0 0 0 0 5 178 433 454 498 585 512 562 607 466 290 99 60 63 123 51 44 66 95 102 118 61 25 27 9 10 0 31 80 55 0 0 0 0 0
0 0 0 14 0 0 0 0 0 0 0 0 0 0 0 90 218 345 537 606 638 512 413 410 406 247 134 123 108 118 72 64 85 84 59 35 55 76 45 22 10 0 71 55 0 0 0 0 0
0 0 0 0 0 0 0 0 0 0 0 0 0 0 0 0 5 252 393 507 510 624 491 406 368 399 259 198 171 174 167 86 70 67 78 62 97 140 102 76 61 40 16 24 0 0 0 0 0
1 0 0 0 0 0 0 0 0 0 0 0 0 0 0 0 0 0 176 459 489 537 626 557 439 488 482 275 383 523 326 259 113 75 84 59 75 103 160 141 118 100 82 37 0 0 0 0 0
18 1 0 0 0 0 0 0 0 0 0 0 0 0 0 0 0 0 0 1 152 351 642 783 721 673 630 600 357 416 772 533 317 136 80 72 56 68 79 104 131 148 110 78 8 0 0 0 0
17 18 2 0 0 0 0 0 0 0 0 0 0 0 0 0 0 0 0 0 0 0 0 238 750 845 831 766 746 418 604 856 649 442 258 111 85 68 59 85 133 145 139 107 32 0 0 0 0
27 0 0 0 0 0 0 0 0 0 0 0 0 0 0 0 0 0 0 0 0 0 0 0 0 160 677 888 808 587 518 598 1021 866 632 400 202 90 47 79 117 140 153 111 53 0 0 0 0
0 0 0 0 0 0 0 0 0 0 0 0 0 0 0 0 0 0 0 0 0 0 0 0 0 0 0 225 552 705 517 502 475 993 969 765 511 326 116 54 69 113 145 68 22 0 0 0 0
0 0 0 0 0 0 0 0 0 0 0 0 0 0 0 0 0 0 0 0 0 0 0 0 0 0 0 0 30 739 507 491 433 513 992 1026 875 565 385 222 72 70 71 74 15 0 0 0 0
0 0 0 0 0 0 0 0 0 0 0 0 0 0 0 0 0 0 0 0 0 0 0 0 0 0 0 0 0 97 660 416 407 494 556 787 1083 925 688 486 300 89 89 65 14 0 0 0 0
8 1 0 0 0 0 0 0 0 0 0 0 0 0 0 0 0 0 0 0 0 0 0 0 0 0 0 0 0 0 81 567 598 502 528 569 692 1050 844 684 524 314 162 111 51 0 0 0 0
14 8 0 0 0 0 0 0 0 0 0 0 0 0 0 0 0 0 0 0 0 0 0 0 0 0 0 0 0 0 0 13 403 410 614 642 491 568 939 696 602 489 272 160 72 3 0 0 0
28 0 0 0 0 0 0 0 0 0 0 0 0 0 0 0 0 0 0 0 0 0 0 0 0 0 0 0 0 0 0 0 13 127 80 113 474 430 446 635 598 396 362 273 58 2 0 0 0
0 0 0 0 0 0 0 0 0 0 0 0 0 0 0 0 0 0 0 0 0 0 0 0 0 0 0 0 0 0 0 0 0 0 0 6 251 534 388 279 435 450 318 222 58 10 0 0 0
0 4 3 2 1 0 0 0 0 0 0 0 0 0 0 0 0 0 0 0 0 0 0 0 0 0 0 0 0 0 0 0 0 0 12 98 242 447 388 274 299 353 319 214 72 10 0 0 0
0 7 16 0 0 0 0 0 0 0 0 0 0 0 0 0 0 0 0 0 0 0 0 0 0 0 0 0 0 0 0 0 0 0 0 1 35 139 301 315 196 235 313 287 211 54 2 0 0
0 0 0 0 0 0 0 0 0 0 0 0 0 0 0 0 0 0 0 0 0 0 0 0 0 0 0 0 0 0 0 0 0 0 0 0 0 0 71 227 320 157 255 301 242 84 16 0 0
1 0 0 0 0 0 0 0 0 0 0 0 0 0 0 0 0 0 0 0 0 0 0 0 0 0 0 0 0 0 0 0 0 0 0 0 0 0 47 106 128 217 253 277 189 67 2 0 0
0 1 0 0 0 0 0 0 0 0 0 0 0 0 0 0 0 0 0 0 0 0 0 0 0 0 0 0 0 0 0 0 0 0 0 1 0 0 0 8 34 58 95 61 29 1 0 0 0
0 0 0 0 0 0 0 0 0 0 0 0 0 0 0 0 0 0 0 0 0 0 0 0 0 0 0 0 0 0 0 0 1 0 1 0 0 0 0 0 0 3 7 0 0 0 0 0 0

GFSSGP_con_mlcape_042.txt.gz
CAPE
0 0 0 0 0 0 0 0 0 0 0 0 0 0 0 0 35 105 299 387 1060 682 663 530 459 578 636 904 941 674 562 556 368 90 23 0 0 0 0 0 38 27 38 25 0 0 0 0 0
2 11 0 0 0 0 0 0 0 0 0 0 0 0 0 22 370 280 594 422 861 524 514 637 378 563 826 1025 756 537 630 353 97 21 10 0 0 0 0 29 27 43 26 8 0 0 0 0 1
4 65 0 0 0 0 0 0 0 0 0 0 0 0 0 36 260 587 715 348 640 332 372 459 517 717 731 910 669 473 496 150 12 10 0 0 0 0 1 29 11 8 7 8 0 0 0 1 1
37 11 0 0 0 0 0 0 0 0 0 0 0 0 0 204 376 607 465 438 455 221 477 294 144 247 513 498 514 473 235 107 57 7 0 0 0 1 9 5 0 0 0 0 0 0 0 0 0
80 18 0 0 0 0 0 0 0 0 0 0 0 0 50 372 551 484 370 483 389 365 273 119 88 175 188 235 217 186 85 93 80 11 0 0 0 3 6 0 0 0 0 0 0 0 0 0 0
12 22 7 0 0 0 0 0 0 0 0 0 0 8 351 471 669 484 436 462 338 473 285 111 110 137 148 135 139 257 146 102 96 10 0 0 1 0 0 0 0 0 0 0 4 0 0 0 0
4 0 0 0 0 2 0 0 0 0 0 0 0 0 342 858 815 651 594 487 312 335 245 138 111 106 129 111 121 139 306 164 95 19 0 0 0 0 0 0 0 0 0 21 0 0 0 0 0
17 13 10 0 5 3 0 5 0 0 0 0 0 0 325 829 759 828 687 577 414 240 233 123 123 90 71 91 93 106 103 367 111 49 0 0 0 0 0 0 3 1 15 39 0 0 0 0 0
68 15 4 0 0 12 2 4 0 0 0 0 0 0 271 796 532 579 670 732 566 353 231 130 136 109 62 55 33 47 42 109 145 64 12 0 0 0 0 0 0 45 59 52 0 0 0 0 0
87 18 0 0 14 31 5 5 0 0 0 0 0 0 204 490 376 193 292 601 720 544 326 191 145 65 33 27 34 10 61 36 165 91 33 9 0 0 0 0 0 33 52 35 0 0 0 0 0
8 1 1 55 76 0 0 0 0 0 0 0 0 0 42 306 198 288 271 337 616 556 504 265 120 52 46 66 74 45 85 80 130 108 67 36 8 0 0 0 0 0 48 3 0 0 0 0 0
0 0 4 43 1 0 0 0 0 0 0 0 0 0 0 81 256 383 332 579 403 418 463 450 305 90 55 60 74 27 28 37 60 94 126 76 17 8 8 14 0 0 40 55 0 0 0 0 0
0 0 0 4 0 0 0 0 0 0 0 0 0 0 0 0 18 161 376 514 610 526 348 345 363 299 104 84 41 45 7 0 20 38 44 50 21 37 41 21 9 0 38 18 17 0 0 0 0
0 0 0 4 0 0 0 0 0 0 0 0 0 0 0 0 0 0 286 357 435 484 529 350 355 331 341 163 151 83 118 18 26 29 40 38 28 59 53 39 41 31 26 8 3 0 0 0 0
11 0 0 0 0 0 0 0 0 0 0 0 0 0 0 0 0 0 0 15 375 347 583 546 396 375 437 373 178 264 387 256 100 31 17 19 17 41 71 45 53 52 39 43 8 0 0 0 0
13 9 10 0 0 0 0 0 0 0 0 0 0 0 0 0 0 0 0 0 0 0 137 650 693 623 549 477 397 226 286 463 457 183 45 0 3 17 41 57 54 71 80 57 31 0 0 0 0
28 0 0 0 0 0 0 0 0 0 0 0 0 0 0 0 0 0 0 0 0 0 0 0 4 645 715 667 630 529 388 343 623 794 320 142 50 36 29 27 38 98 71 66 57 2 0 0 0
0 0 0 0 0 0 0 0 0 0 0 0 0 0 0 0 0 0 0 0 0 0 0 0 0 0 2 618 760 691 581 461 458 603 765 549 267 113 37 26 27 79 61 61 59 20 0 0 0
0 0 0 0 0 0 0 0 0 0 0 0 0 0 0 0 0 0 0 0 0 0 0 0 0 0 0 0 0 570 645 505 434 332 400 639 689 369 199 71 43 51 79 95 64 15 0 0 0
5 0 0 0 0 0 0 0 0 0 0 0 0 0 0 0 0 0 0 0 0 0 0 0 0 0 0 0 0 0 491 558 423 338 287 379 529 652 407 286 149 80 51 93 75 10 0 0 0
0 0 0 0 0 0 0 0 0 0 0 0 0 0 0 0 0 0 0 0 0 0 0 0 0 0 0 0 0 0 0 183 438 314 247 306 364 404 570 550 339 227 99 79 84 26 0 0 0
6 0 1 0 0 0 0 0 0 0 0 0 0 0 0 0 0 0 0 0 0 0 0 0 0 0 0 0 0 0 0 0 12 363 404 405 337 296 404 558 627 469 299 106 110 45 0 0 0
14 3 0 1 0 0 0 0 0 0 0 0 0 0 0 0 0 0 0 0 0 0 0 0 0 0 0 0 0 0 0 0 0 0 75 346 429 572 556 466 638 528 418 352 143 144 18 0 0
24 0 0 0 0 0 0 0 0 0 0 0 0 0 0 0 0 0 0 0 0 0 0 0 0 0 0 0 0 0 0 0 0 0 0 14 29 66 339 491 379 329 520 519 416 210 107 0 0
0 0 0 0 0 0 0 0 0 0 0 0 0 0 0 0 0 0 0 0 0 0 0 0 0 0 0 0 0 0 0 0 0 0 0 0 12 38 211 184 344 222 214 394 502 365 211 13 0
0 0 0 0 0 0 0 0 0 0 0 0 0 0 0 0 0 0 0 0 0 0 0 0 0 0 0 0 0 0 0 0 0 0 0 0 0 0 14 41 95 236 241 229 357 424 336 130 0
0 0 0 0 0 0 0 0 0 0 0 0 0 0 0 0 0 0 0 0 0 0 0 0 0 0 0 0 0 0 0 0 0 0 0 0 0 0 0 0 17 90 224 167 236 321 355 301 74
0 0 0 0 0 0 0 0 0 0 0 0 0 0 0 0 0 0 0 0 0 0 0 0 0 0 0 0 0 0 0 0 0 0 0 0 0 0 0 0 0 0 37 127 203 307 367 299 119
0 0 0 0 0 0 0 0 0 0 0 0 0 0 0 0 0 0 0 0 0 0 0 0 0 0 0 0 0 0 0 0 1 0 0 0 0 0 0 0 0 0 0 1 36 60 73 129 29
0 0 0 0 0 0 0 0 0 0 0 0 0 0 0 0 0 0 0 0 0 0 0 0 0 0 0 0 0 0 0 0 0 0 0 0 0 0 0 0 0 0 0 0 0 0 0 0 0

GFSSGP_con_mlcape_045.txt.gz
CAPE
0 0 0 0 0 0 0 0 0 0 0 0 0 0 3 3 16 6 220 458 371 196 817 989 1173 1136 1171 1053 836 616 502 492 348 103 8 0 0 0 0 19 4 36 11 0 0 0 0 0 0
0 0 0 0 0 0 0 0 0 0 0 0 0 0 0 144 77 234 502 658 468 340 634 720 865 884 917 954 574 479 518 304 30 15 3 0 0 0 55 16 34 32 6 0 0 0 0 0 0
0 0 0 0 0 0 0 0 0 0 0 0 0 0 7 98 436 364 452 692 573 340 357 393 628 659 801 813 435 487 376 63 5 4 0 0 0 0 70 35 25 7 5 0 0 0 1 0 0
33 0 0 0 0 0 0 0 0 0 0 0 0 0 1 223 446 616 367 546 410 395 464 789 768 672 700 604 361 537 156 63 10 0 0 0 0 6 21 8 1 1 0 0 0 0 1 0 0
11 2 0 0 0 0 0 0 0 0 0 0 0 0 113 484 413 381 298 348 301 404 302 255 371 471 643 576 425 319 96 48 13 0 0 0 0 4 4 2 0 0 0 0 0 0 0 0 0
1 7 0 0 0 0 0 0 0 0 0 0 0 78 337 421 395 345 364 334 376 319 154 188 189 293 299 208 253 131 152 75 19 0 0 1 1 1 1 0 0 0 0 0 0 0 0 0 0
0 0 0 0 0 0 0 0 0 0 0 0 0 54 405 618 381 359 303 412 320 189 90 62 138 86 92 90 174 117 96 121 43 1 0 0 0 0 0 0 0 0 0 3 0 0 0 0 0
0 2 0 0 0 1 0 0 0 0 0 0 0 9 333 747 628 524 255 416 315 207 102 51 69 73 62 73 100 186 235 120 75 20 4 0 0 0 0 0 0 1 27 16 0 0 0 0 0
44 18 1 1 0 0 4 1 0 0 0 0 3 138 669 718 654 639 525 276 230 224 151 52 58 39 40 52 72 82 94 207 107 33 12 3 0 0 0 0 36 20 32 9 0 0 0 0 0
52 9 0 0 0 0 0 4 0 0 0 0 1 657 757 304 675 716 672 566 330 212 150 89 73 43 40 52 53 42 43 125 104 40 17 1 0 0 0 0 12 58 61 6 0 0 0 0 0
29 0 0 0 0 0 0 0 0 0 0 0 0 0 200 88 123 366 631 607 484 260 143 95 120 55 30 37 9 0 0 4 102 67 14 3 0 0 0 0 5 24 48 13 0 0 0 0 0
3 10 1 33 41 40 3 0 0 0 0 0 0 26 97 81 122 116 240 547 510 462 365 239 72 25 0 0 0 0 28 11 36 77 30 19 4 0 3 0 0 4 22 11 1 0 0 0 0
4 0 12 19 0 0 0 0 0 0 0 0 0 0 19 95 167 286 237 290 372 481 422 330 231 25 0 0 0 0 0 18 29 47 55 39 5 0 0 4 3 2 6 25 18 2 0 0 0
0 0 2 0 0 0 0 1 0 0 0 0 0 0 0 0 0 76 372 351 501 465 289 295 309 223 114 0 0 0 0 0 0 0 5 14 4 0 0 6 10 2 12 23 37 23 0 0 0
0 0 1 0 0 0 0 0 0 0 0 0 0 0 0 0 0 0 84 241 318 387 334 357 228 294 236 213 29 0 68 0 0 0 0 0 0 0 0 0 0 0 0 21 4 3 0 0 0
23 0 7 0 0 0 0 0 0 0 0 0 0 0 0 0 0 0 0 0 38 220 397 453 388 275 210 304 234 96 141 208 92 0 0 0 0 0 19 26 22 3 0 2 11 0 0 0 0
29 1 0 0 0 0 0 0 0 0 0 0 0 0 0 0 0 0 0 0 0 0 0 437 514 523 439 285 329 295 199 163 284 280 41 1 0 0 0 2 32 45 50 27 18 18 0 0 0
0 0 0 0 0 0 0 0 0 0 0 0 0 0 0 0 0 0 0 0 0 0 0 0 0 419 489 513 399 382 382 305 243 373 438 351 0 0 0 0 5 34 49 59 47 25 0 0 0
0 0 0 0 0 0 0 0 0 0 0 0 0 0 0 0 0 0 0 0 0 0 0 0 0 0 0 6 446 463 493 406 260 249 343 341 334 72 0 0 0 18 39 84 75 34 0 0 0
0 0 0 0 0 0 0 0 0 0 0 0 0 0 0 0 0 0 0 0 0 0 0 0 0 0 0 0 0 0 377 465 481 376 333 291 151 184 236 11 0 0 26 31 72 46 0 0 0
0 0 0 0 0 0 0 0 0 0 0 0 0 0 0 0 0 0 0 0 0 0 0 0 0 0 0 0 0 0 0 7 41 154 301 309 276 169 95 101 71 42 0 22 59 60 16 9 0
0 0 0 0 0 0 0 0 0 0 0 0 0 0 0 0 0 0 0 0 0 0 0 0 0 0 0 0 0 0 0 0 0 0 179 237 253 230 230 138 83 93 103 41 14 21 5 1 0
0 0 0 0 0 0 0 0 0 0 0 0 0 0 0 0 0 0 0 0 0 0 0 0 0 0 0 0 0 0 0 0 0 0 0 0 54 280 309 280 221 114 117 143 142 99 1 0 0
0 1 0 1 0 0 0 0 0 0 0 0 0 0 0 0 0 0 0 0 0 0 0 0 0 0 0 0 0 0 0 0 0 0 0 0 0 0 105 199 288 351 141 203 261 147 93 13 0
0 1 0 1 0 0 0 0 0 0 0 0 0 0 0 0 0 0 0 0 0 0 0 0 0 0 0 0 0 0 0 0 0 0 0 0 0 0 0 7 71 85 110 108 49 137 131 125 27
0 0 0 0 0 0 0 0 0 0 0 0 0 0 0 0 0 0 0 0 0 0 0 0 0 0 0 0 0 0 0 0 0 0 0 0 0 0 0 0 1 16 14 27 175 112 87 69 43
0 0 0 1 0 0 0 0 0 0 0 0 0 0 0 0 0 0 0 0 0 0 0 0 0 0 0 0 0 0 0 0 0 0 0 0 0 0 0 0 0 0 18 12 9 31 17 42 50
0 0 0 0 2 0 0 0 0 0 0 0 0 0 0 0 0 0 0 0 0 0 0 0 0 0 0 0 0 0 0 0 0 0 0 0 0 0 0 0 0 0 0 0 5 22 7 24 38
0 0 0 0 0 0 0 0 0 0 0 0 0 0 0 0 0 0 0 0 0 0 0 0 0 0 0 0 0 0 0 0 0 0 0 0 0 0 0 0 0 0 0 0 0 0 0 1 0
0 0 0 0 0 0 0 0 0 0 0 0 0 0 0 0 0 0 0 0 0 0 0 0 0 0 0 0 0 0 0 0 0 0 0 0 0 0 0 0 0 0 0 0 0 0 0 0 0

GFSSGP_con_mlcape_048.txt.gz
CAPE
5 0 0 0 0 0 0 0 0 0 0 0 0 2 23 8 13 0 124 359 658 658 931 1210 1433 1296 1258 1082 910 722 709 634 424 56 0 0 0 0 9 0 45 5 1 0 0 0 0 0 0
8 0 0 0 0 0 0 0 0 0 0 0 0 0 12 45 170 381 382 571 533 471 978 1322 1371 1277 1161 965 678 698 725 489 91 0 0 0 0 34 117 26 52 4 0 0 0 0 0 0 0
72 0 0 0 0 0 0 0 0 0 0 0 0 0 19 302 262 415 482 437 334 364 1013 1194 1204 1317 1135 741 693 688 609 162 0 0 0 0 0 169 116 115 17 3 0 0 0 0 0 0 0
5 0 0 0 0 0 0 0 0 0 0 0 0 2 135 200 302 524 599 349 65 348 683 1037 1030 974 933 535 717 463 178 15 0 0 0 0 2 61 26 23 4 3 0 0 0 0 0 0 0
0 0 0 0 0 0 0 0 0 0 0 0 0 4 167 406 378 691 693 406 257 210 283 515 672 804 690 469 607 454 155 24 0 0 0 0 4 51 5 1 0 0 0 0 0 0 0 0 0
5 0 0 0 0 0 0 0 0 0 0 0 0 0 224 198 316 594 453 434 372 332 551 564 444 566 627 488 621 312 122 39 10 0 0 2 5 5 6 1 0 0 0 0 0 0 0 0 0
0 0 0 0 0 0 0 0 0 0 0 0 20 0 324 435 225 323 418 417 353 249 254 224 269 569 485 287 402 189 118 59 20 7 0 0 1 5 4 0 0 0 0 0 0 0 0 0 0
0 0 0 0 0 0 0 0 0 0 0 0 36 5 207 540 341 264 315 314 248 172 149 102 176 171 115 116 169 129 137 86 39 20 9 0 0 0 1 1 10 11 55 22 0 0 0 0 0
0 7 0 0 0 0 0 0 0 0 0 0 37 218 535 555 341 360 348 307 252 160 80 73 45 44 58 78 166 187 171 118 57 26 10 0 0 0 4 3 5 40 76 24 0 0 0 0 0
6 2 0 0 0 0 0 0 0 0 0 24 211 709 739 682 521 450 451 364 257 143 50 36 35 38 41 60 68 61 154 152 65 21 5 0 0 0 2 6 23 30 57 37 0 0 0 0 0
7 0 0 0 0 0 0 0 0 0 0 0 33 587 690 586 548 504 381 319 287 205 123 60 44 41 33 50 36 30 29 108 69 22 0 0 0 0 0 5 27 55 70 31 3 0 0 0 0
25 19 0 2 16 10 0 0 0 0 0 0 0 146 113 197 299 554 621 436 260 197 159 86 52 24 13 9 9 0 0 9 65 29 7 0 0 0 0 1 12 32 48 27 10 0 0 0 0
1 0 2 26 13 8 4 0 0 0 0 0 24 296 127 60 25 152 609 508 419 347 252 101 70 37 25 0 0 0 0 0 0 22 1 0 0 0 0 0 0 4 12 15 8 6 0 0 0
9 1 13 8 14 29 4 0 0 0 0 0 24 37 59 155 193 200 137 244 464 429 364 263 123 19 0 0 0 0 0 0 0 0 0 0 0 0 0 0 0 0 0 0 0 6 6 0 0
3 18 0 0 0 0 6 8 0 0 0 0 1 0 0 0 0 103 275 253 288 415 322 347 281 118 0 0 0 0 0 0 0 0 0 0 19 0 0 0 0 0 0 0 0 11 9 0 0
10 1 10 0 0 0 0 0 0 2 0 0 0 0 0 0 0 0 34 224 209 378 368 261 235 310 196 119 6 0 0 3 0 0 0 0 0 0 0 0 0 0 0 0 0 0 0 0 0
17 0 0 0 0 0 0 0 0 0 0 0 0 0 0 0 0 0 0 0 0 155 283 338 403 400 272 210 191 110 4 26 179 70 0 0 0 0 0 0 0 0 0 0 0 0 0 0 0
0 0 0 0 0 0 0 0 0 0 0 0 0 0 0 0 0 0 0 0 0 0 0 46 315 402 351 241 167 191 183 165 90 148 300 85 0 0 0 0 0 0 10 3 0 0 0 0 0
0 0 0 0 0 0 0 0 0 0 0 0 0 0 0 0 0 0 0 0 0 0 0 0 0 0 1 265 345 287 305 287 234 135 155 279 342 156 0 0 0 0 1 32 44 28 21 0 0
0 0 0 0 0 0 0 0 0 0 0 0 0 0 0 0 0 0 0 0 0 0 0 0 0 0 0 0 0 78 265 311 351 314 183 129 117 127 141 24 0 0 0 1 11 38 28 13 0
0 0 0 0 0 0 0 0 0 0 0 0 0 0 0 0 0 0 0 0 0 0 0 0 0 0 0 0 0 0 0 0 70 71 114 168 214 222 152 85 58 2 0 0 0 0 6 44 0
0 0 0 0 0 0 0 0 0 0 0 0 0 0 0 0 0 0 0 0 0 0 0 0 0 0 0 0 0 0 0 0 0 0 0 0 65 90 158 144 90 82 0 0 0 0 0 2 0
0 0 0 0 0 0 0 0 0 0 0 0 0 0 0 0 0 0 0 0 0 0 0 0 0 0 0 0 0 0 0 0 0 0 0 0 0 0 0 5 116 35 32 31 15 0 0 0 42
0 0 0 0 0 0 0 0 0 0 0 0 0 0 0 0 0 0 0 0 0 0 0 0 0 0 0 0 0 0 0 0 0 0 0 0 0 0 0 0 0 38 53 20 21 7 0 1 5
0 0 0 0 0 0 0 0 0 0 0 0 0 0 0 0 0 0 0 0 0 0 0 0 0 0 0 0 0 0 0 0 0 0 0 0 0 0 0 0 0 0 0 22 12 14 13 0 0
3 0 0 0 0 0 0 0 0 0 0 0 0 0 0 0 0 0 0 0 0 0 0 0 0 0 0 0 0 0 0 0 0 0 0 0 0 0 0 0 0 0 0 0 3 10 29 34 12
1 0 0 0 0 0 0 0 0 0 0 0 0 0 0 0 0 0 0 0 0 0 0 0 0 0 0 0 0 0 0 0 0 0 0 0 0 0 0 0 0 0 0 0 0 6 14 15 8
0 0 0 0 0 0 0 0 0 0 0 0 0 0 0 0 0 0 0 0 0 0 0 0 0 0 0 0 0 0 0 0 0 0 0 0 0 0 0 0 0 0 0 0 0 0 0 0 0
1 0 0 0 0 0 0 0 0 0 0 0 0 0 0 0 0 0 0 0 0 0 0 0 0 0 0 0 0 0 0 0 0 0 0 0 0 0 0 0 0 0 0 0 0 0 0 0 0
0 0 0 0 0 0 0 0 0 0 0 0 0 0 0 0 0 0 0 0 0 0 0 0 0 0 0 0 0 0 0 0 0 0 0 0 0 0 0 0 0 0 0 0 0 0 0 0 0

GFSSGP_con_mlcape_051.txt.gz
CAPE
85 0 0 0 0 0 0 0 0 0 0 0 0 0 0 3 0 0 79 387 673 885 1046 1237 1183 1215 1235 1189 1012 805 707 574 420 91 0 0 0 0 0 52 4 0 0 0 0 0 0 0 0
91 0 0 0 0 0 0 0 0 0 0 0 11 15 23 4 150 305 295 594 753 769 1121 1394 1273 1262 1245 1021 816 816 764 463 97 0 0 0 0 20 0 92 3 0 0 0 0 0 0 0 0
42 0 0 0 0 0 0 0 0 0 0 0 0 15 87 61 325 292 315 786 737 693 1243 1419 1360 1309 1122 886 808 807 632 217 33 0 0 0 132 188 84 100 4 0 0 0 0 0 0 0 0
0 0 0 0 0 0 0 0 0 0 0 0 0 1 179 219 388 345 635 709 568 630 1103 1389 1292 1188 1031 936 944 938 363 84 13 0 0 0 195 282 259 35 2 0 0 0 0 0 0 0 0
0 0 0 0 0 0 0 0 0 0 0 0 0 5 182 322 300 557 600 478 251 667 1043 1124 1281 1097 918 878 975 574 156 38 0 0 0 16 136 64 50 7 1 0 0 0 0 0 0 0 0
6 0 0 0 0 0 0 0 0 0 0 0 0 25 174 193 639 588 334 147 334 597 892 951 982 871 799 847 869 430 123 31 10 0 0 0 81 54 26 19 0 0 0 0 0 0 0 0 0
1 0 0 0 0 0 0 0 0 0 0 0 29 0 232 348 599 588 364 250 323 331 304 489 509 628 488 511 744 321 138 47 23 9 0 5 1 27 31 40 22 1 0 0 0 0 0 0 0
1 7 0 0 0 0 0 0 0 0 0 0 48 3 36 467 344 456 419 323 214 324 432 361 212 621 460 397 571 203 127 50 36 15 0 0 0 13 30 24 11 14 21 20 0 0 0 0 0
6 11 0 0 0 0 0 0 0 0 0 0 99 190 372 358 323 456 390 306 300 365 281 189 250 419 230 169 267 149 131 64 35 18 8 0 0 5 11 9 15 24 57 33 0 0 0 0 0
22 11 0 0 0 0 0 0 0 0 0 41 169 577 555 370 432 556 490 421 342 280 191 111 156 88 63 101 153 105 188 67 33 12 0 0 0 0 1 2 14 30 62 46 4 0 0 0 0
41 1 0 0 0 0 0 0 0 0 0 0 0 435 721 514 503 557 496 481 426 263 127 83 47 48 57 68 63 69 140 102 35 5 0 0 0 0 0 0 22 34 55 57 20 2 0 0 0
25 0 2 0 15 0 0 0 0 0 0 0 0 0 536 501 599 638 588 469 343 207 109 84 42 35 37 41 42 25 19 78 47 7 0 0 0 0 0 0 3 19 43 46 14 4 0 0 0
20 16 4 32 21 0 2 0 0 0 0 0 0 1 330 446 514 493 479 395 328 296 184 107 68 53 39 28 22 13 0 2 38 0 0 0 0 0 0 0 0 2 26 33 12 4 0 0 0
17 40 59 29 13 2 0 1 0 0 0 0 0 64 188 233 485 464 488 493 411 333 274 164 98 70 40 19 0 0 0 0 0 0 0 0 0 0 0 0 0 0 0 6 4 0 0 0 0
30 12 43 61 29 0 0 2 0 0 0 0 0 0 109 170 113 67 200 553 528 450 347 307 167 94 46 43 0 0 0 0 0 0 0 0 0 0 0 0 0 0 0 0 0 0 0 0 0
11 4 6 16 21 1 16 1 0 0 0 0 0 0 0 0 3 108 205 183 148 428 450 367 327 136 42 31 0 0 0 0 0 0 0 0 0 0 0 0 0 0 0 0 0 0 0 0 0
6 0 0 0 0 0 0 0 0 0 0 0 0 0 0 0 0 0 0 145 173 218 348 328 222 281 166 18 0 0 0 0 0 0 0 0 0 0 0 0 0 0 0 0 0 0 0 0 0
0 0 0 0 0 0 0 0 0 1 0 0 0 0 0 0 0 0 0 0 0 11 121 288 305 269 205 167 122 73 4 0 6 71 65 0 0 0 0 0 0 0 0 0 0 0 0 0 0
0 0 0 0 0 0 0 0 0 0 0 0 0 0 0 0 0 0 0 0 0 0 0 0 0 0 94 284 261 174 163 172 131 96 90 136 187 0 0 0 0 0 0 0 0 0 0 0 0
0 0 0 0 0 0 0 0 1 0 0 0 0 0 0 0 0 0 0 0 0 0 0 0 0 0 0 0 0 121 224 222 195 179 187 171 131 124 119 11 1 0 0 0 0 0 0 0 0
0 0 0 0 0 0 0 0 0 0 0 0 0 0 0 0 0 0 0 0 0 0 0 0 0 0 0 0 0 0 0 0 9 90 162 159 134 152 118 97 74 27 0 0 0 0 0 6 0
0 0 0 0 0 0 0 0 0 0 0 0 0 0 0 0 0 0 0 0 0 0 0 0 0 0 0 0 0 0 0 0 0 0 0 0 0 0 0 0 10 66 33 21 0 0 0 0 0
0 0 0 0 0 0 0 0 0 0 0 0 0 0 0 0 0 0 0 0 0 0 0 0 0 0 0 0 0 0 0 0 0 0 0 0 0 0 0 0 0 0 0 29 0 0 0 0 0
0 0 0 0 0 0 0 0 0 0 0 0 0 0 0 0 0 0 0 0 0 0 0 0 0 0 0 0 0 0 0 0 0 0 0 0 0 0 0 0 0 0 0 0 25 15 11 14 0
0 0 0 1 1 0 0 0 0 0 0 0 0 0 0 0 0 0 0 0 0 0 0 0 0 0 0 0 0 0 0 0 0 0 0 0 0 0 0 0 0 0 0 0 1 11 16 6 10
0 0 0 0 0 0 0 0 0 0 0 0 0 0 0 0 0 0 0 0 0 0 0 0 0 0 0 0 0 0 0 0 0 0 0 0 0 0 0 0 0 0 0 0 0 6 13 12 9
0 5 0 0 0 0 0 0 0 0 0 0 0 0 0 0 0 0 0 0 0 0 0 0 0 0 0 0 0 0 0 0 0 0 0 0 0 0 0 0 0 0 0 0 0 0 0 1 0
0 0 0 0 0 0 0 0 0 0 0 0 0 0 0 0 0 0 0 0 0 0 0 0 0 0 0 0 0 0 0 0 0 0 0 0 0 0 0 0 0 0 0 0 0 0 0 0 0
0 0 0 0 0 0 0 0 0 0 0 0 0 0 0 0 0 0 0 0 0 0 0 0 0 0 0 0 0 0 0 0 0 0 0 0 0 0 0 0 0 0 0 0 0 0 0 0 0
0 0 0 0 0 0 0 0 0 0 0 0 0 0 0 0 0 0 0 0 0 0 0 0 0 0 0 0 0 0 0 0 0 0 0 0 0 0 0 0 0 0 0 0 0 0 0 0 0

GFSSGP_con_mlcape_054.txt.gz
CAPE
356 0 0 0 0 0 0 0 0 0 0 0 0 0 0 2 0 0 37 348 361 903 1069 1195 1166 1141 1037 1050 1062 737 595 456 369 103 7 0 0 0 82 1 1 0 0 0 1 1 0 0 0
156 0 0 0 0 0 0 0 0 0 0 0 0 3 9 20 130 204 210 497 733 986 1135 1114 1117 1119 1285 1072 975 790 738 453 87 2 0 0 0 0 143 3 0 0 0 0 0 0 0 0 0
46 0 0 0 0 0 0 0 0 0 0 0 0 16 79 58 252 176 280 758 862 772 1212 1146 1039 1272 1241 1064 1024 920 543 156 18 0 0 0 140 1 210 28 0 0 0 0 0 0 0 0 0
8 0 0 0 0 0 0 0 0 0 0 0 0 15 192 166 358 295 707 900 815 771 1215 1296 1266 1330 1155 931 917 861 304 80 0 0 0 256 260 151 174 28 0 0 0 0 0 0 0 0 0
2 0 0 0 0 0 0 0 0 0 0 0 0 7 166 276 260 653 764 818 567 915 1277 1365 1326 1249 1024 890 942 608 236 35 10 0 0 264 310 299 109 15 0 0 0 0 0 0 0 0 0
8 0 0 0 0 0 0 0 0 0 0 0 0 30 117 261 579 700 708 647 546 824 1221 1227 1240 1166 901 1031 959 494 103 37 9 0 0 165 103 107 85 38 4 0 0 0 0 0 0 0 0
2 0 0 0 0 0 0 0 0 0 0 0 29 32 134 444 527 515 488 509 565 867 914 1038 1006 983 738 1071 760 380 74 39 14 0 0 31 36 44 76 68 39 19 0 0 0 0 0 0 0
7 3 0 0 0 0 0 0 0 0 0 0 1 3 9 461 456 333 274 304 588 730 713 714 641 685 611 889 600 315 92 45 24 4 4 11 4 25 38 32 29 39 28 24 3 0 0 0 0
20 28 0 0 0 0 0 0 0 0 0 0 30 276 303 497 515 426 279 279 365 418 310 298 273 473 417 382 599 241 99 46 29 10 0 0 0 9 20 20 19 40 46 33 2 0 0 0 0
69 32 0 0 0 0 0 0 0 0 0 0 0 0 103 275 713 680 494 353 261 281 362 273 139 341 283 286 390 184 84 49 21 9 0 0 0 0 11 8 13 29 51 36 6 0 0 0 0
57 5 0 0 0 0 0 0 0 0 0 0 0 0 0 155 491 586 553 411 396 369 295 172 164 242 127 121 112 67 78 46 19 1 0 0 0 0 0 0 3 13 36 52 24 0 0 0 0
5 2 0 0 0 0 0 0 0 0 0 0 0 0 0 113 285 460 538 460 398 344 260 135 103 81 43 49 58 56 93 66 35 0 0 0 0 0 0 0 0 1 6 23 12 2 0 0 0
2 25 2 6 0 0 0 0 0 0 0 0 0 0 0 0 264 302 481 468 392 403 229 122 68 39 31 33 32 30 28 53 44 17 0 0 0 0 0 0 0 0 0 7 5 0 0 0 0
18 37 24 16 9 18 4 0 0 0 0 0 0 0 0 111 224 231 493 644 535 382 268 146 111 56 34 27 20 12 3 0 15 23 0 0 0 0 0 0 0 0 0 0 0 0 0 0 0
31 15 55 56 40 38 33 4 0 0 0 0 0 0 0 0 67 367 476 568 487 396 350 277 170 86 60 37 17 0 0 0 0 0 0 0 0 0 0 0 0 0 0 0 0 0 0 0 0
32 18 15 22 40 28 5 0 0 0 0 0 0 0 0 0 0 64 263 548 497 443 444 371 304 193 105 66 36 2 0 0 0 0 0 0 0 0 0 0 0 0 0 0 0 0 0 0 0
15 0 0 0 37 26 0 0 0 0 0 0 0 0 0 0 0 0 5 143 261 407 462 464 394 347 169 94 58 31 0 0 0 0 0 0 0 0 0 0 0 0 0 0 0 0 0 0 0
0 0 0 0 0 1 0 0 0 0 0 0 0 0 0 0 0 0 0 0 28 133 188 284 300 314 267 92 33 1 0 0 0 0 0 0 0 0 0 0 0 0 0 0 0 0 0 0 0
0 0 0 0 0 0 0 2 0 12 0 0 0 0 0 0 0 0 0 0 0 0 0 17 233 183 205 194 187 141 177 71 0 0 0 9 0 0 0 0 0 0 0 0 0 0 0 0 0
0 0 0 0 0 0 0 0 0 0 0 0 0 0 0 0 0 0 0 0 0 0 0 0 0 0 0 64 113 163 156 104 96 88 94 83 75 77 36 1 1 0 0 0 0 0 0 0 0
0 0 0 0 0 0 0 0 0 0 0 0 0 0 0 0 0 0 0 0 0 0 0 0 0 0 0 0 0 0 0 0 0 34 68 34 26 45 35 60 67 44 0 0 0 0 0 0 0
0 0 0 0 0 0 0 0 0 0 0 0 0 0 0 0 0 0 0 0 0 0 0 0 0 0 0 0 0 0 0 0 0 0 0 0 0 0 0 0 0 0 0 0 0 0 0 9 0
1 0 0 0 0 0 0 0 0 0 0 0 0 0 0 0 0 0 0 0 0 0 0 0 0 0 0 0 0 0 0 0 0 0 0 0 0 0 0 0 0 0 0 0 0 24 4 0 11
0 0 0 0 0 0 0 0 0 0 0 0 0 0 0 0 0 0 0 0 0 0 0 0 0 0 0 0 0 0 0 0 0 0 0 0 0 0 0 0 0 0 0 0 0 1 0 3 0
0 1 0 0 0 0 0 0 0 0 0 0 0 0 0 0 0 0 0 0 0 0 0 0 0 0 0 0 0 0 0 0 0 0 0 0 0 0 0 0 0 0 0 0 1 1 1 0 5
2 1 0 0 0 0 0 0 0 0 0 0 0 0 0 0 0 0 0 0 0 0 0 0 0 0 0 0 0 0 0 0 0 0 0 0 0 0 0 0 0 0 0 0 0 0 10 5 5
2 1 0 0 0 0 0 0 0 0 0 0 0 0 0 0 0 0 0 0 0 0 0 0 0 0 0 0 0 0 0 0 0 0 0 0 0 0 0 0 0 0 0 0 0 0 0 3 0
0 0 0 0 0 0 0 0 0 0 0 0 0 0 0 0 0 0 0 0 0 0 0 0 0 0 0 0 0 0 0 0 0 0 0 0 0 0 0 0 0 0 0 0 0 0 0 0 0
0 0 0 0 0 0 0 0 0 0 0 0 0 0 0 0 0 0 0 0 0 0 0 0 0 0 0 0 0 0 0 0 0 0 0 0 0 0 0 0 0 0 0 0 0 0 0 0 0
3 0 0 0 0 0 0 0 0 0 0 0 0 0 0 0 0 0 0 0 0 0 0 0 0 0 0 0 0 0 0 0 0 0 0 0 0 0 0 0 0 0 0 0 0 0 0 0 0

GFSSGP_con_mlcape_057.txt.gz
CAPE
283 2 0 0 0 0 0 0 0 0 0 0 0 0 0 0 0 0 10 264 211 673 1219 1077 1042 1134 1111 1032 1005 769 540 352 309 118 1 0 22 145 0 2 0 0 0 4 4 3 5 2 0
190 0 0 0 0 0 0 0 0 0 0 0 0 0 0 0 103 162 165 407 515 978 1176 1111 1002 1010 1177 1141 969 747 689 398 85 17 0 0 12 232 12 3 0 0 0 0 0 0 0 0 0
41 0 0 0 0 0 0 0 0 0 0 0 0 3 46 60 245 210 260 670 935 992 1164 1251 973 1149 1246 1089 939 886 510 100 7 0 0 0 0 297 57 1 0 0 0 0 0 0 0 0 0
10 0 0 0 0 0 0 0 0 0 0 0 0 33 197 131 285 282 652 804 982 973 1095 1113 1103 1309 1140 1066 994 748 263 12 0 0 0 300 60 381 104 1 0 0 0 0 0 0 0 0 0
17 0 0 0 0 0 0 0 0 0 0 0 0 9 256 320 293 628 950 931 811 988 1135 1255 1246 1229 1041 1014 1018 533 165 14 0 0 100 448 194 368 71 1 0 0 0 0 0 0 0 0 0
18 1 0 0 0 0 0 0 0 0 0 0 0 31 221 290 583 712 918 846 648 944 1316 1386 1257 1153 977 978 856 357 113 19 0 0 126 267 440 182 48 8 0 0 0 1 0 0 0 0 0
3 6 0 0 0 0 0 0 0 0 0 0 8 30 162 519 593 733 828 788 783 1212 1340 1356 1298 957 925 983 717 284 79 28 5 0 80 83 61 77 75 50 33 10 0 9 0 0 0 0 0
17 0 0 0 0 0 0 0 0 0 0 0 138 31 106 220 482 624 743 704 704 1018 1119 1183 1170 964 1052 1101 542 175 61 41 15 0 6 33 32 47 43 34 34 20 1 4 0 0 0 0 0
44 17 1 0 0 0 0 0 0 0 0 0 0 0 0 115 305 443 501 501 621 776 897 989 948 903 777 973 586 237 81 43 17 4 0 0 7 29 35 26 24 26 24 22 0 0 0 0 0
78 8 1 0 0 0 0 0 0 0 0 0 0 0 0 174 193 359 317 345 563 672 650 629 552 625 572 665 686 283 98 52 29 12 5 0 0 1 7 11 10 23 42 24 2 0 0 0 0
63 1 0 0 0 0 0 0 0 0 0 0 0 0 0 0 223 323 385 427 405 435 373 319 282 403 443 427 550 267 72 55 29 11 0 0 0 0 1 3 6 21 26 54 17 0 0 0 0
33 19 0 0 2 0 0 0 0 0 0 0 0 0 0 0 118 311 418 375 325 294 403 379 223 296 314 252 256 193 90 68 43 16 0 0 0 0 0 0 0 0 8 20 23 5 0 0 0
5 31 6 22 23 0 0 0 0 0 0 0 0 0 0 0 4 237 279 240 379 535 496 304 187 239 171 130 122 126 173 128 76 36 1 0 0 0 0 0 0 0 0 0 4 0 0 0 0
8 35 32 53 63 27 0 0 0 0 0 0 0 0 0 0 0 191 284 350 332 454 405 278 189 167 109 97 79 79 73 98 97 56 17 0 0 0 0 0 0 0 0 0 0 0 0 0 0
21 1 4 41 60 41 11 0 0 0 0 0 0 0 0 0 0 23 240 315 267 371 386 261 202 139 109 84 67 62 52 30 22 29 26 0 0 0 0 0 0 0 0 0 0 0 0 0 0
35 8 0 13 57 49 21 0 0 0 0 0 0 0 0 0 0 0 6 295 300 377 433 327 228 188 140 105 76 52 24 0 0 0 0 0 0 0 0 0 0 0 0 0 0 0 0 0 0
23 0 0 0 49 33 2 0 0 1 0 0 0 0 0 0 0 0 0 30 234 400 386 377 336 331 259 163 104 62 13 0 0 0 0 0 0 0 0 0 0 0 0 0 0 0 0 0 0
0 0 0 0 6 28 1 0 0 0 0 0 0 0 0 0 0 0 0 0 0 190 376 440 420 423 339 174 74 58 51 37 0 0 0 0 0 0 0 0 0 0 0 0 0 0 0 0 0
0 0 0 0 0 50 24 2 0 0 0 0 0 0 0 0 0 0 0 0 0 0 53 210 333 355 367 337 258 142 139 69 32 0 0 0 0 0 0 0 0 0 0 0 0 0 0 0 0
0 0 0 0 0 31 17 10 0 0 0 0 0 0 0 0 0 0 0 0 0 0 0 0 71 157 237 244 212 210 181 154 135 89 62 0 0 0 0 0 0 0 0 0 0 0 0 0 0
0 0 0 0 0 0 0 0 0 0 0 0 0 0 0 0 0 0 0 0 0 0 0 0 0 0 0 0 0 0 0 0 22 59 68 0 0 1 1 2 34 14 0 20 0 0 0 7 0
0 0 0 0 0 0 0 0 0 0 0 0 0 0 0 0 0 0 0 0 0 0 0 0 0 0 0 0 0 0 0 0 0 0 0 0 0 0 0 0 0 4 2 0 1 0 0 2 1
0 0 0 0 0 0 0 0 0 0 0 0 0 0 0 0 0 0 0 0 0 0 0 0 0 0 0 0 0 0 0 0 0 0 0 0 0 0 0 0 0 0 0 0 0 0 1 0 1
0 0 0 0 0 0 0 0 0 0 0 0 0 0 0 0 0 0 0 0 0 0 0 0 0 0 0 0 0 0 0 0 0 0 0 0 0 0 0 0 0 0 0 0 0 0 2 2 0
0 5 1 1 0 0 0 0 0 0 0 0 0 0 0 0 0 0 0 0 0 0 0 0 0 0 0 0 0 0 0 0 0 0 0 0 0 0 0 0 0 0 0 0 1 2 1 0 0
2 6 0 0 0 0 0 0 0 0 0 0 0 0 0 0 0 0 0 0 0 0 0 0 0 0 0 0 0 0 0 0 0 0 0 0 0 0 0 0 0 0 0 0 0 0 0 0 0
0 0 0 0 0 0 0 0 0 0 0 0 0 0 0 0 0 0 0 0 0 0 0 0 0 0 0 0 0 0 0 0 0 0 0 0 0 0 0 0 0 0 0 0 0 0 0 0 0
2 0 0 0 0 0 0 0 0 0 0 0 0 0 0 0 0 0 0 0 0 0 0 0 0 0 0 0 0 0 0 0 0 0 0 0 0 0 0 0 0 0 0 0 0 0 0 0 0
0 0 0 0 0 0 0 0 0 0 0 0 0 0 0 0 0 0 0 0 0 0 0 0 0 0 0 0 0 0 0 0 0 0 0 0 0 0 0 0 0 0 0 0 0 0 0 0 0
0 0 0 0 0 0 0 0 0 0 0 0 0 0 0 0 0 0 0 0 0 0 0 0 0 0 0 0 0 0 0 0 0 0 0 0 0 0 0 0 0 0 0 0 0 0 0 0 0

GFSSGP_con_mlcape_060.txt.gz
CAPE
330 9 0 0 0 0 0 0 0 0 0 0 0 0 0 2 0 6 236 439 281 365 973 1129 1457 1213 1148 1009 807 563 386 372 263 56 0 175 106 0 4 0 0 2 6 7 7 10 3 4 1
345 0 0 0 0 0 0 0 0 0 0 0 0 0 0 2 353 352 327 514 381 559 768 942 1364 1170 1159 1079 878 650 564 304 47 15 0 43 301 28 6 0 0 0 0 2 3 4 3 0 0
130 2 0 0 0 0 0 0 0 0 0 0 0 25 123 327 601 549 504 529 534 705 626 872 893 1114 1239 1069 902 773 412 56 3 0 0 11 433 135 4 0 0 0 0 0 1 0 0 0 0
41 12 0 0 0 0 0 0 0 0 0 0 0 106 402 417 628 552 693 609 730 776 683 969 860 1257 1232 1051 921 618 160 13 0 0 0 45 403 245 5 0 0 0 0 0 0 0 0 0 0
33 2 0 0 0 0 0 0 0 0 0 0 0 90 542 750 793 920 784 763 612 733 761 998 1066 1292 1161 1060 847 432 79 0 0 9 344 347 504 203 6 0 0 0 0 0 0 0 0 0 0
55 12 0 0 0 0 0 0 0 0 0 0 9 189 581 675 691 858 878 760 611 737 815 1242 1236 1081 1129 1069 737 271 74 3 0 160 479 224 746 116 32 11 0 0 1 0 0 0 0 0 0
29 0 0 0 0 0 0 0 0 0 0 0 20 233 539 761 490 675 927 656 694 890 862 1060 1144 1059 990 992 560 214 55 14 0 274 283 186 119 66 46 35 33 0 7 4 0 0 0 0 0
38 8 3 0 0 0 0 0 0 0 0 18 329 165 414 230 331 772 1039 848 636 1171 1122 934 1314 892 791 973 435 160 56 19 0 44 53 42 47 53 41 31 45 15 0 0 0 0 0 0 0
160 20 5 4 0 0 0 0 0 0 0 0 0 0 0 201 416 797 955 866 933 1202 1319 1099 886 747 868 998 513 149 57 28 5 0 8 19 14 35 31 32 25 29 21 7 0 0 0 0 0
133 9 0 0 0 0 0 4 0 0 0 0 0 0 0 325 377 742 770 720 720 830 1029 1128 1028 891 813 911 669 343 191 128 69 40 5 0 0 1 3 21 11 18 28 14 0 0 0 0 0
101 1 1 16 0 7 9 10 0 0 0 0 0 0 0 0 278 407 626 573 524 569 801 891 997 837 793 717 814 416 218 212 152 67 35 4 0 0 0 0 0 12 11 23 9 4 0 0 0
75 41 76 72 15 0 5 3 0 0 0 0 0 0 0 0 8 252 562 769 756 787 831 786 699 670 643 605 766 396 235 191 211 99 58 27 4 0 0 0 0 0 0 2 13 1 0 0 0
31 95 93 82 11 16 11 6 3 0 0 0 0 0 0 0 1 204 275 588 699 660 592 749 682 492 641 663 594 573 372 270 230 211 84 52 31 1 0 0 0 0 0 0 0 0 0 0 0
15 57 78 101 42 23 11 1 11 0 0 0 0 0 0 0 0 29 402 606 563 625 857 910 728 597 764 728 630 483 351 342 320 249 177 80 46 27 0 0 0 0 0 0 0 0 1 0 0
15 61 83 11 10 0 35 32 0 0 0 0 0 0 0 0 0 0 84 518 592 594 627 772 647 577 611 620 534 374 261 253 250 251 233 126 61 30 0 0 0 0 0 0 0 0 0 0 0
1 42 24 24 54 24 28 0 0 2 3 0 0 0 0 0 0 0 0 184 594 623 526 592 459 467 461 391 347 270 236 182 169 172 188 176 73 32 32 0 0 0 0 0 0 0 1 0 0
26 0 4 33 71 74 54 7 17 0 0 0 0 0 0 0 0 0 0 0 422 679 624 566 499 467 501 461 410 390 339 264 198 195 157 92 43 24 32 43 45 15 0 0 5 20 25 36 54
1 5 8 13 11 38 78 35 0 15 0 0 0 0 0 0 0 0 0 0 19 431 669 605 579 605 641 607 542 508 442 357 275 212 138 86 57 37 66 90 91 70 32 27 39 30 55 62 67
1 18 23 34 42 91 87 47 0 0 0 0 0 0 0 0 0 0 0 0 0 0 349 581 640 659 709 654 554 477 548 521 472 341 241 132 98 81 68 95 139 176 146 121 114 125 88 61 86
2 0 6 1 53 55 60 30 44 1 0 0 0 0 0 0 0 0 0 0 0 0 0 180 416 643 787 936 870 754 668 578 503 420 314 216 184 187 171 182 257 265 215 188 161 155 63 19 65
10 0 0 0 62 9 6 1 0 0 0 0 0 0 0 0 0 0 0 0 0 0 0 0 1 211 443 668 420 184 78 93 315 418 432 241 54 110 122 162 195 216 169 104 215 144 61 31 26
11 3 1 3 0 0 0 0 0 0 0 0 0 0 0 0 0 0 0 0 0 0 0 0 0 0 0 2 43 123 235 228 15 1 0 0 0 0 0 0 0 4 3 1 2 3 3 5 2
1 0 0 0 0 0 0 0 0 0 0 0 0 0 0 0 0 0 0 0 0 0 0 0 0 0 0 0 0 0 0 0 0 0 0 0 0 0 0 0 0 0 0 0 0 0 1 4 4
0 0 0 0 0 0 0 0 0 0 0 0 0 0 0 0 0 0 0 0 0 0 0 0 0 0 0 0 0 0 0 0 0 0 0 0 0 0 0 0 0 0 0 0 0 0 1 2 2
1 2 4 1 0 0 0 0 0 0 0 0 0 0 0 0 0 0 0 0 0 0 0 0 0 0 0 0 0 0 0 0 0 0 0 0 0 0 0 0 0 0 0 0 0 2 2 3 3
9 2 0 0 0 0 0 0 0 0 0 0 0 0 0 0 0 0 0 0 0 0 0 0 0 0 0 0 0 0 0 0 0 0 0 0 0 0 0 0 0 0 0 0 0 3 8 8 6
0 2 0 0 0 0 0 0 0 0 0 0 0 0 0 0 0 0 0 0 0 0 0 0 0 0 0 0 0 0 0 0 0 0 0 0 0 0 0 0 0 0 0 0 0 6 8 2 0
2 0 0 0 0 0 0 0 0 0 0 0 0 0 0 0 0 0 0 0 0 0 0 0 0 0 0 0 0 0 0 0 0 0 0 0 0 0 0 0 0 0 0 0 1 0 0 0 0
0 0 0 1 0 0 0 0 0 0 0 0 0 0 0 0 0 0 0 0 0 0 0 0 0 0 0 0 0 0 0 0 0 0 0 0 0 0 0 0 0 0 0 0 0 0 0 0 0
0 2 3 4 0 0 0 0 0 0 0 0 0 0 0 0 0 0 0 0 0 0 0 0 0 0 0 0 0 0 0 0 0 0 0 0 0 0 0 0 0 0 0 0 0 0 0 0 0

GFSSGP_con_mlcape_063.txt.gz
CAPE
544 235 0 3 0 0 0 0 0 0 0 0 0 0 0 132 33 370 149 300 512 840 1040 1085 1297 1244 989 830 677 441 429 332 147 0 215 35 0 4 0 0 4 7 8 21 24 9 4 0 0
491 37 0 0 0 0 0 0 0 0 0 0 0 0 0 261 566 538 414 412 355 875 1194 980 1430 1158 1047 919 723 582 479 156 46 0 55 225 38 7 0 0 1 3 6 7 7 2 0 0 0
552 53 0 0 0 0 0 0 0 0 0 0 0 0 40 558 694 452 528 433 301 740 802 1472 1340 1361 1109 987 736 647 282 39 3 0 0 456 171 16 0 0 0 1 0 3 4 1 1 0 0
257 6 4 0 0 0 0 0 0 0 0 0 0 8 495 820 804 888 509 344 420 576 713 1109 1247 1320 1166 938 806 521 99 6 0 0 28 382 315 14 0 0 0 2 1 4 3 2 0 0 0
431 30 0 0 0 0 0 0 0 0 0 0 0 41 731 874 947 833 491 411 507 479 1078 786 1036 1192 1054 968 698 283 45 0 0 6 66 222 451 17 0 0 0 0 1 3 3 0 0 0 0
113 84 8 0 0 0 0 0 0 0 0 0 1 65 906 723 991 906 632 563 598 557 893 905 1071 1009 959 901 554 122 27 0 32 237 288 443 390 46 0 0 0 1 0 0 0 0 0 0 0
57 13 5 0 0 1 0 0 0 0 0 17 131 190 877 408 625 855 820 527 566 591 741 835 942 993 961 754 360 108 0 0 86 559 358 686 95 36 30 22 5 0 15 0 0 0 0 0 0
60 36 41 32 19 0 0 0 0 1 0 248 402 332 655 211 561 835 1106 486 537 567 939 596 1034 855 777 807 239 68 0 0 86 161 105 77 53 39 17 13 26 0 9 0 0 0 0 0 0
193 49 12 47 27 4 0 0 0 1 44 79 0 0 4 469 599 943 996 624 634 624 970 958 1073 627 720 670 244 77 18 0 0 30 21 15 30 39 17 31 21 21 9 1 0 0 0 0 0
219 88 4 10 47 16 0 0 5 23 18 12 0 0 493 532 589 1201 1143 774 642 1013 1017 1047 936 596 814 935 342 266 143 55 26 0 0 0 0 2 8 18 2 9 17 3 0 0 0 0 0
172 44 0 48 20 23 0 1 6 30 58 27 0 0 2 562 498 832 822 866 750 713 1162 841 875 728 735 976 571 423 226 230 173 79 24 0 0 0 0 0 0 0 0 7 0 0 0 0 0
81 87 156 108 18 35 10 18 10 14 16 0 0 0 0 180 567 518 699 702 662 704 848 889 975 823 701 603 812 497 225 201 259 179 68 25 1 0 0 0 0 0 0 0 2 0 0 0 0
81 115 162 79 12 10 1 0 6 3 0 0 0 0 0 0 279 463 466 694 741 638 612 542 692 604 523 458 671 563 260 212 190 253 171 61 37 30 5 0 0 0 0 0 0 0 0 0 0
59 20 163 124 31 34 0 0 8 0 0 0 0 0 0 0 0 326 530 659 800 787 633 584 544 527 391 526 497 509 328 284 191 179 201 142 54 37 18 0 0 0 0 0 0 0 1 1 1
81 1 12 115 0 67 33 12 0 0 0 0 0 0 0 0 0 0 248 756 828 829 851 778 772 643 544 651 621 476 298 246 215 187 181 157 87 50 23 0 0 0 0 0 0 0 0 0 0
28 5 3 32 58 39 9 0 0 1 24 0 4 4 0 0 0 0 0 245 722 818 933 993 852 661 535 635 691 438 260 185 185 212 248 267 149 75 74 19 20 31 8 1 0 0 1 17 20
38 17 13 11 37 34 2 0 55 2 0 0 0 1 3 5 0 0 0 0 383 741 868 873 885 697 650 483 471 425 370 327 285 299 310 306 271 145 138 140 121 108 109 88 80 73 64 30 24
9 4 23 19 36 18 9 0 16 2 1 0 0 0 0 2 0 0 0 0 39 678 845 920 932 750 677 684 642 656 605 501 426 390 379 343 263 215 202 196 194 215 188 121 104 104 117 115 116
0 0 1 2 5 0 0 12 0 5 7 0 0 0 0 0 0 0 0 0 0 109 760 925 956 882 808 754 784 767 787 762 677 567 529 424 380 354 343 342 279 194 209 200 183 160 3 3 177
15 20 44 29 42 16 19 34 38 33 0 0 0 0 0 0 0 0 0 0 0 0 112 685 894 943 893 873 789 833 819 878 854 838 722 575 496 434 394 335 303 253 261 277 256 155 108 75 161
7 21 38 0 5 46 40 20 3 1 1 0 0 0 0 0 0 1 0 0 0 0 0 67 533 707 911 958 1038 975 771 737 764 776 725 661 566 519 445 379 267 266 311 278 242 183 102 23 10
0 0 0 4 5 0 0 0 0 0 0 0 0 0 0 0 0 0 0 0 0 0 0 0 0 113 541 709 830 554 421 505 509 437 361 59 0 0 0 6 12 22 12 9 11 1 4 12 6
7 5 13 54 22 12 1 0 0 0 0 0 0 0 0 0 0 0 0 0 0 0 0 0 0 0 0 0 96 233 323 267 0 0 0 0 0 0 0 0 0 0 0 0 0 0 0 3 3
0 56 44 48 9 0 0 0 0 0 0 0 0 0 0 0 0 0 0 0 0 0 0 0 0 0 0 0 0 0 0 0 0 0 0 0 0 0 0 0 0 0 0 0 0 0 0 2 1
0 5 0 0 0 0 0 0 0 0 0 0 0 0 0 0 0 0 0 0 0 0 0 0 0 0 0 0 0 0 0 0 0 0 0 0 0 0 0 0 0 0 0 0 0 0 1 2 1
8 3 1 0 0 0 0 0 0 0 0 0 0 0 0 0 0 0 0 0 0 0 0 0 0 0 0 0 0 0 0 0 0 0 0 0 0 0 0 0 0 0 0 0 0 0 1 6 13
13 5 0 0 0 0 0 0 0 0 0 0 0 0 0 0 0 0 0 0 0 0 0 0 0 0 0 0 0 0 0 0 0 0 0 0 0 0 0 0 0 0 0 0 0 0 4 6 3
10 4 0 0 0 0 0 0 0 0 0 0 0 0 0 0 0 0 0 0 0 0 0 0 0 0 0 0 0 0 0 0 0 0 0 0 0 0 0 0 0 0 0 0 0 1 0 0 0
0 3 7 11 0 2 0 0 0 0 0 0 0 0 0 0 0 0 0 0 0 0 0 0 0 0 0 0 0 0 0 0 0 0 0 0 0 0 0 0 0 0 0 0 0 0 0 0 0
18 11 14 7 0 0 0 0 0 0 0 0 0 0 0 0 0 0 0 0 0 0 0 0 0 0 0 0 0 0 0 0 0 0 0 0 0 0 0 0 0 0 0 0 0 0 0 0 0

GFSSGP_con_mlcape_066.txt.gz
CAPE
515 561 310 26 1 0 0 0 0 27 0 0 0 0 0 384 254 76 52 599 1314 895 1033 1091 941 940 786 558 395 352 296 84 0 301 22 2 2 0 0 9 8 3 21 17 15 6 3 0 0
498 473 0 19 0 0 0 0 4 16 0 0 0 0 0 479 317 139 340 709 1058 1104 963 1172 1263 1009 806 736 546 462 207 4 0 251 35 47 2 0 1 1 6 5 12 12 2 6 2 0 0
697 791 0 0 0 0 0 0 8 0 0 0 0 6 109 717 361 376 394 613 910 1052 925 1244 1235 1073 945 744 584 377 16 0 0 90 266 126 0 0 0 0 2 5 8 2 5 2 0 0 0
462 444 57 0 0 0 0 0 8 1 0 0 0 43 505 546 824 538 407 588 1101 860 1226 1120 1216 1113 977 746 680 190 8 0 0 40 455 228 0 0 0 1 2 1 4 3 1 0 0 0 0
484 148 21 0 0 0 0 1 12 0 0 0 0 102 553 630 966 610 353 421 723 1296 1289 1084 1258 1107 898 793 504 104 2 0 0 48 367 278 16 0 0 0 0 0 0 0 0 0 0 0 0
130 178 0 0 0 0 0 8 0 0 0 32 2 8 549 726 967 677 444 437 621 1131 1006 1152 1169 960 883 752 306 31 0 0 88 75 216 489 29 0 0 0 1 0 0 0 0 0 0 0 0
70 42 2 0 0 0 44 2 0 0 0 61 165 32 472 525 804 802 654 554 771 840 876 1102 1031 890 815 546 106 10 0 56 505 153 339 362 42 15 0 0 0 0 0 0 0 0 0 0 0
117 66 12 5 5 1 52 0 0 0 19 176 273 197 289 384 557 808 974 560 661 670 586 762 957 863 767 375 51 0 0 96 221 258 466 62 24 14 15 12 0 0 0 0 0 0 0 0 0
217 89 14 5 58 66 8 0 0 18 81 78 38 59 335 528 616 1017 1128 502 847 947 549 1042 926 823 767 414 55 0 0 0 80 39 44 21 22 18 2 33 8 0 0 0 0 0 0 0 0
136 71 6 0 29 53 0 0 0 80 70 17 78 515 594 734 869 1259 823 639 825 824 573 789 781 512 795 447 76 20 1 0 0 7 0 0 12 14 30 17 14 5 0 0 0 0 0 0 0
103 67 0 25 52 48 2 3 0 86 83 46 5 60 672 729 1047 1135 826 566 592 842 849 1216 674 538 879 505 217 186 70 95 8 0 0 0 0 0 0 0 0 0 0 0 0 0 0 0 0
108 84 80 41 91 58 7 21 1 136 20 0 0 3 378 575 733 1062 1135 700 525 898 1059 903 713 650 893 796 489 299 135 124 129 75 13 0 0 0 0 0 0 0 0 0 0 0 0 0 0
41 80 106 87 25 57 43 43 14 2 0 0 0 0 5 432 626 695 767 726 658 740 907 849 891 720 668 690 753 427 151 116 247 175 92 21 10 2 0 0 0 0 0 0 0 0 0 0 0
7 80 149 68 1 24 23 1 0 0 0 0 0 0 0 0 242 551 558 665 734 634 687 788 776 714 612 536 595 596 267 276 169 242 168 108 46 31 16 0 0 0 0 0 0 0 0 0 0
65 80 54 29 9 56 5 0 0 0 0 0 0 0 0 0 0 260 586 683 817 812 706 532 559 463 405 403 543 514 492 253 194 197 200 140 63 30 21 0 0 0 0 0 0 0 0 0 0
21 66 60 13 5 28 27 0 0 0 0 0 0 0 0 0 0 0 2 776 813 840 722 613 760 654 555 566 611 493 451 228 210 201 193 185 129 46 23 1 0 0 0 0 0 0 0 0 0
34 24 30 0 0 38 10 21 11 4 0 0 0 0 0 0 0 0 0 41 725 755 942 924 854 699 624 592 595 542 367 215 143 163 214 272 231 120 70 104 51 55 75 43 6 0 0 1 3
2 24 9 0 0 4 3 30 12 4 1 0 0 0 0 0 0 0 0 0 198 699 956 984 978 809 697 494 514 425 411 300 272 277 301 306 307 261 176 183 197 204 154 66 68 69 49 41 44
0 0 0 0 0 2 12 4 2 0 0 0 0 0 0 0 0 0 0 0 0 585 853 866 947 817 693 647 577 564 503 530 410 398 439 422 349 272 250 261 272 164 156 122 84 76 34 9 8
3 0 0 1 28 25 15 8 0 0 0 0 0 0 0 0 0 0 0 0 0 3 650 915 1032 920 814 804 797 713 734 736 703 637 630 563 521 475 393 356 336 223 248 184 213 204 101 15 36
5 0 9 11 26 5 28 2 0 0 0 0 0 0 0 0 0 0 0 0 0 0 0 592 1013 1019 968 974 901 775 692 750 788 742 774 683 526 393 411 359 285 275 280 260 277 182 118 18 25
14 32 73 26 14 0 31 0 0 0 0 0 0 0 1 0 0 0 0 0 0 0 0 0 237 886 1042 1015 989 939 700 765 719 609 630 263 51 7 5 23 47 113 55 31 18 5 1 8 8
3 0 7 0 12 28 16 0 0 0 0 0 2 0 0 0 0 0 0 0 0 0 0 0 0 78 369 769 956 856 761 470 39 2 15 0 0 0 0 0 0 0 0 0 0 0 0 0 0
11 6 13 17 24 3 0 0 0 0 0 0 0 0 0 0 0 0 0 0 0 0 0 0 0 0 0 45 184 348 349 55 0 0 0 0 0 0 0 0 0 0 0 0 0 0 0 0 0
34 9 0 0 0 0 0 0 0 0 0 0 0 0 0 0 0 0 0 0 0 0 0 0 0 0 0 0 0 0 0 0 0 0 0 0 0 0 0 0 0 0 0 0 0 0 0 0 0
19 0 0 0 0 0 0 0 0 0 0 0 0 0 0 0 0 0 0 0 0 0 0 0 0 0 0 0 0 0 0 0 0 0 0 0 0 0 0 0 0 0 0 0 0 0 0 1 1
4 12 0 0 0 0 0 0 0 0 0 0 0 0 0 0 0 0 0 0 0 0 0 0 0 0 0 0 0 0 0 0 0 0 0 0 0 0 0 0 0 0 0 0 0 0 0 0 0
9 0 0 0 0 0 0 0 0 0 0 0 0 0 0 0 0 0 0 0 0 0 0 0 0 0 0 0 0 0 0 0 0 0 0 0 0 0 0 0 0 0 0 0 0 0 0 0 1
0 0 1 1 0 1 0 0 0 0 0 0 0 0 0 0 0 0 0 0 0 0 0 0 0 0 0 0 0 0 0 0 0 0 0 0 0 0 0 0 0 0 0 0 0 0 0 0 0
0 0 1 0 0 0 0 0 0 0 0 0 0 0 0 0 0 0 0 0 0 0 0 0 0 0 0 0 0 0 0 0 0 0 0 0 0 0 0 0 0 0 0 0 0 0 0 0 0

GFSSGP_con_mlcape_069.txt.gz
CAPE
122 201 466 59 0 0 0 0 0 18 0 0 0 0 119 93 155 25 424 1043 801 454 888 1134 1048 827 559 419 278 264 36 41 247 4 4 0 0 9 7 2 32 23 3 4 4 2 0 0 0
373 570 251 3 0 0 0 0 0 0 8 0 0 0 29 140 165 225 1036 1065 631 538 802 1187 1018 784 621 549 452 267 23 60 78 22 4 0 0 4 6 4 2 10 6 3 6 3 0 0 0
295 586 0 2 0 0 0 0 0 4 0 0 0 0 6 219 439 388 1052 855 654 611 945 1168 951 808 722 660 450 48 0 5 278 127 1 0 0 1 3 5 4 8 3 4 3 0 0 0 0
243 288 47 0 0 0 0 0 0 15 0 0 0 0 101 447 587 545 1021 1085 652 761 1031 1181 975 835 759 579 268 0 0 0 407 264 50 0 0 0 1 1 3 3 4 4 0 0 0 0 0
183 88 4 0 0 0 0 0 0 13 0 0 30 44 5 301 620 451 953 999 796 1071 1073 1146 1025 901 693 565 132 1 0 0 364 551 137 0 0 0 1 1 3 4 4 1 0 0 0 0 0
130 83 1 0 0 0 0 0 0 0 0 0 50 200 234 388 245 526 404 1011 1115 1169 1097 1180 1054 844 664 416 48 0 0 0 169 612 182 25 0 0 0 0 1 1 0 0 0 0 0 0 0
104 37 0 0 0 0 1 4 0 0 0 8 31 190 484 297 105 422 660 967 1238 1089 1030 1193 1017 774 622 191 5 0 34 165 60 441 242 30 0 0 0 0 0 0 0 0 0 0 0 0 0
114 69 9 0 0 0 24 1 0 8 39 164 139 76 169 252 59 625 793 720 986 909 820 865 938 777 443 87 0 0 138 326 274 320 300 63 0 0 0 0 0 0 0 0 0 0 0 0 0
199 58 23 0 0 1 36 0 0 28 139 19 75 199 412 571 313 579 689 623 798 758 767 717 707 649 335 40 0 0 103 111 130 322 49 13 0 0 0 0 0 0 0 0 0 0 0 0 0
219 89 6 0 34 54 26 0 1 140 91 179 349 582 778 625 591 707 470 527 708 618 754 694 617 553 353 84 0 0 0 34 17 30 18 9 2 0 0 3 0 0 0 0 0 0 0 0 0
208 33 4 13 38 66 0 0 32 139 66 14 180 425 835 405 217 218 23 138 597 707 810 912 741 719 443 140 23 2 0 0 0 0 0 0 0 12 7 0 0 0 0 0 0 0 0 0 0
134 14 6 65 53 66 14 6 45 97 1 0 157 498 866 818 470 471 559 521 614 684 790 848 646 629 602 212 130 74 21 16 0 0 0 0 0 0 0 0 0 0 0 0 0 0 0 0 0
12 44 43 61 93 68 36 19 41 0 0 0 28 429 623 903 893 769 803 463 581 698 868 977 666 635 797 441 331 198 94 107 109 14 0 0 0 0 0 0 0 0 0 0 0 0 0 0 0
1 0 72 103 72 39 59 21 63 0 0 0 0 51 380 602 751 899 749 592 539 705 693 949 773 655 766 765 568 361 141 78 127 201 72 8 0 0 0 0 0 0 0 0 0 0 0 0 0
4 20 49 86 44 7 0 5 0 0 0 0 0 0 0 117 569 640 652 557 768 668 719 777 861 771 706 626 703 532 269 143 168 184 167 110 35 19 9 0 0 0 0 0 0 0 0 0 0
2 31 75 29 75 3 0 0 7 0 0 0 0 0 0 0 22 497 560 660 667 647 814 915 820 733 577 633 508 428 505 402 281 169 205 171 101 27 10 0 0 0 0 0 0 0 0 0 0
28 4 8 1 17 0 12 0 0 0 0 0 0 0 0 0 0 0 336 676 749 628 781 742 728 507 606 556 488 465 456 296 128 141 170 165 122 73 25 14 0 0 1 0 0 0 0 0 1
0 9 8 1 0 1 0 4 0 0 0 0 0 0 0 0 0 0 0 349 803 729 730 674 711 759 523 480 625 545 536 279 149 113 150 235 219 165 84 92 121 63 66 50 18 2 3 3 7
0 0 0 0 0 0 3 0 0 1 3 0 0 0 0 0 0 0 0 0 424 688 730 802 835 715 649 564 554 484 430 283 227 220 247 286 309 273 200 166 158 148 86 39 12 7 18 8 16
13 16 4 1 0 0 0 0 0 0 11 3 1 0 0 0 0 0 0 0 4 494 660 586 735 708 736 672 574 549 465 472 436 359 424 385 343 291 256 236 260 238 165 142 80 61 8 15 15
12 0 12 0 0 0 0 0 0 0 0 6 0 0 0 0 0 0 0 0 0 232 594 793 827 733 804 746 595 624 556 613 632 611 586 533 526 486 435 412 340 272 238 169 145 136 25 9 9
0 8 40 1 2 0 0 0 0 0 0 0 0 0 0 0 0 0 0 0 0 0 129 717 975 777 933 827 685 603 658 594 570 614 643 292 156 95 42 73 134 197 142 86 36 11 0 1 0
1 0 13 25 0 1 0 0 0 5 0 0 0 0 0 0 0 0 0 0 0 0 0 0 491 889 907 842 822 604 426 516 304 328 352 97 0 0 0 0 0 0 0 0 0 0 0 0 0
8 31 48 42 13 6 16 1 0 0 0 0 0 0 0 0 0 0 0 0 0 0 0 0 0 192 375 470 687 581 421 268 144 93 124 16 0 0 0 0 0 0 0 0 0 0 0 0 0
2 1 0 0 4 0 0 0 0 0 0 0 0 0 0 0 0 0 0 0 0 0 0 0 0 0 1 84 268 397 318 86 33 0 0 0 0 0 0 0 0 0 0 0 0 0 0 0 0
0 0 0 0 0 0 0 0 0 0 0 0 0 0 0 0 0 0 0 0 0 0 0 0 0 0 0 0 0 2 12 3 0 0 0 0 0 0 0 0 0 0 0 0 0 0 0 0 0
11 0 0 0 0 0 0 0 0 0 0 0 0 0 0 0 0 0 0 0 0 0 0 0 0 0 0 0 0 0 0 0 0 0 0 0 0 0 0 0 0 0 0 0 0 0 0 0 0
0 0 0 0 4 0 0 0 0 0 0 0 0 0 0 0 0 0 0 0 0 0 0 0 0 0 0 0 0 0 0 0 0 0 0 0 0 0 0 0 0 0 0 0 0 0 0 0 0
0 0 0 0 0 0 0 0 0 0 0 0 0 0 0 0 0 0 0 0 0 0 0 0 0 0 0 0 0 0 0 0 0 0 0 0 0 0 0 0 0 0 0 0 0 0 0 0 0
0 0 0 0 0 0 0 0 0 0 0 0 0 0 0 0 0 0 0 0 0 0 0 0 0 0 0 0 0 0 0 0 0 0 0 0 0 0 0 0 0 0 0 0 0 0 0 0 0

GFSSGP_con_mlcape_072.txt.gz
CAPE
440 245 302 194 0 0 0 0 0 0 11 0 0 16 53 51 26 1 351 680 471 892 1044 991 873 769 537 357 241 28 150 121 1 1 0 1 3 6 185 201 62 8 6 3 0 0 0 0 0
596 461 456 10 0 0 0 0 0 0 0 0 0 54 77 69 130 644 847 790 490 952 1042 1031 897 677 517 448 350 24 316 40 6 1 0 3 3 2 3 85 14 7 3 1 0 0 0 0 0
310 433 71 15 0 0 0 0 0 0 6 15 0 7 153 289 497 559 849 750 615 898 1072 1111 799 644 608 542 334 38 344 68 30 0 0 1 7 5 6 2 4 0 0 1 0 0 0 0 0
190 186 100 1 0 0 0 0 0 0 0 0 0 0 35 216 398 534 893 649 523 831 1113 946 768 700 626 491 104 10 489 254 99 0 0 1 2 4 6 5 0 0 2 1 0 0 0 0 0
283 156 31 1 0 0 0 0 0 0 0 0 1 0 0 0 37 619 856 467 379 788 1078 923 802 750 563 268 33 3 256 565 280 12 0 0 2 2 4 5 3 3 3 0 0 0 0 0 0
113 148 63 0 0 0 0 0 0 0 0 30 0 65 30 0 13 387 707 408 622 800 1085 906 789 675 533 123 18 3 1 737 475 77 0 0 1 2 3 4 4 5 2 1 0 0 0 0 0
144 60 35 1 0 0 0 0 0 0 0 24 90 76 109 66 2 410 595 673 824 993 995 985 812 688 418 47 0 0 0 447 728 161 11 0 0 0 0 2 2 2 0 0 0 0 0 0 0
152 82 2 7 0 0 0 0 0 0 124 119 242 126 20 53 226 209 784 814 906 816 888 891 788 627 244 0 0 1 41 226 592 248 22 0 0 0 0 0 0 0 0 0 0 0 0 0 0
211 139 4 6 0 0 1 0 6 56 233 259 245 340 220 166 286 119 509 617 764 954 880 889 697 526 121 0 0 182 257 152 289 379 13 0 0 0 0 0 0 0 0 0 0 0 0 0 0
269 157 5 0 16 0 25 0 27 132 246 384 521 587 313 210 431 310 169 327 463 714 834 810 632 417 103 0 0 136 181 152 270 226 29 0 0 0 0 0 0 0 0 0 0 0 0 0 0
139 135 9 22 37 66 108 16 31 94 99 255 410 485 301 253 470 347 345 229 309 408 595 758 579 448 128 25 0 0 73 83 187 136 24 7 0 0 4 0 0 0 0 0 0 0 0 0 0
55 32 48 113 86 118 86 3 164 108 50 120 615 844 455 437 673 545 486 164 41 22 375 544 654 472 271 61 10 0 0 0 0 21 10 0 0 0 0 0 0 0 0 0 0 0 0 0 0
1 11 75 105 178 180 138 56 48 8 44 300 542 755 521 736 880 606 367 177 135 162 422 466 603 606 388 148 66 41 13 0 0 0 0 0 0 0 0 0 0 0 0 0 0 0 0 0 0
0 0 37 120 136 103 63 41 14 0 0 225 346 478 735 499 653 568 347 291 646 432 469 474 526 615 526 330 190 170 105 97 88 12 0 0 0 0 0 0 0 0 0 0 0 0 0 0 0
27 0 26 45 106 72 49 14 6 0 0 0 79 175 587 645 762 662 700 519 590 676 653 728 712 513 622 643 471 346 208 114 112 168 49 0 0 0 0 0 0 0 0 0 0 0 0 0 0
18 20 20 13 90 35 2 4 0 0 0 0 0 1 56 520 755 773 594 646 657 648 581 614 637 469 752 847 729 528 368 164 141 144 173 50 52 30 22 1 0 0 0 0 0 0 0 0 0
26 11 2 18 95 17 4 3 2 0 0 0 0 0 0 4 374 490 580 691 691 654 654 699 748 638 721 846 714 601 489 350 259 258 242 156 118 55 34 16 1 0 0 0 0 0 0 0 0
6 4 11 2 15 4 3 0 0 0 0 0 0 0 0 0 0 115 388 526 669 790 878 858 665 630 769 695 677 505 403 468 250 174 242 207 182 106 52 40 30 10 10 21 13 1 3 0 5
1 0 6 0 1 1 3 0 0 0 0 0 0 0 0 0 0 0 0 413 651 648 709 642 639 753 642 534 464 524 463 442 256 139 170 233 198 178 145 100 90 129 130 93 49 29 25 15 8
7 3 20 11 3 3 7 0 0 0 0 0 0 0 0 0 0 0 0 0 351 492 694 693 628 678 728 597 475 470 472 412 347 213 212 235 309 286 258 202 183 190 193 131 116 102 81 41 12
9 0 15 11 27 12 0 0 0 0 0 0 0 0 0 0 0 0 0 0 0 387 491 558 605 772 733 649 489 510 453 407 349 305 297 399 374 392 347 277 267 310 341 221 203 125 82 28 7
0 6 0 0 1 4 2 0 0 0 0 0 0 0 0 0 0 0 0 0 0 12 514 600 604 597 646 555 631 614 516 454 494 383 364 393 379 398 431 438 378 339 273 238 126 34 22 4 9
0 6 0 0 0 0 0 0 0 0 0 0 0 0 0 0 0 0 0 0 0 0 125 490 528 530 691 796 551 468 482 364 307 313 270 185 91 0 0 8 43 55 24 3 0 0 0 0 0
0 20 24 15 0 1 0 0 0 0 0 0 0 0 0 0 0 0 0 0 0 0 0 0 166 374 602 711 502 388 278 311 165 159 230 81 0 0 0 0 0 0 0 0 0 0 0 0 0
3 3 3 5 0 0 0 1 0 0 0 0 0 0 0 0 0 0 0 0 0 0 0 0 0 6 204 450 469 566 350 203 121 49 42 1 0 0 0 0 0 0 0 0 0 0 0 0 0
2 0 0 0 0 0 0 0 0 0 0 0 0 0 0 0 0 0 0 0 0 0 0 0 0 0 0 6 109 173 247 147 30 3 4 0 3 3 0 0 0 0 0 0 0 0 0 0 0
0 0 0 0 0 0 0 0 0 0 0 0 0 0 0 0 0 0 0 0 0 0 0 0 0 0 0 0 0 0 4 76 12 0 0 0 0 0 0 0 0 0 0 0 0 0 0 0 0
0 0 0 0 0 0 0 0 0 0 0 0 0 0 0 0 0 0 0 0 0 0 0 0 0 0 0 0 0 0 0 0 0 0 0 0 0 0 0 0 0 0 0 0 0 0 0 0 0
0 0 0 0 0 0 0 0 0 0 0 0 0 0 0 0 0 0 0 0 0 0 0 0 0 0 0 0 0 0 0 0 0 0 0 0 0 0 0 0 0 0 0 0 0 0 0 0 0
0 0 0 0 0 0 0 0 0 0 0 0 0 0 0 0 0 0 0 0 0 0 0 0 0 0 0 0 0 0 0 0 0 0 0 0 0 0 0 0 0 0 0 0 0 0 0 0 0

GFSSGP_con_mlcape_075.txt.gz
CAPE
396 439 316 339 0 0 0 0 0 0 0 2 0 12 33 98 2 0 118 361 447 612 810 847 841 713 478 428 167 0 174 14 0 0 0 34 250 263 223 98 10 4 1 0 4 8 6 6 11
513 416 347 85 1 0 0 0 0 0 0 0 44 122 98 64 303 531 569 577 570 776 945 815 719 630 499 328 83 100 160 0 0 0 0 2 117 274 210 75 3 1 1 0 0 0 0 0 0
251 502 140 27 4 0 0 0 0 0 8 1 1 16 106 279 476 632 766 692 882 800 932 794 693 599 519 333 60 353 53 1 0 0 5 1 1 169 100 12 0 2 1 0 0 0 0 0 0
182 318 198 15 0 0 0 0 0 0 66 0 0 3 116 23 268 444 902 804 802 640 869 844 614 519 472 310 245 255 108 3 0 1 7 7 1 4 3 4 0 2 0 0 0 0 0 0 0
328 181 118 45 0 0 0 0 0 0 0 24 25 0 11 18 525 902 838 725 556 564 818 671 550 644 500 212 101 403 276 26 0 1 2 7 8 4 6 1 0 1 0 0 0 0 0 0 0
165 161 84 31 0 0 0 0 0 0 0 0 5 0 0 17 0 424 660 555 635 792 765 717 611 647 408 40 6 374 422 200 1 1 3 4 7 7 3 3 2 2 0 0 0 0 0 0 0
117 114 106 17 0 0 0 0 0 0 0 0 0 0 75 1 0 11 424 376 498 777 717 741 640 575 257 3 0 36 564 434 29 0 0 1 1 4 6 2 5 4 1 0 0 0 0 0 0
136 212 109 39 0 0 0 0 0 0 0 187 167 37 4 0 0 4 363 236 390 325 564 759 662 523 166 0 0 0 414 621 108 0 0 0 0 0 0 0 0 11 0 0 0 0 0 0 0
174 199 79 43 3 0 0 0 0 13 91 206 159 132 113 20 0 1 0 166 176 290 411 744 648 423 93 0 0 0 152 634 262 28 0 0 0 0 0 0 0 0 0 0 0 0 0 0 0
9 29 3 0 0 0 15 9 0 166 403 326 332 648 284 39 18 8 1 0 262 357 659 900 640 351 111 0 6 84 63 330 455 44 0 0 0 0 0 0 0 0 0 0 0 0 0 0 0
10 3 0 31 9 44 126 99 60 132 180 401 397 353 250 197 182 111 9 17 237 325 795 992 655 366 127 0 29 169 183 122 328 115 11 0 0 0 0 0 0 0 0 0 0 0 0 0 0
18 0 65 64 57 173 123 133 106 146 108 317 588 507 341 512 295 216 323 219 37 45 171 388 520 413 161 21 0 135 149 162 248 167 25 0 0 0 0 0 0 0 0 0 0 0 0 0 0
11 0 22 135 188 232 226 151 74 101 96 407 1015 616 339 391 450 432 400 237 94 19 1 31 217 362 232 82 9 0 38 112 173 123 58 9 0 0 7 0 0 0 0 0 0 0 0 0 0
14 0 2 116 114 184 113 96 46 95 119 512 822 487 546 678 673 365 264 187 175 103 66 84 279 363 320 104 111 61 3 0 11 31 32 13 0 0 0 0 0 0 0 0 0 0 0 0 0
0 14 0 3 55 96 99 41 41 1 6 308 508 505 450 612 499 367 406 332 176 146 96 80 289 384 347 168 115 163 156 99 42 29 0 0 0 0 0 0 0 0 0 0 0 0 0 0 0
14 17 2 0 18 44 77 11 10 0 0 52 216 364 492 523 544 448 571 415 271 328 330 328 307 422 257 342 180 215 223 177 173 173 131 28 0 0 0 0 0 0 0 0 0 0 0 0 0
13 1 0 9 60 48 40 0 24 0 0 0 5 10 100 263 517 529 468 438 448 448 437 523 521 387 271 292 462 440 308 225 149 156 184 164 52 3 9 18 8 0 0 0 0 0 0 0 0
0 1 0 0 23 3 23 8 0 0 0 0 0 0 0 1 217 271 446 550 717 605 535 560 574 570 447 350 565 462 466 429 278 215 222 203 165 51 61 45 36 14 9 2 0 0 0 1 3
0 0 0 1 32 4 15 0 0 0 0 0 0 0 0 0 0 0 139 478 550 564 476 580 477 474 339 400 454 412 439 475 405 348 281 230 205 142 121 100 60 32 38 49 67 65 45 40 25
5 10 8 0 5 15 0 2 4 0 0 0 0 0 0 0 0 0 0 0 381 440 490 555 475 520 533 526 534 516 429 245 316 286 172 217 226 196 171 132 121 104 157 185 125 88 101 99 75
10 0 9 0 0 3 4 1 2 2 3 0 0 0 0 0 0 0 0 0 0 263 453 532 542 648 634 406 406 387 270 276 368 327 226 165 239 258 221 184 220 224 238 278 179 162 117 101 47
1 9 30 18 0 1 0 0 0 0 0 0 0 0 0 0 0 0 0 0 0 0 219 495 511 532 486 457 490 501 275 303 260 331 271 197 235 242 309 278 256 271 324 344 273 209 140 74 49
0 3 0 4 0 0 2 0 0 0 0 0 0 0 0 0 0 0 0 0 0 0 0 252 456 504 538 505 501 423 390 388 232 114 111 56 64 110 152 138 127 99 45 48 53 89 65 35 54
0 17 6 7 0 0 0 0 0 0 0 0 0 0 0 0 0 0 0 0 0 0 0 0 274 377 526 607 493 374 291 190 166 96 74 31 13 0 0 1 3 0 0 0 2 0 0 0 0
2 0 0 0 0 0 0 0 0 0 0 0 0 0 0 0 0 0 0 0 0 0 0 0 0 146 295 373 402 371 304 213 237 155 113 46 17 1 0 0 0 0 0 0 0 0 0 0 0
0 0 0 0 0 0 0 0 0 0 0 0 0 0 0 0 0 0 0 0 0 0 0 0 0 0 0 7 152 218 250 237 252 184 73 73 0 0 0 0 0 0 0 0 0 0 0 0 0
0 0 0 0 0 0 0 0 0 0 0 0 0 0 0 0 0 0 0 0 0 0 0 0 0 0 0 0 0 1 57 95 69 20 0 0 0 0 0 0 0 0 0 0 0 0 0 0 0
0 0 0 0 0 0 0 0 0 0 0 0 0 0 0 0 0 0 0 0 0 0 0 0 0 0 0 0 0 0 0 0 0 0 0 0 0 0 0 0 0 0 0 0 0 0 0 0 0
0 0 0 0 0 0 0 0 0 0 0 0 0 0 0 0 0 0 0 0 0 0 0 0 0 0 0 0 0 0 0 0 0 0 0 0 0 0 0 0 0 0 0 0 0 0 0 0 0
0 0 0 0 0 0 0 0 0 0 0 0 0 0 0 0 0 0 0 0 0 0 0 0 0 0 0 0 0 0 0 0 0 0 0 0 0 0 0 0 0 0 0 0 0 0 0 0 0

GFSSGP_con_mlcape_078.txt.gz
CAPE
102 220 180 200 1 0 0 0 0 0 0 0 0 16 38 67 3 0 54 194 380 542 643 716 736 549 342 361 63 18 137 0 0 91 332 396 372 324 143 24 3 2 2 4 10 11 8 6 2
204 277 181 46 0 0 0 0 0 0 0 1 0 1 71 61 305 331 368 508 582 615 698 741 590 571 534 270 1 256 24 0 0 0 223 350 376 340 54 3 2 1 3 7 4 8 0 0 0
112 277 76 66 18 0 0 0 0 0 0 5 0 0 0 79 351 413 544 673 756 643 779 716 560 509 389 92 147 252 2 0 0 0 8 212 329 292 95 4 3 1 1 4 4 0 0 10 85
85 128 88 75 15 0 0 0 0 0 0 0 0 0 21 62 326 425 827 752 612 712 744 648 551 485 343 83 294 217 3 0 1 0 0 46 315 297 8 3 4 2 1 1 0 0 0 15 87
159 58 62 32 24 0 0 0 0 0 0 0 0 0 1 321 744 833 947 831 517 633 643 540 469 593 398 96 382 126 12 1 1 9 1 0 3 3 1 2 3 3 1 0 0 0 0 0 12
65 78 54 38 22 0 0 0 0 0 0 7 0 0 7 66 602 834 945 719 613 501 536 445 316 507 382 59 386 167 30 1 2 4 7 5 5 4 3 1 3 1 1 0 0 0 0 0 0
18 63 2 27 2 8 0 0 0 0 0 0 0 0 72 10 153 287 565 446 367 424 480 363 380 498 154 0 190 314 214 0 0 3 6 9 5 0 3 1 2 1 0 0 0 0 0 0 0
32 73 24 77 37 2 0 0 0 0 0 20 56 4 0 0 67 198 244 174 268 270 342 408 386 365 12 0 0 336 273 60 0 0 2 2 3 3 0 0 0 24 0 0 0 0 0 0 0
71 9 0 2 39 3 1 0 0 32 10 111 209 110 68 49 144 86 68 1 10 147 238 404 423 257 26 0 0 30 521 174 4 0 0 0 0 1 1 0 1 0 0 0 0 0 0 0 0
26 7 0 0 0 20 45 19 8 2 102 224 358 608 162 144 35 0 0 0 2 39 199 389 452 232 67 0 0 0 298 395 76 5 0 0 0 0 0 0 0 0 0 0 0 0 0 0 0
11 0 0 0 0 92 121 145 93 25 20 271 140 400 143 84 0 0 0 0 0 3 305 423 580 284 81 0 0 0 55 342 196 25 0 0 0 0 0 0 0 0 0 0 0 0 0 0 0
3 0 0 0 2 85 48 123 218 121 8 152 413 526 226 93 0 0 0 0 0 74 97 164 458 328 155 0 1 43 19 117 269 86 15 0 0 0 0 0 0 0 0 0 0 0 0 0 0
1 0 0 0 0 89 61 59 208 66 21 167 662 766 287 214 30 0 0 0 44 18 1 0 0 255 254 34 8 134 151 106 144 193 65 10 0 0 0 0 0 0 0 0 0 0 0 0 0
5 0 0 1 6 26 164 60 119 22 12 266 566 655 381 384 199 224 9 54 26 13 4 0 0 124 236 155 3 70 152 157 165 233 153 55 17 14 5 2 0 0 0 0 0 0 0 0 0
0 0 15 0 0 41 110 79 8 11 1 160 464 472 429 620 589 477 231 65 0 0 0 0 6 21 123 182 60 1 5 89 138 185 164 104 20 1 0 0 0 0 0 0 0 0 0 0 0
12 1 1 0 0 98 91 0 29 12 3 52 29 140 312 574 776 348 213 155 71 0 29 57 17 51 296 182 126 108 74 6 9 31 38 30 6 0 0 0 0 0 0 0 0 0 0 0 0
0 4 0 20 0 38 16 4 63 1 0 0 0 0 6 97 214 264 277 236 195 141 78 186 227 319 148 260 60 75 171 138 57 27 39 28 3 0 0 0 0 0 0 0 0 0 0 0 0
0 1 8 0 0 33 93 5 73 1 1 0 0 0 0 0 17 230 297 167 310 379 206 151 188 198 250 255 189 199 109 162 147 102 119 136 86 23 0 0 7 0 0 0 0 0 0 1 14
0 0 0 21 0 36 16 1 0 23 4 0 0 0 0 0 0 13 227 345 312 321 211 318 285 154 166 126 61 94 130 147 186 169 118 159 179 126 36 11 15 4 4 12 6 17 37 49 35
0 2 14 15 15 53 2 7 11 14 0 0 0 0 0 0 0 0 0 73 298 417 314 398 339 248 193 148 41 41 153 169 238 197 164 127 188 188 121 69 64 32 31 34 44 84 98 69 73
5 0 5 1 2 0 0 0 1 0 0 0 0 0 0 0 0 0 0 0 0 209 452 562 433 359 294 306 205 94 130 138 123 194 165 106 126 159 139 130 77 54 76 156 149 163 129 144 30
5 30 27 3 0 0 0 0 0 0 0 0 0 0 0 0 0 0 0 0 0 0 19 438 489 485 350 338 274 102 126 103 109 123 128 70 49 71 68 75 72 84 167 249 170 164 169 150 100
17 23 14 2 0 0 0 0 0 0 0 0 0 0 0 0 0 0 0 0 0 0 0 20 396 427 415 322 305 188 179 158 106 97 144 76 57 22 19 12 49 76 46 35 75 31 27 0 0
2 12 12 0 0 0 0 0 0 0 0 0 0 0 0 0 0 0 0 0 0 0 0 0 25 314 437 331 297 319 249 172 143 103 93 94 80 30 14 29 30 5 0 0 0 0 0 0 0
27 1 0 0 0 0 0 0 0 0 0 0 0 0 0 0 0 0 0 0 0 0 0 0 0 0 99 265 338 290 269 266 215 178 100 73 39 15 6 3 7 4 0 0 0 0 0 0 0
10 0 0 0 0 0 0 0 0 0 0 0 0 0 0 0 0 0 0 0 0 0 0 0 0 0 0 0 1 67 197 227 233 184 123 43 49 13 0 0 0 0 0 0 0 0 0 0 0
0 0 0 0 0 0 0 0 0 0 0 0 0 0 0 0 0 0 0 0 0 0 0 0 0 0 0 0 0 0 0 6 69 52 22 20 1 3 0 0 0 0 0 0 0 0 0 0 0
0 0 0 0 0 0 0 0 0 0 0 0 0 0 0 0 0 0 0 0 0 0 0 0 0 0 0 0 0 0 0 0 0 0 0 0 0 0 0 0 0 0 0 0 0 0 0 0 0
0 0 0 0 0 0 0 0 0 0 0 0 0 0 0 0 0 0 0 0 0 0 0 0 0 0 0 0 0 0 0 0 0 0 0 0 0 0 0 0 0 0 0 0 0 0 0 0 0
0 0 0 0 0 0 0 0 0 0 0 0 0 0 0 0 0 0 0 0 0 0 0 0 0 0 0 0 0 0 0 0 0 0 0 0 0 0 0 0 0 0 0 0 0 0 0 0 0

GFSSGP_con_mlcape_081.txt.gz
CAPE
21 41 61 47 0 0 0 0 0 0 0 4 1 37 14 43 1 0 107 108 317 461 660 715 676 343 72 135 85 92 0 36 352 516 625 651 582 348 40 4 3 1 5 7 7 2 9 4 2
53 112 33 3 0 0 0 0 0 0 3 29 37 0 0 16 180 297 270 359 505 604 776 699 563 351 270 178 83 222 0 0 223 448 528 577 354 161 18 4 3 3 8 6 2 6 2 0 34
0 89 8 14 0 0 0 0 0 0 18 106 126 7 0 42 333 327 419 639 618 739 807 742 480 502 427 20 229 153 0 0 19 299 278 458 343 122 7 3 3 7 5 6 4 0 37 96 81
1 49 15 0 0 0 0 0 0 0 0 139 139 50 1 41 24 445 610 635 664 685 828 638 444 516 165 9 405 50 0 0 0 92 94 277 321 97 5 4 3 4 4 5 0 0 117 77 71
30 0 1 2 0 0 0 0 0 0 0 75 127 61 19 272 277 279 728 763 636 627 787 646 411 467 144 264 267 8 0 0 0 0 163 251 357 83 4 3 2 2 13 2 0 0 19 78 61
17 0 0 1 0 0 0 0 0 0 1 40 92 39 37 470 173 212 576 852 784 607 736 561 342 477 149 334 245 16 0 0 7 1 0 95 33 2 4 5 2 2 36 7 0 0 0 0 30
2 0 0 0 0 0 0 17 4 0 0 0 82 13 42 153 221 2 0 555 575 483 546 496 281 350 202 391 173 71 0 0 0 7 0 0 3 5 8 7 4 4 30 23 4 0 0 0 0
9 13 0 0 0 0 0 34 10 0 0 0 14 55 26 44 644 140 60 3 304 305 379 370 232 466 180 296 234 223 5 0 0 4 4 3 2 8 9 6 5 4 0 0 0 0 0 0 0
31 0 0 0 0 0 0 17 7 0 0 82 257 43 150 344 382 118 28 54 0 78 220 204 237 297 40 0 360 307 131 0 0 0 4 5 2 7 4 2 12 30 0 0 0 0 0 0 0
18 1 0 0 0 0 15 45 33 7 2 55 300 432 350 467 160 0 32 42 23 3 9 123 205 207 7 0 14 377 329 23 0 0 0 0 1 1 0 0 0 0 0 0 0 0 0 0 0
0 0 0 0 0 0 68 130 85 134 0 0 82 297 461 393 154 46 15 0 30 4 0 79 168 195 69 0 0 63 459 189 13 0 0 0 0 0 0 0 0 0 0 0 0 0 0 0 0
1 0 0 0 0 0 0 63 149 214 89 0 0 286 458 356 150 101 77 11 5 0 0 80 33 110 117 0 0 0 294 352 99 13 0 0 0 0 0 0 0 0 0 0 0 0 0 0 0
0 0 0 0 1 0 0 1 28 39 112 98 7 409 375 185 120 44 7 0 0 0 0 16 0 0 104 6 0 0 29 327 258 84 21 0 0 0 0 0 0 0 0 0 0 0 0 0 0
0 0 0 0 0 0 0 0 95 34 35 67 8 22 415 142 59 3 0 0 0 10 0 21 0 0 111 78 1 26 42 92 249 208 116 44 22 4 0 0 0 0 0 0 0 0 0 0 0
2 0 0 0 0 0 2 3 0 81 5 49 57 6 261 293 45 2 0 0 16 7 1 0 5 0 185 178 44 95 190 155 124 201 204 127 57 29 20 16 11 0 0 0 0 0 0 0 0
1 1 0 0 0 0 1 0 0 42 14 3 15 4 185 342 185 170 80 103 24 1 0 0 0 0 63 140 128 39 100 137 175 168 201 193 115 40 28 8 15 0 0 0 0 0 0 0 0
6 0 0 0 3 0 1 1 0 119 17 1 0 0 0 191 476 427 145 89 14 0 0 0 0 0 89 128 107 98 51 69 41 79 112 141 122 60 18 4 7 0 0 0 0 0 0 0 0
0 0 0 0 0 0 5 12 210 70 4 0 0 0 0 0 66 121 167 121 17 19 4 0 0 2 172 207 78 135 188 156 116 48 11 9 9 2 0 0 0 0 0 0 0 0 0 0 6
1 0 0 17 0 0 0 58 9 0 29 0 0 0 0 0 0 0 3 80 144 110 72 57 67 96 82 120 104 147 107 144 170 140 100 69 57 11 0 1 0 0 7 0 0 0 0 10 15
2 0 0 19 0 8 10 3 0 6 16 7 0 0 0 0 0 0 7 0 72 88 110 71 103 70 84 82 56 40 54 39 125 177 146 120 108 89 39 17 5 1 28 23 22 23 58 56 54
0 0 0 11 23 21 17 6 0 0 0 4 0 0 0 0 0 0 0 11 39 101 119 121 189 161 135 115 103 53 31 29 55 82 95 80 104 101 49 29 29 6 33 56 68 70 121 127 74
2 0 0 5 5 7 1 2 2 0 0 0 0 0 0 0 0 0 0 0 2 31 157 62 153 222 240 119 123 76 59 37 43 102 78 64 46 50 35 30 28 15 18 16 66 109 117 79 89
7 0 16 0 11 4 0 0 0 0 0 0 0 0 0 0 0 0 0 0 0 0 0 0 154 227 236 257 215 98 66 0 33 36 47 94 44 56 77 76 40 9 10 2 0 5 9 25 41
4 7 1 0 0 1 0 0 0 0 0 0 0 0 0 0 0 0 0 0 0 0 0 0 1 212 307 248 199 181 133 31 51 73 80 41 31 24 13 45 29 1 8 7 0 0 0 0 0
11 1 0 0 0 0 0 0 0 0 0 0 0 0 0 0 0 0 0 0 0 0 0 0 0 0 40 242 245 301 215 156 100 86 105 61 42 27 13 32 33 6 0 0 0 0 0 0 0
3 0 0 0 0 0 0 0 0 0 0 0 0 0 0 0 0 0 0 0 0 0 0 0 0 0 0 0 0 8 89 201 197 149 98 75 74 61 30 16 2 2 4 0 0 0 0 0 0
0 0 0 0 0 0 0 0 0 0 0 0 0 0 0 0 0 0 0 0 0 0 0 0 0 0 0 0 0 0 0 0 0 42 82 82 20 6 0 0 0 0 0 0 0 0 0 0 0
0 0 0 0 0 0 0 0 0 0 0 0 0 0 0 0 0 0 0 0 0 0 0 0 0 0 0 0 0 0 0 0 0 0 0 0 0 0 0 0 0 0 0 0 0 0 0 0 0
0 0 0 0 0 0 0 0 0 0 0 0 0 0 0 0 0 0 0 0 0 0 0 0 0 0 0 0 0 0 0 0 0 0 0 0 0 0 0 0 0 0 0 0 0 0 0 0 0
0 0 0 0 0 0 0 0 0 0 0 0 0 0 0 0 0 0 0 0 0 0 0 0 0 0 0 0 0 0 0 0 0 0 0 0 0 0 0 0 0 0 0 0 0 0 0 0 0

GFSSGP_con_mlcape_084.txt.gz
CAPE
3 7 54 5 0 0 0 0 1 0 0 45 16 45 77 166 9 74 428 273 382 430 590 670 616 434 331 186 91 280 251 170 390 508 605 697 608 456 87 21 10 3 4 11 16 118 17 4 6
33 53 55 55 0 0 0 0 6 0 0 48 171 206 170 57 357 556 647 265 418 520 550 600 541 343 270 158 140 41 83 256 438 387 513 605 488 168 16 16 4 7 9 13 5 8 8 5 2
17 82 28 21 6 0 0 7 8 0 0 128 181 228 190 176 551 614 743 599 520 557 512 540 444 342 308 104 427 0 0 209 474 406 433 442 295 63 17 4 5 11 11 4 7 1 0 6 30
19 65 43 9 0 0 0 11 32 0 0 0 248 247 246 373 341 784 741 764 632 606 599 673 477 434 375 62 386 28 0 12 260 182 306 278 293 45 5 4 7 7 10 8 5 74 91 74 27
20 27 0 4 0 0 20 32 33 0 0 0 145 288 306 363 747 737 675 809 633 541 602 650 352 539 131 284 239 0 0 0 80 107 182 330 173 3 8 6 8 9 9 5 30 125 70 48 28
15 11 0 0 0 1 21 39 2 0 0 0 7 122 290 533 701 946 872 885 605 566 586 544 322 457 33 587 149 0 0 0 9 90 115 325 206 5 7 6 10 42 6 3 0 13 58 71 24
6 2 0 0 0 0 13 4 0 0 2 6 53 43 156 798 940 957 799 347 334 608 571 518 452 146 283 517 107 0 0 0 0 2 97 154 6 5 2 1 5 41 20 0 0 0 0 1 4
7 11 1 0 0 0 3 0 0 28 14 18 10 115 118 402 626 357 66 40 3 218 652 587 442 237 109 306 126 0 0 0 0 0 0 0 0 2 2 1 4 51 49 24 0 0 0 0 0
14 15 0 0 0 0 0 0 0 0 20 62 54 66 90 467 726 275 78 87 33 27 3 559 481 346 118 253 261 8 0 0 0 0 0 0 4 3 3 1 3 14 27 13 7 0 0 0 0
17 0 0 0 0 0 0 0 0 15 4 41 71 245 542 925 695 539 198 62 37 9 0 40 395 418 164 154 428 315 10 1 0 3 7 8 0 2 0 3 5 24 0 0 0 0 0 0 0
4 3 0 0 0 0 1 0 1 33 19 39 119 78 381 593 583 545 141 1 0 0 0 0 115 248 131 0 435 326 316 14 3 0 4 8 7 6 2 2 2 0 0 0 0 0 0 0 0
0 0 0 0 9 2 0 19 11 32 7 90 136 98 421 526 426 337 141 0 0 0 0 32 65 221 109 51 61 522 450 233 69 0 0 0 0 2 0 0 0 0 0 0 0 0 0 0 0
0 0 0 0 1 0 0 0 1 5 24 166 112 64 61 181 242 277 246 40 9 16 0 4 27 64 241 191 0 145 511 435 228 53 0 0 0 0 0 0 0 0 0 0 0 0 0 0 0
0 0 0 1 0 0 0 0 6 0 3 92 156 113 5 0 276 369 390 147 136 51 1 0 1 0 60 233 119 0 192 534 473 171 63 13 6 0 0 0 0 0 0 0 0 0 0 0 0
2 0 0 0 0 2 0 0 0 0 3 164 149 124 102 0 238 236 171 115 55 24 0 0 12 26 44 243 233 39 25 227 509 468 281 116 97 44 16 1 29 23 4 0 0 0 0 0 0
2 0 0 0 0 0 1 0 0 0 0 37 51 60 140 107 304 171 38 21 53 24 37 46 13 9 51 401 236 145 141 111 154 418 464 314 204 137 108 87 92 65 9 0 0 0 0 0 0
5 0 0 0 0 0 2 0 0 0 8 40 78 63 66 137 417 218 69 35 50 51 79 24 21 1 49 384 288 194 203 286 312 287 320 389 402 268 141 67 73 88 11 4 0 0 0 0 0
5 0 1 0 6 7 21 0 0 155 173 190 174 75 24 82 237 384 176 193 154 69 28 1 0 4 58 273 283 232 129 127 185 211 334 365 412 369 255 60 70 74 30 1 3 0 0 0 0
6 3 1 4 25 18 35 0 0 207 232 144 123 59 0 0 2 72 2 12 110 49 46 24 0 23 114 240 261 236 258 304 277 257 234 200 167 162 134 36 63 41 34 35 10 0 0 0 36
1 2 0 1 29 14 46 1 13 115 51 6 31 35 3 0 1 11 1 0 0 34 67 40 15 27 2 63 173 150 177 169 160 303 366 332 265 182 130 76 67 47 24 129 34 3 21 32 97
1 0 0 3 35 101 48 9 52 47 3 0 0 2 17 0 0 0 5 0 0 10 61 21 47 18 16 57 81 67 51 72 96 148 201 322 305 200 223 187 109 52 3 129 141 91 93 134 92
0 0 3 1 0 1 33 5 7 36 0 0 0 0 0 2 0 0 0 1 3 0 22 0 14 75 53 61 65 66 2 2 38 38 42 195 179 151 151 80 42 60 5 17 26 31 71 125 58
10 0 1 0 42 11 6 4 7 7 0 0 0 0 0 26 0 0 0 0 0 0 28 22 25 53 71 62 111 44 15 29 51 22 2 97 23 61 64 64 38 19 64 25 12 2 5 21 14
19 24 4 4 2 1 0 6 7 0 0 0 1 8 18 0 0 0 0 0 0 0 0 0 0 68 159 96 87 78 10 50 50 13 23 13 16 25 48 46 63 49 43 22 11 0 0 0 0
6 19 0 4 8 2 0 3 3 0 0 0 0 0 0 0 0 0 0 0 0 0 0 0 0 22 170 224 167 152 188 197 97 59 78 78 31 54 17 44 42 61 25 11 2 0 0 0 0
7 1 2 1 0 0 0 0 0 0 0 0 0 0 0 0 0 0 0 0 0 0 0 0 0 0 0 1 28 128 297 254 171 159 189 185 103 94 85 73 52 46 33 14 0 0 0 0 0
0 0 0 0 0 0 0 0 0 0 0 0 0 0 0 0 0 0 0 0 0 0 0 0 0 0 0 0 0 0 0 91 195 236 249 201 167 144 99 45 90 35 5 1 0 0 0 0 0
0 0 0 0 0 0 0 0 0 0 0 0 0 0 0 0 0 0 0 0 0 0 0 0 0 0 0 0 0 0 0 0 0 0 25 105 135 58 39 14 17 2 1 0 0 0 0 0 0
0 0 0 0 0 1 0 0 0 0 0 0 0 0 0 0 0 0 0 0 0 0 0 0 0 0 0 0 0 0 0 0 0 0 0 0 0 3 4 2 0 0 0 0 0 0 0 0 0
0 0 0 0 0 0 0 0 0 0 0 0 0 0 0 0 0 0 0 0 0 0 0 0 0 0 0 0 0 0 0 0 0 0 0 0 0 0 0 0 0 0 0 0 0 0 0 0 0

GFSSGP_con_mlcape_087.txt.gz
CAPE
0 23 41 39 0 0 0 0 0 0 0 0 8 23 55 102 190 185 569 341 366 385 837 680 749 465 369 231 187 332 58 260 656 600 718 736 787 689 396 90 11 2 59 275 115 9 7 4 6
15 27 31 25 0 0 0 0 0 0 0 0 0 40 81 147 391 753 769 522 457 579 888 778 724 523 396 249 278 411 250 177 583 551 602 610 771 434 213 57 7 5 22 135 34 10 2 6 3
0 21 30 7 13 0 0 0 0 0 0 6 14 94 136 166 451 688 826 608 567 677 936 824 613 532 436 301 154 233 366 347 400 457 485 583 585 255 71 30 19 11 12 9 11 11 9 6 0
1 26 56 12 0 0 0 0 0 1 1 8 32 110 149 568 583 727 840 735 674 627 592 795 497 488 362 347 41 45 195 478 513 352 241 354 336 161 32 11 6 8 3 8 0 5 28 22 0
9 30 0 0 0 0 0 0 0 3 0 1 3 59 191 537 859 844 851 755 660 668 612 902 442 505 402 341 315 0 7 373 411 385 442 280 159 38 21 15 9 6 7 14 118 144 84 2 0
16 5 0 0 0 0 0 0 0 0 3 0 11 34 155 524 894 869 899 723 604 720 617 730 341 379 359 237 335 12 0 127 269 170 166 245 65 2 15 7 8 11 9 62 143 67 50 17 0
12 8 0 0 0 0 0 0 4 0 3 0 17 29 56 677 764 1023 1046 891 545 375 458 488 461 390 57 410 217 5 0 0 154 98 168 87 19 3 3 9 11 7 7 38 18 56 75 41 0
14 3 2 0 0 0 0 0 0 6 5 3 16 30 43 138 974 1120 906 557 420 88 27 0 455 357 5 321 150 0 0 0 40 117 131 28 1 1 6 3 13 8 5 0 0 0 0 0 0
14 11 0 0 0 0 0 0 0 1 9 13 27 47 53 606 821 774 780 512 270 103 134 20 0 304 104 258 208 0 0 0 0 2 0 0 1 2 3 8 26 25 36 18 0 0 0 0 0
7 1 0 0 0 0 0 0 1 0 2 2 0 39 74 547 460 565 509 494 135 54 4 21 0 0 87 272 263 24 0 0 0 1 0 6 3 3 0 4 2 36 38 26 5 0 0 0 0
0 0 0 1 5 5 8 0 0 10 2 13 10 0 76 340 615 452 483 410 247 137 6 0 1 0 0 313 348 77 5 0 0 0 5 1 6 0 4 5 7 3 0 0 0 0 0 0 0
0 0 0 0 0 6 20 5 0 1 20 37 109 172 135 110 531 501 500 421 263 91 28 3 0 0 1 80 268 214 124 1 2 6 1 10 1 2 2 0 0 0 0 0 0 0 0 0 0
0 0 0 0 0 0 1 2 2 0 0 22 33 98 128 171 248 365 418 343 164 9 11 0 0 0 1 122 121 231 209 123 4 0 3 5 3 0 0 0 0 0 0 0 0 0 0 0 0
0 0 0 1 0 1 0 0 0 0 0 0 0 0 81 139 162 325 331 253 91 25 1 0 0 0 3 115 167 117 234 269 181 18 0 0 0 0 0 0 0 0 0 0 0 0 0 0 0
0 0 0 0 0 0 0 0 0 0 0 0 0 4 185 214 110 64 324 344 93 36 23 7 1 0 0 34 186 152 155 218 275 180 43 0 0 0 0 0 0 0 0 0 0 0 0 0 0
4 1 0 0 0 0 0 0 0 0 0 0 0 6 124 153 211 37 377 356 212 22 110 36 33 13 0 14 80 262 93 175 238 316 248 102 93 61 28 8 26 44 27 3 0 0 0 0 0
10 3 5 0 1 0 9 4 0 0 0 0 0 0 44 165 299 232 439 370 142 45 96 80 56 14 0 4 43 272 197 112 206 300 382 412 238 225 145 141 139 119 67 14 1 0 0 0 0
7 6 5 2 39 38 18 9 0 0 0 0 0 0 71 217 261 486 450 360 154 120 85 46 46 27 0 5 101 244 272 240 289 297 304 420 425 425 360 174 93 103 113 47 18 6 11 0 0
6 7 1 5 9 13 18 0 0 0 173 48 71 199 185 232 311 422 503 393 368 154 79 97 112 6 0 8 112 184 255 260 307 356 395 399 403 401 437 309 97 121 200 140 41 14 0 0 0
4 2 0 0 3 7 35 1 1 3 139 312 226 228 179 144 161 355 226 164 8 0 41 66 32 20 26 33 99 171 299 318 380 374 367 302 303 258 229 259 141 162 207 196 155 48 11 5 16
0 1 0 1 2 25 25 7 42 17 133 190 212 232 261 84 6 111 42 13 0 0 11 55 61 28 10 31 66 66 110 161 258 342 253 332 358 240 294 303 248 177 147 141 177 142 19 35 83
0 0 4 2 1 1 1 5 2 50 139 178 170 78 117 2 0 9 49 18 2 5 0 41 1 28 38 18 54 8 2 35 137 203 234 267 285 232 198 250 303 215 146 70 54 90 27 115 126
0 5 4 5 4 4 20 13 1 43 88 160 77 47 32 0 0 0 5 5 0 10 1 0 0 0 31 52 41 46 28 49 61 47 36 54 131 124 111 174 208 148 106 76 59 53 56 1 49
4 1 2 3 0 1 4 25 38 64 64 51 110 7 5 0 0 0 0 0 0 0 0 3 7 0 13 47 66 14 26 41 25 64 40 10 14 68 54 31 145 123 32 17 9 21 8 9 34
21 1 1 0 7 4 4 1 2 0 0 0 0 10 10 0 0 0 0 0 0 0 0 0 0 20 13 6 60 22 58 56 11 13 4 3 3 3 5 32 94 13 66 20 19 25 14 6 0
9 4 4 3 1 0 0 0 1 0 0 0 0 18 1 0 0 0 0 0 0 0 0 0 0 0 0 4 60 99 142 154 78 54 85 82 91 32 16 127 51 23 26 20 28 18 4 0 0
0 1 1 0 0 0 0 0 0 0 2 4 3 1 0 2 1 0 0 0 0 0 0 0 0 0 0 0 0 0 176 237 191 193 167 146 179 214 180 189 119 97 77 28 43 22 0 0 0
0 0 0 0 3 0 0 0 1 2 3 2 1 1 2 1 0 0 0 0 0 0 0 0 0 0 0 0 0 0 0 0 4 122 321 304 318 329 178 169 153 139 102 19 6 1 0 0 0
2 3 0 0 0 1 0 0 0 0 5 0 0 0 0 0 0 0 0 0 0 0 0 0 0 0 0 0 0 0 0 0 0 0 0 2 43 153 64 71 71 52 23 1 0 0 0 0 0
0 0 0 0 0 0 0 0 0 0 1 0 0 0 0 0 0 0 0 0 0 0 0 0 0 0 0 0 0 0 0 0 0 0 0 0 0 0 1 1 1 0 0 0 0 0 0 0 0

GFSSGP_con_mlcape_090.txt.gz
CAPE
0 0 2 39 1 0 0 0 0 0 0 0 0 0 7 7 90 53 370 254 784 916 724 871 758 511 417 205 70 2 2 646 644 624 673 742 846 740 486 130 7 83 565 272 109 26 2 7 3
0 0 8 20 0 0 0 0 0 0 0 0 0 0 1 51 628 393 431 397 485 956 807 815 725 465 450 213 166 110 4 371 626 524 655 757 823 691 337 69 12 272 407 128 0 4 4 3 2
0 0 10 6 7 0 0 0 0 0 0 0 0 0 7 170 732 823 717 562 848 1010 754 813 666 466 436 242 375 405 175 140 523 481 493 529 598 545 190 38 25 146 57 2 1 4 5 1 0
0 0 19 7 0 0 0 0 0 0 0 0 0 0 51 339 601 891 717 598 815 945 938 908 622 452 421 244 321 258 339 152 426 388 407 521 371 365 113 10 0 6 7 10 9 9 0 0 0
0 20 0 0 0 0 0 0 0 0 0 0 0 0 4 528 905 832 910 696 755 796 921 903 502 358 425 298 64 116 231 306 312 240 183 246 359 216 32 4 5 5 4 9 0 7 0 0 0
2 1 5 0 0 0 0 0 0 0 0 0 0 1 32 538 460 917 967 763 778 762 747 743 473 405 315 354 90 0 68 333 288 115 99 288 224 61 4 5 4 4 7 56 145 78 0 0 0
5 11 0 0 0 0 0 0 0 0 0 0 0 0 77 484 510 658 929 849 518 558 525 269 339 281 250 266 322 0 0 124 224 87 92 109 38 7 7 8 2 8 14 196 86 74 29 0 0
0 0 0 4 0 0 0 0 0 0 0 0 0 0 0 342 647 1004 1110 678 325 278 327 237 67 391 216 237 296 13 0 1 80 89 116 35 0 2 6 7 5 4 13 35 55 93 70 0 0
1 1 0 0 0 0 0 0 0 0 0 0 0 0 0 342 442 525 800 646 427 328 249 66 98 47 0 63 244 8 0 0 82 95 27 0 0 0 0 5 7 5 7 0 0 0 0 0 0
1 1 0 0 0 0 0 0 0 0 0 0 0 0 0 387 287 203 231 364 574 276 137 33 30 201 2 0 93 13 0 0 14 25 0 0 0 0 2 3 12 5 4 0 0 0 0 0 0
0 0 0 0 0 0 0 0 0 0 0 0 4 0 0 0 42 152 91 108 163 234 139 69 39 51 53 0 0 63 0 0 0 3 2 18 5 0 0 1 7 3 2 0 0 0 0 0 0
0 0 0 0 0 0 0 0 0 0 0 0 0 15 69 38 69 139 105 83 380 233 120 67 26 0 0 0 3 6 3 0 0 0 0 8 0 0 0 0 0 2 0 0 0 0 0 0 0
0 0 0 0 0 0 0 0 0 0 0 0 0 0 0 14 21 27 0 94 190 238 219 107 27 0 9 2 5 72 80 0 0 0 0 0 0 0 0 0 0 0 0 0 0 0 0 0 0
0 0 0 0 0 0 0 0 0 0 0 0 0 0 0 0 5 34 50 121 144 171 83 92 40 4 27 9 0 0 109 88 0 0 0 7 0 0 0 0 0 0 0 0 0 0 0 0 0
0 0 0 0 0 0 0 0 0 0 0 0 0 0 0 0 1 39 99 127 258 125 61 70 98 35 10 9 0 0 14 80 57 0 0 0 0 0 0 0 0 0 0 0 0 0 0 0 0
0 0 0 0 0 0 0 0 0 0 0 0 0 0 0 0 58 84 105 228 248 197 79 106 125 22 3 1 25 16 11 73 66 57 0 0 0 0 0 0 0 0 0 0 0 0 0 0 0
0 0 0 0 1 0 3 0 0 0 0 0 0 0 0 0 89 105 152 265 340 224 73 14 110 68 50 47 31 48 89 24 136 97 79 0 11 2 0 0 0 13 28 25 1 0 0 0 0
0 0 0 0 0 15 9 0 0 0 0 0 0 0 0 0 100 252 218 337 354 289 84 38 79 88 62 41 35 35 121 111 126 178 154 181 123 144 91 105 111 113 92 52 25 9 8 3 11
0 1 0 0 0 0 1 0 0 18 0 0 0 0 0 1 338 281 256 266 291 240 107 70 48 56 69 27 25 6 28 172 170 213 226 231 279 338 286 201 120 88 145 106 45 49 18 22 23
3 2 0 0 0 2 2 0 0 9 3 0 157 80 308 307 137 213 291 193 259 162 149 97 27 25 59 17 17 35 40 136 129 250 310 319 205 374 329 318 271 96 122 234 175 84 35 17 17
0 0 0 0 0 0 1 0 6 0 2 170 274 231 298 245 181 230 286 189 157 67 38 106 105 70 66 38 15 30 39 63 128 189 228 214 300 320 295 276 288 219 219 242 256 216 162 51 43
1 0 1 1 0 0 4 0 0 5 0 114 124 342 298 299 129 196 274 155 121 18 0 0 13 52 35 38 0 9 22 38 57 77 199 258 298 279 305 286 254 248 207 202 158 86 84 88 106
0 1 3 4 0 0 0 0 0 0 23 91 119 277 329 289 62 55 155 204 57 0 0 0 11 2 2 6 10 14 5 31 39 30 19 63 122 118 169 189 225 192 155 163 87 102 76 39 52
5 1 1 1 0 0 0 0 0 0 7 88 183 196 225 162 0 0 0 0 1 0 0 0 0 1 2 0 7 36 15 28 11 17 22 20 65 91 103 64 104 146 172 143 91 62 29 44 45
5 0 0 0 0 0 0 0 0 0 0 59 143 190 144 5 0 0 0 1 1 0 0 0 0 0 0 0 2 12 12 32 11 0 0 35 34 15 23 20 37 117 99 56 43 9 1 20 5
0 2 0 0 0 0 0 0 0 0 0 0 22 10 0 1 0 0 0 0 0 0 0 0 0 0 0 0 2 4 44 21 38 1 6 25 17 1 5 2 1 53 31 2 46 2 4 3 1
0 0 0 0 0 0 0 0 0 5 0 0 2 0 3 3 1 2 0 0 0 0 0 0 0 0 0 0 0 0 100 50 24 33 39 36 60 57 44 33 72 58 0 14 46 9 15 15 23
0 0 0 0 0 0 0 0 0 0 1 3 2 3 3 3 1 1 1 0 0 0 0 0 0 0 0 0 0 0 0 0 0 56 129 155 123 108 124 79 68 59 50 39 33 33 21 10 3
0 0 0 0 0 0 0 0 4 1 2 1 3 3 1 1 1 0 0 0 0 0 0 0 0 0 0 0 0 0 0 0 0 0 0 0 8 42 115 159 121 91 103 86 44 7 0 1 0
0 0 0 0 0 0 0 0 1 0 0 2 1 1 0 0 0 0 0 0 0 0 0 0 0 0 0 0 0 0 0 0 0 0 0 0 0 0 0 0 35 64 54 24 40 5 0 0 0

GFSSGP_con_mlcape_093.txt.gz
CAPE
0 0 0 2 0 0 0 0 0 0 0 0 0 0 0 26 9 1 135 494 756 670 893 647 601 388 256 147 1 2 775 591 673 723 759 804 833 728 405 118 101 467 544 483 282 112 6 4 3
0 0 0 0 0 0 0 0 0 0 0 0 0 0 0 63 442 349 282 883 861 744 868 792 709 431 263 156 17 0 149 603 577 518 794 744 843 645 410 58 250 644 342 125 0 2 3 4 1
0 0 0 0 0 0 0 0 0 0 0 0 0 0 3 522 415 449 380 838 905 807 866 805 664 505 336 254 68 6 0 500 598 564 531 619 762 586 239 83 422 281 39 0 0 2 2 3 0
0 0 0 0 0 0 0 0 0 0 0 0 0 0 94 450 715 648 676 875 881 762 763 900 726 587 417 361 381 310 58 155 514 578 458 637 532 521 153 90 292 41 0 0 0 3 2 0 0
0 0 0 0 0 0 0 0 0 0 0 0 0 0 0 659 716 617 787 928 904 819 935 952 838 658 483 339 345 410 356 88 517 493 455 465 273 273 44 11 58 5 3 1 4 2 0 0 0
0 0 0 0 0 0 0 0 0 0 0 0 0 0 3 725 655 732 653 863 882 1070 1072 952 806 621 503 280 226 259 347 263 415 299 328 207 233 147 3 1 4 5 6 6 7 1 0 0 0
0 0 0 0 0 0 0 0 0 0 0 0 0 0 23 286 499 625 582 627 740 933 934 822 744 554 436 542 86 53 210 381 189 130 137 113 129 55 4 3 2 3 6 61 72 0 0 0 0
0 0 0 0 0 0 0 0 0 0 0 0 0 0 0 91 569 453 322 219 409 501 495 484 515 390 333 549 470 42 0 247 221 144 84 116 56 0 3 8 5 2 74 72 46 21 0 0 0
0 0 0 0 0 0 0 0 0 0 0 0 0 0 43 237 380 349 165 84 97 226 293 320 151 108 116 164 261 206 13 0 205 214 128 58 2 1 2 7 7 8 14 50 44 52 16 0 0
0 0 0 0 0 0 0 0 0 0 0 0 0 0 18 238 272 253 137 101 142 68 140 107 87 53 88 37 43 19 32 0 143 172 52 0 0 0 3 9 6 8 7 0 0 0 0 0 0
0 0 0 0 0 0 0 0 0 0 0 0 0 0 0 1 75 139 102 59 80 248 109 89 120 79 58 41 6 0 0 14 128 158 4 0 0 0 0 13 10 4 4 0 0 0 0 0 0
0 0 0 0 0 0 0 0 0 0 0 0 0 0 0 0 0 37 101 46 62 133 142 129 120 98 61 54 0 2 0 0 18 156 61 0 0 0 0 9 13 5 3 0 0 0 0 0 0
0 0 0 0 0 0 0 0 0 0 0 0 0 0 0 0 0 0 59 83 50 125 128 79 46 69 21 0 4 4 2 3 10 116 113 29 8 0 0 0 3 0 0 0 0 0 0 0 0
0 0 0 0 0 0 0 0 0 0 0 0 0 0 0 0 0 0 3 1 7 47 87 39 23 11 31 0 0 0 0 3 9 71 129 90 2 2 13 0 0 0 0 0 0 0 0 0 0
0 0 0 0 0 0 0 0 0 0 0 0 0 0 0 0 0 0 5 18 28 28 37 63 51 51 59 38 0 0 0 0 44 23 81 114 29 4 0 0 0 0 0 0 0 0 0 0 0
0 0 0 0 0 0 4 0 0 0 0 0 0 0 0 0 0 0 13 68 29 40 48 61 111 52 55 45 28 0 0 9 97 88 29 57 24 3 7 0 0 0 0 0 0 0 0 0 0
0 0 0 0 0 0 0 0 0 0 0 0 0 0 0 0 0 0 21 62 105 159 117 101 124 81 55 56 24 55 2 36 107 70 54 31 33 8 0 0 0 0 0 0 0 0 0 0 0
0 0 0 0 0 0 0 0 0 0 0 0 0 0 0 0 0 0 31 89 144 157 118 112 117 95 61 43 25 24 49 24 59 90 49 19 6 4 0 0 0 0 0 0 0 0 0 0 0
0 0 0 0 0 0 0 0 0 0 0 0 0 0 0 0 0 14 182 194 321 176 134 93 76 113 120 44 39 36 43 25 44 50 56 67 63 48 0 0 0 0 34 43 33 16 6 7 5
0 0 0 0 0 1 0 0 0 0 0 0 0 0 0 0 0 79 186 178 247 210 180 172 149 125 129 87 29 13 47 8 29 60 65 96 90 158 146 179 151 119 134 105 64 38 39 35 21
0 0 0 0 0 0 0 0 0 0 0 0 0 14 136 89 94 148 165 188 143 173 173 177 162 99 39 35 58 16 11 1 27 26 34 54 138 111 186 211 255 152 105 175 152 120 59 68 40
0 0 0 1 0 0 1 0 0 0 0 0 0 94 75 111 179 170 200 128 116 69 19 95 150 159 155 104 50 21 5 13 7 17 27 43 71 89 78 108 171 237 192 212 241 227 202 177 113
0 0 1 1 0 0 0 0 0 0 0 0 0 42 1 57 120 141 202 253 154 62 12 11 40 107 139 122 83 31 1 0 24 27 32 30 48 61 87 83 64 92 116 165 145 189 163 96 80
0 0 0 1 0 0 0 0 0 0 1 0 2 30 114 80 51 12 0 14 8 13 0 0 0 0 6 21 24 12 37 23 35 16 37 1 25 14 31 62 49 142 134 84 87 150 121 86 72
0 0 0 0 0 0 0 0 0 0 9 0 0 55 94 1 0 0 0 0 0 0 0 0 0 0 0 2 0 0 5 10 19 10 10 32 5 12 8 49 46 63 65 74 83 125 100 79 60
1 0 0 0 0 0 0 0 0 1 8 1 21 12 0 0 1 1 2 1 0 0 0 0 0 0 0 0 0 0 3 41 6 2 1 1 8 7 15 6 39 18 52 89 84 53 41 16 15
0 0 0 0 0 0 0 0 1 0 1 2 3 0 2 3 2 2 1 1 0 0 0 0 0 0 0 0 0 0 3 47 36 27 6 0 11 6 20 9 19 21 15 19 27 9 25 9 1
0 0 0 0 0 0 0 0 0 0 0 3 1 3 3 3 2 2 2 0 0 0 0 0 0 0 0 0 0 0 0 0 2 5 14 35 11 27 45 35 35 47 34 29 39 19 7 1 7
0 0 0 0 0 0 0 0 1 0 0 2 2 1 1 0 0 0 0 0 0 0 0 0 0 0 0 0 0 0 0 0 0 0 0 0 0 3 12 33 44 43 47 51 57 28 23 7 24
0 0 0 0 0 0 0 0 3 3 4 0 2 2 2 0 0 0 0 0 0 0 0 0 0 0 0 0 0 0 0 0 0 0 0 0 0 0 0 0 4 63 78 109 105 100 58 23 10

GFSSGP_con_mlcape_096.txt.gz
CAPE
0 0 0 0 0 0 0 0 0 0 0 0 0 0 0 0 0 0 209 661 688 517 769 611 589 504 293 230 751 1021 751 737 812 841 757 712 898 723 233 6 353 592 598 543 391 268 70 32 9
0 0 0 0 0 0 0 0 0 0 0 0 0 0 0 0 372 368 573 668 705 452 559 540 541 396 242 88 26 776 702 693 636 720 812 880 882 657 342 135 501 647 547 387 96 2 3 0 0
0 0 0 0 0 0 0 0 0 0 0 0 0 0 0 151 287 403 501 846 782 661 740 726 597 416 287 128 17 8 814 799 601 615 655 631 855 621 304 369 705 474 147 48 4 4 3 0 0
0 0 0 0 0 0 0 0 0 0 0 0 0 0 108 354 272 411 841 905 829 737 858 913 620 435 276 125 35 0 70 810 642 552 505 552 753 652 209 490 454 184 21 1 0 4 0 0 0
0 0 0 0 0 0 0 0 0 0 0 0 0 0 0 501 577 453 738 958 870 759 814 989 768 537 434 271 244 218 68 353 697 681 458 610 791 392 71 412 285 15 0 0 1 2 0 0 0
0 0 0 0 0 0 0 0 0 0 0 0 0 0 0 315 478 667 809 852 766 683 825 1022 976 677 458 416 307 369 374 141 548 557 568 663 704 137 20 222 30 5 4 6 6 0 0 0 0
0 0 0 0 0 0 0 0 0 0 0 0 0 0 0 79 154 309 584 695 824 889 907 1013 905 721 443 254 240 299 410 372 365 265 330 326 251 83 6 72 18 6 7 25 37 0 0 0 0
0 0 0 0 0 0 0 0 0 0 0 0 0 0 0 0 209 174 128 201 360 469 577 620 735 681 520 254 78 94 222 302 290 159 188 183 167 24 0 0 3 4 6 10 60 0 0 0 0
0 0 0 0 0 0 0 0 0 0 0 0 0 0 0 0 104 174 144 102 98 177 261 348 288 301 472 465 199 23 0 67 161 158 133 137 83 9 0 0 2 4 1 135 60 0 0 0 0
0 0 0 0 0 0 0 0 0 0 0 0 0 0 0 0 0 29 92 74 96 95 126 176 105 52 108 126 71 86 41 0 24 171 127 99 15 0 0 1 1 6 117 79 73 41 0 0 0
0 0 0 0 0 0 0 0 0 0 0 0 0 0 0 0 0 0 19 91 91 89 81 60 30 20 45 68 50 23 21 3 17 142 117 42 0 0 1 1 3 9 13 6 9 5 0 0 0
0 0 0 0 0 0 0 0 0 0 0 0 0 0 0 0 0 0 0 15 41 60 86 109 81 29 39 54 61 33 9 0 0 17 66 9 0 0 8 2 0 5 7 1 0 0 0 0 0
0 0 0 0 0 0 0 0 0 0 0 0 0 0 0 0 0 0 0 0 38 16 77 129 79 67 32 21 33 25 14 0 0 0 6 26 16 0 0 0 3 2 2 1 0 0 0 0 0
0 0 0 0 0 0 0 0 0 0 0 0 0 0 0 0 0 0 0 0 5 25 34 80 74 38 25 35 32 19 13 0 1 0 59 54 33 2 3 10 11 1 1 0 0 0 0 0 0
0 0 0 0 0 0 0 0 0 0 0 0 0 0 0 0 0 0 0 0 0 0 21 53 69 75 42 24 8 10 0 0 0 0 34 57 67 15 13 43 36 20 17 11 0 0 0 0 0
0 0 0 0 0 0 0 0 0 0 0 0 0 0 0 0 0 0 0 0 0 36 73 65 70 58 32 24 17 17 0 0 0 0 11 18 43 46 34 5 3 45 59 4 0 0 0 0 0
0 0 0 0 0 0 0 0 0 0 0 0 0 0 0 0 0 0 0 0 0 65 86 100 87 49 19 35 38 25 0 6 3 8 12 0 42 35 60 21 29 27 9 0 0 0 0 0 0
0 0 0 0 0 0 0 0 0 0 0 0 0 0 0 0 0 0 0 0 0 96 120 162 158 103 56 63 82 49 0 1 20 45 35 8 30 71 41 29 14 4 0 0 0 0 0 0 0
0 0 0 0 0 0 0 0 0 0 0 0 0 0 0 0 0 0 0 0 22 168 162 188 147 123 108 74 79 48 44 18 5 37 75 24 4 41 43 52 7 0 5 0 0 0 0 0 0
0 0 0 0 0 0 0 0 0 0 0 0 0 0 0 0 0 0 0 3 164 174 227 151 139 141 160 143 88 78 66 59 41 10 24 38 43 16 50 55 33 6 0 0 0 0 3 1 0
0 0 0 0 0 0 0 0 0 0 0 0 0 0 0 0 0 0 7 113 139 167 231 124 109 99 92 174 143 64 53 50 28 25 14 30 57 50 37 74 82 42 13 6 33 57 57 43 41
0 0 0 1 0 0 0 0 0 0 0 0 0 0 0 37 135 68 129 177 138 81 90 81 86 85 99 119 58 25 45 50 13 3 14 9 50 43 56 93 127 79 78 171 155 112 114 103 97
0 0 0 2 0 0 0 0 0 0 0 0 0 0 103 71 45 81 139 198 174 79 28 0 24 65 113 181 123 65 63 1 18 21 21 11 11 29 27 89 84 94 123 115 164 132 141 139 142
0 0 1 1 0 0 0 0 0 0 19 8 9 1 34 12 1 27 29 38 35 41 0 0 5 8 39 54 64 79 44 30 17 4 28 21 13 9 30 24 28 25 57 76 68 111 112 113 96
0 0 0 0 0 0 0 0 0 0 25 43 27 5 0 0 0 0 0 0 0 0 0 0 0 0 0 0 3 10 46 12 8 13 20 17 17 23 34 31 27 45 54 49 27 46 69 77 72
0 1 0 0 0 0 0 0 0 1 1 1 2 1 1 1 2 1 1 2 0 0 0 0 0 0 0 0 1 0 0 3 0 12 0 19 30 5 2 6 5 24 23 19 11 22 38 33 16
0 0 0 0 0 0 0 0 0 0 0 0 2 2 3 3 2 1 1 1 2 0 0 0 0 0 0 0 0 0 0 0 11 8 8 16 4 9 5 4 3 8 37 33 65 58 28 34 28
0 0 0 0 0 0 0 0 0 0 0 4 2 3 4 3 2 0 0 0 0 0 0 0 0 0 0 0 0 0 0 0 0 0 1 12 24 19 2 23 16 6 12 23 35 23 41 13 10
0 0 0 0 0 0 0 0 0 0 0 1 2 0 0 1 1 2 0 1 0 0 0 0 0 0 0 0 0 0 0 0 0 0 0 0 0 0 0 3 20 39 27 32 28 25 28 26 1
0 0 0 0 0 0 0 0 2 2 3 4 5 2 2 2 0 2 0 0 0 0 0 0 0 0 0 0 0 0 0 0 0 0 0 0 0 0 0 0 0 1 42 49 44 47 46 33 12

GFSSGP_con_mlcape_099.txt.gz
CAPE
0 0 0 0 0 0 0 0 0 0 0 0 0 0 0 0 0 0 157 718 646 652 885 796 832 993 1182 1125 1089 860 838 892 833 756 609 683 760 275 90 391 390 274 361 489 512 430 361 2 1
0 0 0 0 0 0 0 0 0 0 0 0 0 0 0 0 63 171 588 654 701 699 826 799 823 728 894 1148 1235 900 772 853 812 752 600 791 806 575 135 335 633 769 623 534 384 124 24 4 4
0 0 0 0 0 0 0 0 0 0 0 0 0 0 0 0 310 257 359 710 721 647 709 718 813 627 389 404 1044 1001 818 794 656 697 614 796 879 693 188 409 677 524 517 201 9 4 3 0 0
0 0 0 0 0 0 0 0 0 0 0 0 0 0 0 187 283 363 676 792 770 533 603 744 722 525 287 116 88 822 888 828 589 553 460 523 863 775 313 679 456 412 185 17 0 3 0 0 0
0 0 0 0 0 0 0 0 0 0 0 0 0 0 0 28 312 534 843 887 776 581 614 800 673 589 335 190 65 56 655 931 793 681 571 623 893 790 230 538 332 114 61 23 0 0 0 0 0
0 0 0 0 0 0 0 0 0 0 0 0 0 0 0 25 34 445 595 773 776 612 741 952 871 610 444 280 174 90 93 544 779 753 697 643 774 535 93 372 216 56 22 15 11 4 0 0 0
0 0 0 0 0 0 0 0 0 0 0 0 0 0 0 0 0 11 330 451 518 654 630 865 953 697 460 315 386 446 423 288 578 610 665 480 399 227 40 147 93 7 3 18 12 0 0 0 0
0 0 0 0 0 0 0 0 0 0 0 0 0 0 0 0 0 0 64 135 319 520 444 410 489 445 341 300 333 379 414 492 322 355 419 330 265 166 14 60 8 27 9 9 4 0 0 0 0
0 0 0 0 0 0 0 0 0 0 0 0 0 0 0 0 0 0 35 43 63 98 239 448 504 484 290 224 227 178 251 310 218 242 236 255 202 133 4 32 16 3 3 7 7 0 0 0 0
0 0 0 0 0 0 0 0 0 0 0 0 0 0 0 0 0 0 0 25 50 73 125 279 317 321 219 217 66 10 20 58 131 126 167 213 199 69 23 6 0 2 4 14 32 0 0 0 0
0 0 0 0 0 0 0 0 0 0 0 0 0 0 0 0 0 0 0 0 6 68 55 73 86 110 108 52 56 63 19 0 12 122 116 140 153 7 0 0 4 6 3 76 56 2 0 0 0
0 0 0 0 0 0 0 0 0 0 0 0 0 0 0 0 0 0 0 0 0 10 25 55 64 28 47 44 29 47 55 13 0 27 157 131 99 6 4 0 0 5 41 59 44 13 0 0 0
0 0 0 0 0 0 0 0 0 0 0 0 0 0 0 0 0 0 0 0 0 7 42 48 65 54 22 14 17 5 11 1 3 21 83 127 135 64 13 2 0 0 0 27 15 3 0 0 0
0 0 0 0 0 0 0 0 0 0 0 0 0 0 0 0 0 0 0 0 0 0 10 76 129 68 42 43 37 22 14 5 0 0 37 74 86 109 47 10 0 0 1 12 28 3 0 0 0
0 0 0 0 0 0 0 0 0 0 0 0 0 0 0 0 0 0 0 0 0 0 0 31 105 120 111 101 84 44 23 2 3 2 2 51 91 118 90 14 1 0 28 19 14 0 0 0 0
0 0 0 0 0 0 0 0 0 0 0 0 0 0 0 0 0 0 0 0 0 0 0 24 132 125 117 96 89 49 9 0 0 2 24 52 63 65 75 15 4 13 25 48 49 24 0 0 0
0 0 0 0 0 0 0 0 0 0 0 0 0 0 0 0 0 0 0 0 0 0 0 17 114 139 119 75 66 51 13 0 0 0 0 40 114 97 62 17 19 0 0 21 51 26 0 0 0
0 0 0 0 0 0 0 0 0 0 0 0 0 0 0 0 0 0 0 0 0 0 0 87 155 134 97 78 60 23 3 5 0 0 0 22 71 82 72 20 1 0 19 44 27 10 0 0 0
0 0 0 0 0 0 0 0 0 0 0 0 0 0 0 0 0 0 0 0 0 0 0 84 161 154 96 75 61 62 37 35 2 0 13 24 56 39 78 78 79 51 51 82 30 40 6 0 0
0 0 0 0 0 0 0 0 0 0 0 0 0 0 0 0 0 0 0 0 0 0 21 156 214 202 148 107 97 81 53 48 16 2 7 65 85 45 60 84 44 51 29 53 11 7 0 0 0
0 0 0 0 0 0 0 0 0 0 0 0 0 0 0 0 0 0 0 0 4 98 224 215 242 258 216 116 70 42 27 25 11 22 51 39 55 74 26 30 23 2 11 43 36 33 40 11 1
0 0 0 0 1 1 0 0 0 0 0 0 0 0 0 0 0 20 57 42 75 98 166 209 226 219 166 111 84 43 10 1 2 22 45 48 29 26 40 13 13 3 28 48 40 25 40 40 18
0 0 0 0 0 1 0 0 0 0 0 12 8 0 1 29 39 50 167 193 97 79 100 122 130 160 152 185 130 75 38 17 10 9 6 22 33 19 16 31 13 17 36 54 56 42 39 48 65
0 0 0 2 0 0 0 0 0 0 5 44 22 23 32 42 31 22 31 66 66 50 33 33 34 8 21 75 62 70 130 71 30 23 10 3 14 14 3 0 20 34 45 69 79 80 98 74 51
0 1 0 0 0 0 0 0 0 3 0 7 4 0 0 0 0 0 0 0 0 2 5 0 0 0 0 0 0 0 1 17 80 62 26 35 20 16 1 13 30 23 36 74 76 54 56 74 51
0 1 0 0 0 0 0 0 0 1 1 5 4 3 2 2 2 2 2 2 2 0 0 0 0 0 0 0 0 0 2 0 21 13 28 43 8 8 2 11 18 32 16 37 40 61 49 44 35
0 0 3 0 0 0 0 0 0 0 0 3 1 3 3 2 2 1 0 0 0 0 0 0 0 0 0 0 1 0 0 0 3 1 1 2 0 0 3 0 2 2 17 6 14 12 28 37 25
0 0 0 0 0 0 0 0 0 0 0 1 1 2 2 2 2 2 0 0 0 0 0 0 0 0 0 0 0 0 0 0 0 0 0 0 0 1 2 4 6 11 16 17 6 24 26 36 44
0 0 0 0 0 0 0 0 1 0 0 0 3 4 3 1 1 0 0 0 0 0 0 0 0 0 0 0 0 0 0 0 0 0 0 0 0 0 0 0 1 2 24 37 34 41 35 25 14
0 0 0 0 0 0 0 0 3 1 2 2 2 5 6 5 1 3 0 0 0 1 0 0 0 0 0 0 0 0 0 0 0 0 0 0 0 0 0 0 0 0 0 3 37 50 45 38 29

GFSSGP_con_mlcape_102.txt.gz
CAPE
0 0 0 0 0 0 0 0 0 0 0 0 0 0 0 0 0 0 108 478 564 650 1093 886 1029 1138 1188 1064 947 879 861 919 838 624 337 344 467 177 201 189 25 1 4 425 458 364 28 2 4
0 0 0 0 0 0 0 0 0 0 0 0 0 0 0 0 0 0 436 660 692 800 1011 750 911 1038 1163 1029 855 863 821 820 793 720 698 730 597 273 310 411 279 250 530 489 494 220 2 2 3
0 0 0 0 0 0 0 0 0 0 0 0 0 0 0 0 196 236 241 728 832 805 908 790 844 951 1170 1099 940 977 947 797 635 663 624 797 851 464 295 448 764 501 400 386 291 57 2 4 1
0 0 0 0 0 0 0 0 0 0 0 0 0 0 0 1 1 161 405 732 813 696 746 802 849 827 907 1036 1164 1096 997 1026 734 641 579 546 946 803 261 551 657 497 368 158 32 3 0 0 0
0 0 0 0 0 0 0 0 0 0 0 0 0 0 0 0 0 0 602 796 722 624 684 832 903 709 477 470 876 1022 991 1002 888 697 619 595 622 863 442 529 459 381 164 41 22 14 0 0 0
0 0 0 0 0 0 0 0 0 0 0 0 0 0 0 0 0 0 36 509 631 509 596 848 862 844 539 303 181 404 820 848 859 736 723 779 746 888 317 292 484 278 72 10 9 17 0 0 0
0 0 0 0 0 0 0 0 0 0 0 0 0 0 0 0 0 0 0 60 497 626 484 496 767 760 607 260 149 96 184 616 858 693 663 672 406 530 367 155 339 182 110 26 3 3 0 0 0
0 0 0 0 0 0 0 0 0 0 0 0 0 0 0 0 0 0 0 0 59 396 528 409 382 389 310 265 177 349 379 258 428 694 632 583 450 351 251 123 184 91 54 26 3 0 0 0 0
0 0 0 0 0 0 0 0 0 0 0 0 0 0 0 0 0 0 0 0 0 23 276 329 321 328 186 155 228 303 240 533 429 306 437 477 363 369 238 113 117 10 25 15 2 0 0 0 0
0 0 0 0 0 0 0 0 0 0 0 0 0 0 0 0 0 0 0 0 0 0 18 41 221 327 298 199 111 70 127 122 89 96 171 232 300 299 207 113 51 35 15 9 8 0 0 0 0
0 0 0 0 0 0 0 0 0 0 0 0 0 0 0 0 0 0 0 0 0 0 0 9 34 160 309 122 34 21 29 57 78 50 71 145 251 197 143 75 104 6 9 6 33 0 0 0 0
0 0 0 0 0 0 0 0 0 0 0 0 0 0 0 0 0 0 0 0 0 0 0 10 8 32 56 74 41 11 9 0 0 95 95 99 130 81 63 42 14 0 13 10 36 10 0 0 0
0 0 0 0 0 0 0 0 0 0 0 0 0 0 0 0 0 0 0 0 0 0 0 0 38 54 58 52 15 11 11 8 0 27 115 105 66 27 44 20 0 3 6 11 37 30 0 0 0
0 0 0 0 0 0 0 0 0 0 0 0 0 0 0 0 0 0 0 0 0 0 0 0 10 103 40 56 49 2 16 7 5 30 77 49 44 35 43 40 24 5 13 17 56 28 2 0 0
0 0 0 0 0 0 0 0 0 0 0 0 0 0 0 0 0 0 0 0 0 0 0 0 0 96 113 69 69 52 43 62 18 19 13 36 27 32 57 59 35 17 14 26 10 15 0 0 0
0 0 0 0 0 0 0 0 0 0 0 0 0 0 0 0 0 0 0 0 0 0 0 0 0 57 164 147 92 57 55 57 35 28 18 8 32 43 60 74 77 54 19 7 14 29 10 0 0
0 0 0 0 0 0 0 0 0 0 0 0 0 0 0 0 0 0 0 0 0 0 0 0 0 48 168 197 172 129 101 62 48 11 3 20 36 53 49 85 72 90 81 19 5 41 41 14 0
0 0 0 0 0 0 0 0 0 0 0 0 0 0 0 0 0 0 0 0 0 0 0 0 0 98 170 161 94 58 55 49 10 0 1 0 16 71 45 35 62 29 11 33 1 1 13 40 40
0 0 0 0 0 0 0 0 0 0 0 0 0 0 0 0 0 0 0 0 0 0 0 0 0 169 189 155 103 59 28 3 2 0 0 0 0 15 60 53 22 58 0 0 0 1 20 27 60
0 0 0 0 0 0 0 0 0 0 0 0 0 0 0 0 0 0 0 0 0 0 0 0 0 152 245 188 126 98 60 22 10 0 0 0 0 1 22 56 87 73 71 20 3 1 0 4 28
0 0 0 0 0 0 0 0 0 0 0 0 0 0 0 0 0 0 0 0 0 0 0 0 60 277 306 232 148 93 50 35 32 20 4 0 0 5 27 41 72 66 62 22 23 14 11 2 0
0 0 0 0 0 0 3 0 0 0 0 0 0 0 0 0 0 0 0 48 48 40 153 242 331 367 314 277 211 126 46 0 31 21 7 4 15 13 24 30 40 81 35 33 23 13 18 14 1
0 0 0 1 1 2 0 0 0 0 0 0 0 0 12 71 34 85 202 195 131 124 197 292 341 304 308 264 209 128 41 28 21 0 0 0 11 9 13 32 35 28 26 11 23 5 15 11 28
0 0 0 1 4 0 0 0 0 1 1 0 3 2 2 15 9 0 2 45 59 41 27 60 70 38 62 92 36 6 1 20 40 12 0 0 0 1 0 6 19 33 42 23 2 2 6 28 60
0 0 0 0 0 0 0 0 0 0 0 4 3 2 2 1 1 1 0 1 0 0 0 1 1 1 0 0 0 0 1 0 13 21 21 6 4 1 5 9 2 2 0 14 1 1 4 22 57
0 0 1 0 0 0 1 0 0 0 0 5 4 2 3 2 2 2 1 2 1 1 0 0 0 0 1 1 0 1 0 3 1 1 0 3 1 4 10 13 13 6 24 47 35 10 22 37 63
0 0 2 2 0 0 0 0 1 0 0 1 3 4 2 2 3 3 1 1 1 1 1 0 0 0 0 0 0 0 0 0 2 2 3 3 0 1 0 2 4 2 6 29 44 5 8 18 40
0 0 0 0 0 0 0 0 0 0 1 0 2 4 3 2 2 2 3 2 1 0 0 0 0 0 0 0 0 0 0 0 0 0 0 0 0 0 0 0 1 1 2 4 5 13 3 12 21
0 0 0 0 0 0 0 0 1 1 0 0 2 3 3 4 1 2 2 2 0 0 0 0 0 0 0 0 0 0 0 0 0 0 0 0 0 0 0 0 0 0 0 1 1 33 20 23 3
0 0 0 0 0 0 0 0 0 1 3 1 1 3 4 5 0 0 0 1 0 1 0 0 0 0 0 0 0 0 0 0 0 0 0 0 0 0 0 0 0 0 0 0 0 0 1 36 33

GFSSGP_con_mlcape_105.txt.gz
CAPE
0 0 0 0 0 0 0 0 0 0 0 0 0 0 0 0 0 0 97 161 605 656 1352 1145 1243 1334 1330 1226 921 859 905 981 1120 910 879 812 584 352 73 19 23 23 326 568 578 222 29 9 3
0 0 0 0 0 0 0 0 0 0 0 0 0 0 0 0 1 82 392 456 653 939 1369 1035 964 1405 1308 1202 834 817 810 852 775 529 433 568 495 352 229 140 66 78 442 459 486 96 0 1 3
0 0 0 0 0 0 0 0 0 0 0 0 0 0 0 0 0 9 16 404 852 1067 1171 1001 1165 1251 1205 1176 846 746 799 790 732 669 500 619 629 464 489 434 257 318 383 300 200 2 0 0 0
0 0 0 0 0 0 0 0 0 0 0 0 0 0 0 0 0 0 0 614 938 1033 1073 970 965 1088 1290 1203 1029 957 974 780 716 608 573 486 854 573 553 551 485 356 267 358 151 18 0 0 0
0 0 0 0 0 0 0 0 0 0 0 0 0 0 0 0 0 0 0 343 885 864 946 1055 897 883 1207 1204 1067 1017 917 931 836 645 505 583 589 675 558 501 489 382 294 310 109 3 0 0 0
0 0 0 0 0 0 0 0 0 0 0 0 0 0 0 0 0 0 0 27 327 560 719 915 915 862 789 862 1010 974 751 673 871 724 683 681 695 674 541 373 504 450 249 158 81 0 0 0 0
0 0 0 0 0 0 0 0 0 0 0 0 0 0 0 0 0 0 0 0 111 409 344 304 715 732 640 499 315 477 803 681 696 606 571 643 635 551 550 153 335 376 152 100 93 6 0 0 0
0 0 0 0 0 0 0 0 0 0 0 0 0 0 0 0 0 0 0 0 0 81 273 315 263 419 412 415 171 81 58 257 568 838 729 687 593 448 363 142 246 233 112 65 31 20 0 0 0
0 0 0 0 0 0 0 0 0 0 0 0 0 0 0 0 0 0 0 0 0 0 0 150 274 347 200 231 140 69 92 73 64 399 663 627 713 561 439 206 229 220 109 114 44 16 0 0 0
0 0 0 0 0 0 0 0 0 0 0 0 0 0 0 0 0 0 0 0 0 0 0 0 35 214 320 210 219 287 168 370 488 335 285 499 523 475 465 250 210 230 36 30 17 4 0 0 0
0 0 0 0 0 0 0 0 0 0 0 0 0 0 0 0 0 0 0 0 0 0 0 0 0 25 198 315 209 63 63 98 150 127 120 217 275 354 421 320 323 203 82 96 23 6 0 0 0
0 0 0 0 0 0 0 0 0 0 0 0 0 0 0 0 0 0 0 0 0 0 0 0 0 0 71 244 192 65 11 66 135 133 92 133 185 247 269 281 327 190 134 79 75 20 0 0 0
0 0 0 0 0 0 0 0 0 0 0 0 0 0 0 0 0 0 0 0 0 0 0 0 0 0 42 139 124 46 7 1 0 35 144 151 161 117 112 96 119 138 88 104 81 33 4 0 0
0 0 0 0 0 0 0 0 0 0 0 0 0 0 0 0 0 0 0 0 0 0 0 0 0 0 0 65 111 114 25 12 16 2 72 169 144 63 105 103 60 58 38 60 83 59 23 0 0
0 0 0 0 0 0 0 0 0 0 0 0 0 0 0 0 0 0 0 0 0 0 0 0 0 0 0 58 107 144 6 0 37 36 61 90 139 107 72 87 100 66 42 30 33 28 46 10 0
0 0 0 0 0 0 0 0 0 0 0 0 0 0 0 0 0 0 0 0 0 0 0 0 0 0 8 72 117 148 28 5 3 57 59 65 86 94 77 94 108 100 65 67 59 9 44 6 11
0 0 0 0 0 0 0 0 0 0 0 0 0 0 0 0 0 0 0 0 0 0 0 0 0 0 0 79 162 133 91 59 59 28 30 60 47 62 48 39 52 82 64 48 51 27 21 6 12
0 0 0 0 0 0 0 0 0 0 0 0 0 0 0 0 0 0 0 0 0 0 0 0 0 0 0 109 148 116 110 54 53 36 49 53 46 62 31 15 55 60 69 54 53 54 10 2 18
0 0 0 0 0 0 0 0 0 0 0 0 0 0 0 0 0 0 0 0 0 0 0 0 0 0 18 192 214 233 182 159 79 62 21 21 26 20 27 28 24 34 35 30 31 60 33 0 0
0 0 0 0 0 0 0 0 0 0 0 0 0 0 0 0 0 0 0 0 0 0 0 0 0 0 65 298 225 227 201 129 59 30 21 17 20 16 5 28 18 3 30 15 4 0 7 2 0
0 0 0 0 0 0 0 0 0 0 0 0 0 0 0 0 0 0 0 0 0 0 0 0 0 0 0 282 240 222 184 163 126 102 51 23 1 24 0 11 51 48 21 25 11 4 0 0 0
0 0 0 0 0 0 0 0 0 0 0 0 0 0 0 0 1 7 93 137 105 39 34 30 52 99 72 253 298 287 290 195 140 117 105 61 35 21 38 23 21 50 39 45 39 32 7 4 1
0 0 0 0 1 0 0 1 0 0 0 0 1 0 3 1 2 0 33 75 135 149 222 284 473 466 411 323 371 344 249 167 110 118 60 9 12 22 26 43 38 33 35 38 48 29 21 16 7
0 0 0 1 0 0 0 0 0 0 1 0 2 3 2 4 0 1 2 1 3 3 51 93 126 90 107 78 102 67 59 38 67 89 46 77 40 12 1 2 15 22 26 32 30 40 42 23 6
0 0 0 0 0 0 0 0 0 0 1 1 2 2 1 1 3 2 3 1 3 1 1 2 1 1 2 1 0 0 1 2 3 0 22 13 27 9 3 4 3 5 8 27 37 47 22 21 4
0 0 0 0 0 0 0 0 0 0 0 2 3 2 2 2 2 2 3 3 4 2 3 1 1 1 1 1 3 3 2 1 2 4 4 3 4 2 2 0 2 5 4 7 11 9 10 7 4
0 0 1 0 0 0 0 0 1 0 1 0 1 3 2 2 1 2 3 3 3 2 0 0 0 0 0 0 0 0 0 0 0 0 0 0 0 1 3 0 0 0 1 2 4 4 10 5 1
0 0 0 0 0 0 0 0 0 1 1 0 0 0 2 4 3 1 2 2 1 0 0 0 0 0 0 0 0 0 0 0 0 0 0 0 0 0 0 0 0 0 0 0 1 2 4 9 12
0 0 0 0 0 0 0 0 1 2 1 0 0 1 2 3 1 1 2 2 1 1 0 0 0 0 0 0 0 0 0 0 0 0 0 0 0 0 0 0 0 0 0 0 0 0 0 1 5
0 0 0 0 0 0 0 0 0 0 1 1 1 1 2 0 0 0 2 1 0 0 0 0 0 0 0 0 0 0 0 0 0 0 0 0 0 0 0 0 0 0 0 0 0 0 0 0 0

GFSSGP_con_mlcape_108.txt.gz
CAPE
0 0 0 0 0 0 0 0 0 0 0 0 0 0 0 0 0 0 276 484 987 1018 1337 909 1236 1542 1411 1193 897 913 1149 1161 1103 1026 859 978 800 484 183 95 15 412 966 420 170 175 98 39 2
0 0 0 0 0 0 0 0 0 0 0 0 0 0 0 0 5 0 495 28 956 1114 1399 1224 1166 1352 1381 1305 986 895 968 1056 1051 948 811 832 769 569 163 109 87 290 812 622 440 230 22 0 1
0 0 0 0 0 0 0 0 0 0 0 0 0 0 0 0 0 0 0 0 1019 1283 1419 1249 1016 1138 1296 1271 988 915 906 902 873 840 682 571 642 617 366 228 197 214 429 417 349 57 0 0 0
0 0 0 0 0 0 0 0 0 0 0 0 0 0 0 0 0 0 0 24 1130 1336 1315 1162 1070 1035 1043 1057 871 847 892 840 771 747 536 620 702 630 646 520 337 365 320 310 152 0 0 0 0
0 0 0 0 0 0 0 0 0 0 0 0 0 0 0 0 0 0 0 6 351 1187 1232 1059 824 990 927 1055 879 709 782 813 736 616 511 799 780 832 601 250 466 336 264 295 144 9 0 0 0
0 0 0 0 0 0 0 0 0 0 0 0 0 0 0 0 0 0 0 0 72 501 1061 950 799 626 791 916 824 746 686 690 699 619 676 759 756 817 606 285 513 376 337 349 247 95 0 0 0
0 0 0 0 0 0 0 0 0 0 0 0 0 0 0 0 0 0 0 0 17 281 896 759 573 659 554 615 705 793 831 687 635 571 509 600 598 598 646 447 477 476 521 227 192 27 0 0 0
0 0 0 0 0 0 0 0 0 0 0 0 0 0 0 0 0 0 0 0 0 0 14 568 702 382 421 338 341 185 494 774 839 619 566 490 723 667 436 413 326 400 345 272 119 16 0 0 0
0 0 0 0 0 0 0 0 0 0 0 0 0 0 0 0 0 0 0 0 0 0 0 0 214 701 468 354 276 88 33 26 190 534 718 729 465 365 496 416 379 260 284 152 105 37 0 0 0
0 0 0 0 0 0 0 0 0 0 0 0 0 0 0 0 0 0 0 0 0 0 0 0 0 111 605 491 365 230 206 129 39 22 63 299 259 254 296 366 249 318 288 164 90 84 10 0 0
0 0 0 0 0 0 0 0 0 0 0 0 0 0 0 0 0 0 0 0 0 0 0 0 0 0 71 649 565 492 292 211 281 178 391 206 169 319 332 337 432 377 255 245 106 144 3 2 0
0 0 0 0 0 0 0 0 0 0 0 0 0 0 0 0 0 0 0 0 0 0 0 0 0 0 0 91 576 604 279 217 168 242 191 122 109 275 196 191 384 477 300 262 213 124 6 0 0
0 0 0 0 0 0 0 0 0 0 0 0 0 0 0 0 0 0 0 0 0 0 0 0 0 0 0 24 137 471 412 81 50 157 249 207 193 289 254 318 313 488 350 260 206 142 20 0 0
0 0 0 0 0 0 0 0 0 0 0 0 0 0 0 0 0 0 0 0 0 0 0 0 0 0 0 0 60 160 408 169 0 0 8 158 301 391 465 438 427 373 365 331 242 199 87 2 0
0 0 0 0 0 0 0 0 0 0 0 0 0 0 0 0 0 0 0 0 0 0 0 0 0 0 0 0 40 102 372 336 81 1 0 4 127 206 254 333 339 341 487 170 167 133 85 62 0
0 0 0 0 0 0 0 0 0 0 0 0 0 0 0 0 0 0 0 0 0 0 0 0 0 0 0 0 44 94 429 126 0 0 0 16 57 138 165 191 231 242 228 226 222 192 60 58 40
0 0 0 0 0 0 0 0 0 0 0 0 0 0 0 0 0 0 0 0 0 0 0 0 0 0 0 0 57 127 289 203 15 46 9 25 47 84 151 170 140 132 181 199 187 187 146 49 46
0 0 0 0 0 0 0 0 0 0 0 0 0 0 0 0 0 0 0 0 0 0 0 0 0 0 0 0 65 168 196 265 306 161 82 37 51 104 154 153 142 101 83 135 145 116 100 64 76
0 0 0 0 0 0 0 0 0 0 0 0 0 0 0 0 0 0 0 0 0 0 0 0 0 0 0 0 40 141 195 298 276 173 285 163 70 107 163 152 146 61 40 40 19 26 38 8 31
0 0 0 0 0 0 0 0 0 0 0 0 0 0 0 1 0 0 0 0 0 0 0 0 0 0 0 5 186 376 426 299 420 506 403 317 210 179 178 161 161 166 46 22 4 6 10 5 60
0 0 0 0 0 0 0 0 0 0 0 0 0 3 7 7 1 10 2 6 46 36 1 0 0 0 0 38 448 428 601 576 524 445 434 374 266 229 206 151 201 181 112 21 26 78 67 50 32
0 0 0 0 0 0 0 0 0 0 0 0 0 0 1 1 1 10 5 3 14 69 293 415 179 193 46 282 471 413 673 644 496 524 571 543 413 336 273 228 153 159 143 93 54 73 60 42 12
0 0 0 1 2 2 0 0 0 0 0 0 0 2 4 1 1 2 9 4 4 0 252 665 608 563 511 122 181 419 414 380 283 194 195 390 342 257 253 276 234 178 136 104 124 94 93 46 14
0 0 2 1 0 0 0 0 0 0 0 3 2 2 4 3 2 0 3 3 3 2 6 200 350 291 219 50 62 42 63 141 125 75 123 153 109 267 157 95 79 101 147 133 141 81 44 47 21
0 1 0 0 0 0 0 1 0 0 1 4 4 3 3 2 3 1 4 3 4 4 1 2 2 3 5 5 7 5 5 3 0 2 5 1 2 2 2 2 3 12 11 46 33 34 14 19 41
0 0 0 0 0 0 1 0 0 0 0 2 4 3 3 3 2 1 3 2 4 5 3 2 2 0 1 1 3 1 1 0 0 0 0 0 1 1 0 0 0 2 1 1 0 0 19 60 47
0 0 1 0 2 1 0 0 0 0 1 0 2 1 1 4 2 1 2 3 2 2 2 2 0 0 0 0 0 0 0 0 0 0 0 0 0 0 0 0 0 0 0 0 1 0 2 6 21
0 0 0 3 0 0 0 0 0 0 1 1 1 0 1 4 2 2 1 1 2 1 0 0 0 0 0 0 0 0 0 0 0 0 0 0 0 0 0 0 0 0 0 0 0 0 0 0 0
0 1 0 0 0 0 0 0 0 0 0 1 0 1 0 2 1 1 2 2 0 0 0 0 0 0 0 0 0 0 0 0 0 0 0 0 0 0 0 0 0 0 0 0 0 0 0 0 0
0 0 0 0 0 0 0 0 0 0 1 2 0 1 1 0 1 1 0 0 0 0 0 0 0 0 0 0 0 0 0 0 0 0 0 0 0 0 0 0 0 0 0 0 0 0 0 0 0

GFSSGP_con_mlcape_111.txt.gz
CAPE
0 0 0 0 0 0 0 0 0 0 0 0 0 0 0 0 0 0 66 14 336 945 1330 935 1190 1311 1212 919 1172 1306 1118 976 1248 1304 1200 1061 848 683 290 141 20 237 310 431 141 622 560 135 5
0 0 0 0 0 0 0 0 0 0 0 0 0 0 0 0 0 0 51 0 406 1135 1485 1232 1000 1032 1145 953 730 1117 1289 1182 1167 1071 1099 1031 780 670 341 209 69 430 763 532 308 510 224 2 0
0 0 0 0 0 0 0 0 0 0 0 0 0 0 0 0 0 0 0 11 472 1250 1117 1384 1117 925 946 1042 720 618 897 1175 979 985 838 699 666 705 449 192 167 228 733 384 326 193 7 1 0
0 0 0 0 0 0 0 0 0 0 0 0 0 0 0 0 0 0 0 137 554 1035 1135 1323 1170 977 959 920 886 833 772 777 674 849 779 696 831 792 634 404 245 227 420 330 380 111 0 0 0
0 0 0 0 0 0 0 0 0 0 0 0 0 0 0 0 0 0 0 0 344 675 1110 1230 900 1032 962 871 857 724 648 714 634 693 566 707 785 856 719 494 463 305 258 196 244 34 0 0 0
0 0 0 0 0 0 0 0 0 0 0 0 0 0 0 0 0 0 0 0 83 348 903 1033 924 741 858 769 769 719 629 617 706 597 484 557 797 711 651 417 400 387 225 195 141 23 0 0 0
0 0 0 0 0 0 0 0 0 0 0 0 0 0 0 0 0 0 0 0 0 0 398 961 752 760 527 655 765 705 619 582 678 556 516 473 441 494 508 395 302 379 420 335 233 68 17 0 0
0 0 0 0 0 0 0 0 0 0 0 0 0 0 0 0 0 0 0 0 0 0 0 0 598 716 487 501 274 359 787 765 708 596 541 471 408 379 340 280 337 222 385 364 236 28 0 0 0
0 0 0 0 0 0 0 0 0 0 0 0 0 0 0 0 0 0 0 0 0 0 0 0 0 382 680 556 438 173 20 153 457 549 460 523 432 203 369 386 393 270 249 320 188 33 0 0 0
0 0 0 0 0 0 0 0 0 0 0 0 0 0 0 0 0 0 0 0 0 0 0 0 0 0 105 607 641 491 157 53 27 16 32 181 55 40 36 170 274 398 305 335 214 80 4 0 0
0 0 0 0 0 0 0 0 0 0 0 0 0 0 0 0 0 0 0 0 0 0 0 0 0 0 0 133 604 529 570 475 386 159 66 38 44 134 110 183 424 408 283 337 220 129 55 0 0
0 0 0 0 0 0 0 0 0 0 0 0 0 0 0 0 0 0 0 0 0 0 0 0 0 0 0 2 126 475 423 607 326 205 104 118 100 98 77 129 259 407 485 375 426 274 156 36 0
0 0 0 0 0 0 0 0 0 0 0 0 0 0 0 0 0 0 0 0 0 0 0 0 0 0 0 0 62 321 434 396 391 232 132 128 109 121 142 163 247 263 514 529 392 270 134 59 2
0 0 0 0 0 0 0 0 0 0 0 0 0 0 0 0 0 0 0 0 0 0 0 0 0 0 0 0 0 185 392 466 396 233 93 131 113 145 157 233 206 266 584 550 459 330 249 42 0
0 0 0 0 0 0 0 0 0 0 0 0 0 0 0 0 0 0 0 0 0 0 0 0 0 0 0 0 0 0 298 415 420 262 37 13 0 43 170 248 304 339 496 492 506 436 330 125 0
0 0 0 0 0 0 0 0 0 0 0 0 0 0 0 0 0 0 0 0 0 0 0 0 0 0 0 0 0 0 154 429 541 455 286 90 31 14 71 117 178 198 186 240 259 224 129 90 48
0 0 0 0 0 0 0 0 0 0 0 0 0 0 0 0 0 0 0 0 0 0 0 0 0 0 0 0 0 0 126 384 522 413 26 21 33 25 13 11 55 99 123 141 204 227 241 155 117
0 0 0 0 0 0 0 0 0 0 0 0 0 0 0 0 0 0 0 0 0 0 0 0 0 0 0 0 0 0 86 381 459 283 163 123 67 72 14 7 2 42 101 203 209 176 167 111 91
0 0 0 0 0 0 0 0 0 0 0 0 0 0 0 0 0 0 0 0 0 0 0 0 0 0 0 0 0 0 101 248 496 469 354 306 257 191 163 25 42 131 143 151 148 149 102 109 107
0 0 0 0 0 0 0 0 0 0 0 0 0 0 0 0 0 0 0 0 0 0 4 0 0 0 0 0 0 7 141 196 328 476 536 450 376 256 211 75 35 140 207 137 136 123 92 74 101
0 0 0 0 0 0 0 0 0 0 0 0 0 0 0 0 0 1 0 0 0 3 9 2 11 0 0 0 0 203 363 483 428 486 669 588 492 443 319 304 204 125 170 160 137 92 62 87 66
0 0 0 0 0 0 0 0 0 0 0 0 0 0 0 0 2 3 3 2 5 2 6 15 129 164 29 132 31 410 529 697 696 673 615 642 476 369 298 333 309 210 169 166 186 186 121 158 143
0 0 0 1 0 0 0 0 0 0 0 0 0 0 0 0 2 1 5 3 1 1 1 3 223 299 357 374 409 546 535 542 449 343 418 449 408 334 284 218 233 200 203 187 189 218 172 187 146
0 0 0 2 0 0 0 0 0 0 0 0 0 4 2 3 2 2 1 2 1 1 1 2 22 157 408 323 346 228 19 0 0 3 32 59 14 0 0 0 24 151 148 158 169 199 151 162 142
0 0 0 0 0 0 0 0 0 0 0 0 2 4 2 2 2 2 3 3 2 1 1 1 1 2 3 30 5 2 3 2 22 4 5 2 1 1 0 0 1 2 0 0 0 31 111 127 51
0 0 0 0 0 0 0 0 0 0 0 0 1 0 2 2 2 2 3 2 2 1 1 0 0 1 2 2 0 1 2 2 1 1 0 0 0 0 0 0 0 0 0 0 0 2 2 0 3
2 0 1 0 2 0 0 0 0 0 0 0 1 2 1 1 0 1 2 2 0 1 0 0 0 0 0 0 0 0 0 0 0 0 0 0 0 0 0 0 0 0 0 0 0 0 0 0 2
1 0 0 1 0 0 0 0 0 0 0 0 0 1 1 2 2 2 2 0 0 0 1 0 0 0 0 0 0 0 0 0 0 0 0 0 0 0 0 0 0 0 0 0 0 0 0 0 0
0 0 0 0 0 0 0 0 0 0 0 0 0 0 0 2 0 1 0 0 0 0 0 0 0 0 0 0 0 0 0 0 0 0 0 0 0 0 0 0 0 0 0 0 0 0 0 0 0
0 0 0 0 0 0 0 0 0 0 0 0 0 0 0 2 0 0 0 0 0 0 0 0 0 0 0 0 0 0 0 0 0 0 0 0 0 0 0 0 0 0 0 0 0 0 0 0 0

GFSSGP_con_mlcape_114.txt.gz
CAPE
0 0 0 0 0 0 0 0 0 0 0 0 0 0 0 0 0 9 0 0 429 952 1426 1151 1283 1159 855 807 1437 1122 1020 1000 1048 1082 1259 1098 732 738 192 39 0 10 118 149 5 496 505 113 56
0 0 0 0 0 0 0 0 0 0 0 0 0 0 0 0 0 0 0 0 393 963 1555 1068 1184 1063 1031 794 832 1165 1114 973 1046 903 1060 1063 805 655 474 200 9 352 596 625 317 558 438 16 16
0 0 0 0 0 0 0 0 0 0 0 0 0 0 0 0 0 0 0 27 396 790 1107 1339 1177 852 964 867 674 659 984 1003 1015 752 781 869 687 785 470 369 136 103 627 476 329 446 86 1 6
0 0 0 0 0 0 0 0 0 0 0 0 0 0 0 0 0 0 0 0 353 533 1012 1170 1099 902 912 871 870 715 695 833 934 930 866 600 579 813 651 401 177 70 452 320 301 167 0 0 0
0 0 0 0 0 0 0 0 0 0 0 0 0 0 0 0 0 0 0 0 57 382 760 1055 842 846 772 849 870 817 711 666 591 420 524 608 750 454 603 693 465 165 278 270 157 205 20 0 0
0 0 0 0 0 0 0 0 0 0 0 0 0 0 0 0 0 0 0 0 0 0 371 854 826 758 738 731 721 775 685 562 670 626 573 573 723 745 390 473 346 510 254 189 187 142 0 0 0
0 0 0 0 0 0 0 0 0 0 0 0 0 0 0 0 0 0 0 0 0 0 0 0 452 673 516 526 610 715 675 594 487 631 514 423 395 361 360 456 362 218 389 243 269 96 0 0 0
0 0 0 0 0 0 0 0 0 0 0 0 0 0 0 0 0 0 0 0 0 0 0 0 0 170 562 632 544 420 527 548 533 582 494 416 335 316 345 284 209 332 133 282 276 168 8 0 0
0 0 0 0 0 0 0 0 0 0 0 0 0 0 0 0 0 0 0 0 0 0 0 0 0 0 0 450 602 383 201 244 541 606 521 413 348 236 232 207 145 320 245 218 339 262 14 0 0
0 0 0 0 0 0 0 0 0 0 0 0 0 0 0 0 0 0 0 0 0 0 0 0 0 0 0 21 313 553 513 79 2 17 141 282 236 309 146 332 286 319 388 210 287 240 13 0 0
0 0 0 0 0 0 0 0 0 0 0 0 0 0 0 0 0 0 0 0 0 0 0 0 0 0 0 0 32 329 457 496 299 51 4 7 46 26 18 36 275 316 371 336 291 165 26 0 0
0 0 0 0 0 0 0 0 0 0 0 0 0 0 0 0 0 0 0 0 0 0 0 0 0 0 0 0 0 0 338 313 278 331 242 98 30 43 87 85 287 253 344 305 269 223 73 5 0
0 0 0 0 0 0 0 0 0 0 0 0 0 0 0 0 0 0 0 0 0 0 0 0 0 0 0 0 0 0 60 421 331 387 238 53 106 97 68 55 131 313 452 347 280 232 177 73 5
0 0 0 0 0 0 0 0 0 0 0 0 0 0 0 0 0 0 0 0 0 0 0 0 0 0 0 0 0 0 16 149 417 374 296 213 160 135 157 174 197 231 257 437 395 281 239 93 50
0 0 0 0 0 0 0 0 0 0 0 0 0 0 0 0 0 0 0 0 0 0 0 0 0 0 0 0 0 0 0 38 218 306 298 167 139 144 166 181 165 200 204 260 222 275 283 155 31
0 0 0 0 0 0 0 0 0 0 0 0 0 0 0 0 0 0 0 0 0 0 0 0 0 0 0 0 0 0 0 0 51 211 336 128 62 26 64 193 184 212 180 190 160 251 241 274 125
0 0 0 0 0 0 0 0 0 0 0 0 0 0 0 0 0 0 0 0 0 0 0 0 0 0 0 0 0 0 0 0 12 245 188 276 232 98 35 114 78 45 32 72 55 100 115 51 87
0 0 0 0 0 0 0 0 0 0 0 0 0 0 0 0 0 0 0 0 0 0 0 0 0 0 0 0 0 0 0 0 132 224 275 174 120 129 36 11 39 19 11 15 24 27 40 68 76
0 0 0 0 0 0 0 0 0 0 0 0 0 0 0 0 0 0 0 0 0 0 0 0 0 0 0 0 0 0 0 0 108 240 395 219 236 137 80 68 29 0 0 0 0 0 63 122 152
0 0 0 0 0 0 0 0 0 0 0 0 0 0 0 0 0 0 0 0 0 0 0 0 0 0 0 0 0 0 0 39 104 118 287 340 337 330 228 161 109 72 37 92 103 48 63 97 149
0 0 0 0 0 0 0 0 0 0 0 0 0 0 0 0 0 0 0 0 0 0 0 0 0 0 0 2 0 0 0 38 87 263 398 424 430 375 286 178 156 127 85 97 149 131 95 56 92
0 0 0 0 0 0 0 0 0 0 0 0 0 0 0 0 0 0 0 0 0 0 0 0 0 12 27 59 5 0 0 24 142 255 473 660 677 508 380 157 496 306 185 152 137 172 120 71 100
0 0 0 0 0 0 0 0 0 0 0 0 0 0 0 0 0 0 0 0 0 0 0 1 0 0 0 81 103 127 162 145 65 57 275 433 261 14 44 76 265 255 198 148 116 134 119 121 77
0 0 0 0 0 0 0 0 0 0 0 0 0 0 0 0 0 0 0 0 0 0 0 0 0 1 0 0 0 22 74 79 29 0 0 1 3 3 3 2 3 1 3 0 15 40 90 132 96
0 0 0 0 0 0 0 0 0 0 0 0 0 0 0 0 1 0 0 1 0 0 0 0 0 0 1 1 1 2 0 3 3 0 0 3 0 3 2 1 0 0 0 0 0 2 2 1 5
0 0 0 0 0 0 0 0 0 0 0 0 0 0 0 0 0 0 0 1 1 0 0 0 0 0 0 0 2 3 0 0 1 1 1 0 1 0 0 0 0 0 0 0 0 0 0 0 1
0 0 0 0 0 0 0 0 0 0 0 0 0 0 0 0 0 0 0 0 0 0 0 0 0 0 0 0 0 0 0 0 0 0 0 0 0 0 0 0 0 0 0 0 0 0 0 0 0
0 0 0 0 0 0 0 0 0 0 0 0 0 0 0 0 0 0 0 0 0 0 0 0 0 0 0 0 0 0 0 0 0 0 0 0 0 0 0 0 0 0 0 0 0 0 0 0 0
0 0 0 0 0 0 0 0 0 0 0 0 0 0 0 1 0 0 0 0 0 0 0 0 0 0 0 0 0 0 0 0 0 0 0 0 0 0 0 0 0 0 0 0 0 0 0 0 0
0 0 0 0 0 0 0 0 0 0 0 0 0 0 0 1 0 0 0 0 0 0 0 0 0 0 0 0 0 0 0 0 0 0 0 0 0 0 0 0 0 0 0 0 0 0 0 0 0

GFSSGP_con_mlcape_117.txt.gz
CAPE
0 0 0 0 0 0 0 0 0 0 0 0 0 0 0 0 0 0 0 0 298 767 1261 1244 1255 1080 945 925 1046 971 1029 950 995 1047 972 1071 723 611 150 0 0 226 61 5 16 393 458 148 194
0 0 0 0 0 0 0 0 0 0 0 0 0 0 0 0 0 0 0 0 298 711 1353 1238 1107 1093 929 763 892 993 974 953 982 932 977 993 771 711 350 158 0 143 251 484 99 440 369 25 9
0 0 0 0 0 0 0 0 0 0 0 0 0 0 0 0 0 0 0 0 242 598 1007 1166 1153 872 815 771 749 950 1028 961 1045 921 791 847 829 762 624 378 95 89 571 474 337 482 229 17 0
0 0 0 0 0 0 0 0 0 0 0 0 0 0 0 0 0 0 0 0 78 419 854 1120 948 801 648 667 784 735 761 756 882 922 697 626 627 819 880 443 271 30 375 467 396 397 81 9 0
0 0 0 0 0 0 0 0 0 0 0 0 0 0 0 0 0 0 0 0 0 11 503 978 869 827 707 650 649 699 679 657 665 677 788 809 724 772 536 578 402 188 137 453 278 285 75 0 0
0 0 0 0 0 0 0 0 0 0 0 0 0 0 0 0 0 0 0 0 0 0 0 187 716 786 716 671 653 635 640 605 647 652 569 592 735 887 653 468 547 433 138 174 193 319 132 0 0
0 0 0 0 0 0 0 0 0 0 0 0 0 0 0 0 0 0 0 0 0 0 0 0 0 505 608 591 558 547 599 542 468 529 617 560 517 506 492 450 432 304 348 175 215 226 99 0 0
0 0 0 0 0 0 0 0 0 0 0 0 0 0 0 0 0 0 0 0 0 0 0 0 0 0 0 426 604 575 498 514 520 508 489 439 384 323 366 353 359 392 293 246 301 291 98 0 0
0 0 0 0 0 0 0 0 0 0 0 0 0 0 0 0 0 0 0 0 0 0 0 0 0 0 0 0 175 491 479 379 379 399 416 460 405 292 207 183 137 151 279 247 189 294 195 21 0
0 0 0 0 0 0 0 0 0 0 0 0 0 0 0 0 0 0 0 0 0 0 0 0 0 0 0 0 0 61 468 376 259 117 89 160 160 127 103 123 188 181 227 302 217 318 268 55 0
0 0 0 0 0 0 0 0 0 0 0 0 0 0 0 0 0 0 0 0 0 0 0 0 0 0 0 0 0 0 4 243 317 71 17 24 51 131 91 93 156 208 289 368 267 282 250 21 0
0 0 0 0 0 0 0 0 0 0 0 0 0 0 0 0 0 0 0 0 0 0 0 0 0 0 0 0 0 0 0 0 191 352 299 118 20 28 36 1 39 129 305 263 257 144 113 46 7
0 0 0 0 0 0 0 0 0 0 0 0 0 0 0 0 0 0 0 0 0 0 0 0 0 0 0 0 0 0 0 0 0 212 291 233 157 88 82 122 143 204 274 257 233 146 96 72 36
0 0 0 0 0 0 0 0 0 0 0 0 0 0 0 0 0 0 0 0 0 0 0 0 0 0 0 0 0 0 0 0 0 0 199 334 208 115 158 145 113 148 293 336 294 207 165 133 90
0 0 0 0 0 0 0 0 0 0 0 0 0 0 0 0 0 0 0 0 0 0 0 0 0 0 0 0 0 0 0 0 0 0 0 230 268 210 184 206 125 186 374 435 267 165 228 200 112
0 0 0 0 0 0 0 0 0 0 0 0 0 0 0 0 0 0 0 0 0 0 0 0 0 0 0 0 0 0 0 0 0 0 0 0 127 176 123 177 273 252 274 269 227 215 186 213 156
0 0 0 0 0 0 0 0 0 0 0 0 0 0 0 0 0 0 0 0 0 0 0 0 0 0 0 0 0 0 0 0 0 0 0 11 112 127 103 125 202 153 173 165 152 180 164 127 75
0 0 0 0 0 0 0 0 0 0 0 0 0 0 0 0 0 0 0 0 0 0 0 0 0 0 0 0 0 0 0 0 0 0 0 130 146 215 160 117 135 123 128 107 80 87 63 34 2
0 0 0 0 0 0 0 0 0 0 0 0 0 0 0 0 0 0 0 0 0 0 0 0 0 0 0 0 0 0 0 0 0 0 19 24 67 114 264 182 122 126 121 62 32 33 14 0 0
0 0 0 0 0 0 0 0 0 0 0 0 0 0 0 0 0 0 0 0 0 0 0 0 0 0 1 3 0 0 0 0 0 0 0 0 0 76 339 289 180 109 52 11 0 0 3 11 30
0 0 0 0 0 0 0 0 0 0 0 0 0 0 0 0 0 0 0 0 0 0 0 0 0 0 1 0 0 0 0 0 0 3 0 0 39 116 218 382 300 183 1 0 14 26 28 23 68
0 0 0 0 0 0 0 0 0 0 0 0 0 0 0 0 0 0 0 0 0 0 0 0 0 1 2 1 0 0 0 0 0 0 27 76 23 32 18 172 308 168 130 38 45 78 78 59 32
0 0 0 0 0 0 0 0 0 0 0 0 0 0 0 0 0 0 0 0 0 0 0 0 0 0 1 0 0 0 0 0 0 0 14 2 0 0 0 0 25 41 77 61 79 150 199 192 149
0 0 0 0 0 0 0 0 0 0 0 0 0 0 0 0 0 0 0 0 0 0 0 0 0 0 0 3 1 2 0 0 0 0 1 5 2 6 0 0 2 0 3 1 2 5 10 22 41
0 0 0 0 0 0 0 0 0 0 0 0 0 0 0 0 0 0 0 0 0 0 0 0 0 0 0 0 1 1 2 2 3 0 3 5 1 2 0 1 0 0 2 1 1 0 0 0 0
0 0 0 0 0 0 0 0 0 0 0 0 0 0 0 0 0 0 0 0 0 0 0 0 0 0 0 0 0 0 0 0 0 0 0 0 0 0 0 0 0 0 0 0 0 0 0 0 0
0 0 0 0 0 0 0 0 0 0 0 0 0 0 0 0 0 1 0 0 0 0 0 0 0 0 0 0 0 0 0 0 0 0 0 0 0 0 0 0 0 0 0 0 0 0 0 0 0
0 0 0 0 0 0 0 0 0 0 0 0 0 0 0 0 0 0 0 0 0 0 0 0 0 0 0 0 0 0 0 0 0 0 0 0 0 0 0 0 0 0 0 0 0 0 0 0 0
0 0 0 0 0 0 0 0 0 0 0 0 0 0 0 0 0 0 0 0 0 0 0 0 0 0 0 0 0 0 0 0 0 0 0 0 0 0 0 0 0 0 0 0 0 0 0 0 0
0 0 0 0 0 0 0 0 0 0 0 0 0 0 0 0 0 0 0 0 0 0 0 0 0 0 0 0 0 0 0 0 0 0 0 0 0 0 0 0 0 0 0 0 0 0 0 0 0